<?xml version="1.0" encoding="UTF-8" standalone="no" ?>
<gpx xmlns="http://www.topografix.com/GPX/1/1" xmlns:xsi="http://www.w3.org/2001/XMLSchema-instance" xsi:schemaLocation="http://www.topografix.com/GPX/1/1 http://www.topografix.com/GPX/1/1/gpx.xsd" version="1.1" creator="VisuGPX - https://www.visugpx.com">
  <metadata>
    <name>2022-01-27 le Petit Ballon depuis Sondernach</name>
  </metadata>
  <trk>
    <name><![CDATA[2022-01-27 le Petit Ballon depuis Sondernach]]></name>
    <extensions>
      <line xmlns="http://www.topografix.com/GPX/gpx_style/0/2">
        <color>0000FF</color>
        <opacity>0.59</opacity>
        <width>6.0</width>
      </line>
    </extensions>
    <trkseg>
      <trkpt lat="47.9875" lon="7.08374">
        <ele>644.8</ele>
        <time>2022-01-27T08:51:10.000Z</time>
      </trkpt>
      <trkpt lat="47.98731" lon="7.08384">
        <ele>644.2</ele>
        <time>2022-01-27T08:51:20.000Z</time>
      </trkpt>
      <trkpt lat="47.98708" lon="7.08364">
        <ele>636.2</ele>
        <time>2022-01-27T08:51:30.000Z</time>
      </trkpt>
      <trkpt lat="47.9871" lon="7.08361">
        <ele>635.6</ele>
        <time>2022-01-27T08:51:40.000Z</time>
      </trkpt>
      <trkpt lat="47.9871" lon="7.08363">
        <ele>635.9</ele>
        <time>2022-01-27T08:51:50.000Z</time>
      </trkpt>
      <trkpt lat="47.9871" lon="7.08364">
        <ele>636.2</ele>
        <time>2022-01-27T08:52:33.000Z</time>
      </trkpt>
      <trkpt lat="47.98703" lon="7.08373">
        <ele>637.5</ele>
        <time>2022-01-27T08:52:43.000Z</time>
      </trkpt>
      <trkpt lat="47.98691" lon="7.08388">
        <ele>638.8</ele>
        <time>2022-01-27T08:52:53.000Z</time>
      </trkpt>
      <trkpt lat="47.98679" lon="7.08406">
        <ele>642.3</ele>
        <time>2022-01-27T08:53:03.000Z</time>
      </trkpt>
      <trkpt lat="47.98673" lon="7.0842">
        <ele>643.4</ele>
        <time>2022-01-27T08:53:12.116Z</time>
      </trkpt>
      <trkpt lat="47.98663" lon="7.08425">
        <ele>643</ele>
        <time>2022-01-27T08:53:21.626Z</time>
      </trkpt>
      <trkpt lat="47.98656" lon="7.0844">
        <ele>645.3</ele>
        <time>2022-01-27T08:53:31.000Z</time>
      </trkpt>
      <trkpt lat="47.98651" lon="7.08447">
        <ele>645.9</ele>
        <time>2022-01-27T08:53:40.194Z</time>
      </trkpt>
      <trkpt lat="47.98639" lon="7.08464">
        <ele>646.5</ele>
        <time>2022-01-27T08:53:49.233Z</time>
      </trkpt>
      <trkpt lat="47.98629" lon="7.08477">
        <ele>648</ele>
        <time>2022-01-27T08:53:58.433Z</time>
      </trkpt>
      <trkpt lat="47.98619" lon="7.0849">
        <ele>647.8</ele>
        <time>2022-01-27T08:54:08.000Z</time>
      </trkpt>
      <trkpt lat="47.98612" lon="7.08506">
        <ele>647.2</ele>
        <time>2022-01-27T08:54:17.372Z</time>
      </trkpt>
      <trkpt lat="47.98605" lon="7.08527">
        <ele>650.3</ele>
        <time>2022-01-27T08:54:26.811Z</time>
      </trkpt>
      <trkpt lat="47.98602" lon="7.0854">
        <ele>651.4</ele>
        <time>2022-01-27T08:54:36.000Z</time>
      </trkpt>
      <trkpt lat="47.986" lon="7.08557">
        <ele>652.4</ele>
        <time>2022-01-27T08:54:45.011Z</time>
      </trkpt>
      <trkpt lat="47.98596" lon="7.0857">
        <ele>653.2</ele>
        <time>2022-01-27T08:54:54.111Z</time>
      </trkpt>
      <trkpt lat="47.98591" lon="7.08585">
        <ele>653.6</ele>
        <time>2022-01-27T08:55:03.210Z</time>
      </trkpt>
      <trkpt lat="47.98589" lon="7.08596">
        <ele>654.6</ele>
        <time>2022-01-27T08:55:12.472Z</time>
      </trkpt>
      <trkpt lat="47.98587" lon="7.08612">
        <ele>656.4</ele>
        <time>2022-01-27T08:55:21.711Z</time>
      </trkpt>
      <trkpt lat="47.98586" lon="7.08625">
        <ele>657.4</ele>
        <time>2022-01-27T08:55:31.374Z</time>
      </trkpt>
      <trkpt lat="47.9858" lon="7.08647">
        <ele>658.6</ele>
        <time>2022-01-27T08:55:40.434Z</time>
      </trkpt>
      <trkpt lat="47.98577" lon="7.08662">
        <ele>659.9</ele>
        <time>2022-01-27T08:55:50.011Z</time>
      </trkpt>
      <trkpt lat="47.98576" lon="7.08677">
        <ele>661.7</ele>
        <time>2022-01-27T08:56:00.000Z</time>
      </trkpt>
      <trkpt lat="47.9857" lon="7.08692">
        <ele>662.8</ele>
        <time>2022-01-27T08:56:09.429Z</time>
      </trkpt>
      <trkpt lat="47.98569" lon="7.08704">
        <ele>663.8</ele>
        <time>2022-01-27T08:56:19.000Z</time>
      </trkpt>
      <trkpt lat="47.98563" lon="7.08726">
        <ele>663.9</ele>
        <time>2022-01-27T08:56:28.071Z</time>
      </trkpt>
      <trkpt lat="47.98557" lon="7.08744">
        <ele>664.6</ele>
        <time>2022-01-27T08:56:37.190Z</time>
      </trkpt>
      <trkpt lat="47.98553" lon="7.0876">
        <ele>665.6</ele>
        <time>2022-01-27T08:56:46.211Z</time>
      </trkpt>
      <trkpt lat="47.9855" lon="7.08772">
        <ele>666.4</ele>
        <time>2022-01-27T08:56:55.390Z</time>
      </trkpt>
      <trkpt lat="47.98544" lon="7.0879">
        <ele>668</ele>
        <time>2022-01-27T08:57:04.511Z</time>
      </trkpt>
      <trkpt lat="47.9854" lon="7.08804">
        <ele>669.2</ele>
        <time>2022-01-27T08:57:14.000Z</time>
      </trkpt>
      <trkpt lat="47.98535" lon="7.08819">
        <ele>670.1</ele>
        <time>2022-01-27T08:57:23.052Z</time>
      </trkpt>
      <trkpt lat="47.98531" lon="7.08834">
        <ele>670.7</ele>
        <time>2022-01-27T08:57:32.310Z</time>
      </trkpt>
      <trkpt lat="47.98527" lon="7.08847">
        <ele>671.5</ele>
        <time>2022-01-27T08:57:41.411Z</time>
      </trkpt>
      <trkpt lat="47.98522" lon="7.08857">
        <ele>672.4</ele>
        <time>2022-01-27T08:57:50.650Z</time>
      </trkpt>
      <trkpt lat="47.98519" lon="7.08872">
        <ele>673.6</ele>
        <time>2022-01-27T08:58:00.000Z</time>
      </trkpt>
      <trkpt lat="47.98517" lon="7.08887">
        <ele>674.6</ele>
        <time>2022-01-27T08:58:09.551Z</time>
      </trkpt>
      <trkpt lat="47.98512" lon="7.08903">
        <ele>676.8</ele>
        <time>2022-01-27T08:58:19.000Z</time>
      </trkpt>
      <trkpt lat="47.98506" lon="7.08916">
        <ele>677.7</ele>
        <time>2022-01-27T08:58:29.000Z</time>
      </trkpt>
      <trkpt lat="47.98505" lon="7.08928">
        <ele>678.9</ele>
        <time>2022-01-27T08:58:39.000Z</time>
      </trkpt>
      <trkpt lat="47.98498" lon="7.08943">
        <ele>678.7</ele>
        <time>2022-01-27T08:58:49.000Z</time>
      </trkpt>
      <trkpt lat="47.98494" lon="7.08956">
        <ele>680.3</ele>
        <time>2022-01-27T08:58:59.000Z</time>
      </trkpt>
      <trkpt lat="47.98493" lon="7.08974">
        <ele>682.5</ele>
        <time>2022-01-27T08:59:09.054Z</time>
      </trkpt>
      <trkpt lat="47.98487" lon="7.08984">
        <ele>683.2</ele>
        <time>2022-01-27T08:59:18.213Z</time>
      </trkpt>
      <trkpt lat="47.98482" lon="7.09">
        <ele>684.2</ele>
        <time>2022-01-27T08:59:27.333Z</time>
      </trkpt>
      <trkpt lat="47.98474" lon="7.09011">
        <ele>683.1</ele>
        <time>2022-01-27T08:59:36.371Z</time>
      </trkpt>
      <trkpt lat="47.98462" lon="7.0902">
        <ele>683.8</ele>
        <time>2022-01-27T08:59:45.411Z</time>
      </trkpt>
      <trkpt lat="47.98445" lon="7.09018">
        <ele>684.3</ele>
        <time>2022-01-27T08:59:55.000Z</time>
      </trkpt>
      <trkpt lat="47.98435" lon="7.09025">
        <ele>685.8</ele>
        <time>2022-01-27T09:00:04.151Z</time>
      </trkpt>
      <trkpt lat="47.98424" lon="7.09033">
        <ele>687.5</ele>
        <time>2022-01-27T09:00:13.712Z</time>
      </trkpt>
      <trkpt lat="47.98417" lon="7.09046">
        <ele>688.7</ele>
        <time>2022-01-27T09:00:23.288Z</time>
      </trkpt>
      <trkpt lat="47.98412" lon="7.0906">
        <ele>689.8</ele>
        <time>2022-01-27T09:00:32.513Z</time>
      </trkpt>
      <trkpt lat="47.98406" lon="7.09066">
        <ele>690.8</ele>
        <time>2022-01-27T09:00:42.210Z</time>
      </trkpt>
      <trkpt lat="47.98399" lon="7.09079">
        <ele>691.9</ele>
        <time>2022-01-27T09:00:51.635Z</time>
      </trkpt>
      <trkpt lat="47.984" lon="7.09094">
        <ele>693.5</ele>
        <time>2022-01-27T09:01:01.000Z</time>
      </trkpt>
      <trkpt lat="47.98409" lon="7.09101">
        <ele>693.6</ele>
        <time>2022-01-27T09:01:10.354Z</time>
      </trkpt>
      <trkpt lat="47.98419" lon="7.09107">
        <ele>693.4</ele>
        <time>2022-01-27T09:01:19.673Z</time>
      </trkpt>
      <trkpt lat="47.9843" lon="7.09112">
        <ele>693.8</ele>
        <time>2022-01-27T09:01:29.053Z</time>
      </trkpt>
      <trkpt lat="47.98439" lon="7.09113">
        <ele>693.8</ele>
        <time>2022-01-27T09:01:38.353Z</time>
      </trkpt>
      <trkpt lat="47.98447" lon="7.09119">
        <ele>695.3</ele>
        <time>2022-01-27T09:01:47.412Z</time>
      </trkpt>
      <trkpt lat="47.98455" lon="7.09123">
        <ele>696.2</ele>
        <time>2022-01-27T09:01:57.629Z</time>
      </trkpt>
      <trkpt lat="47.98466" lon="7.09129">
        <ele>697.3</ele>
        <time>2022-01-27T09:02:07.000Z</time>
      </trkpt>
      <trkpt lat="47.98476" lon="7.09136">
        <ele>698.2</ele>
        <time>2022-01-27T09:02:16.492Z</time>
      </trkpt>
      <trkpt lat="47.98485" lon="7.09146">
        <ele>700.6</ele>
        <time>2022-01-27T09:02:25.511Z</time>
      </trkpt>
      <trkpt lat="47.98494" lon="7.09161">
        <ele>701.6</ele>
        <time>2022-01-27T09:02:35.000Z</time>
      </trkpt>
      <trkpt lat="47.98501" lon="7.09168">
        <ele>700.5</ele>
        <time>2022-01-27T09:02:45.000Z</time>
      </trkpt>
      <trkpt lat="47.98503" lon="7.09166">
        <ele>700.6</ele>
        <time>2022-01-27T09:02:54.052Z</time>
      </trkpt>
      <trkpt lat="47.98512" lon="7.09176">
        <ele>703.3</ele>
        <time>2022-01-27T09:03:03.773Z</time>
      </trkpt>
      <trkpt lat="47.98516" lon="7.09181">
        <ele>703.9</ele>
        <time>2022-01-27T09:03:13.308Z</time>
      </trkpt>
      <trkpt lat="47.98522" lon="7.09195">
        <ele>703.8</ele>
        <time>2022-01-27T09:03:22.622Z</time>
      </trkpt>
      <trkpt lat="47.98534" lon="7.09206">
        <ele>706.2</ele>
        <time>2022-01-27T09:03:31.948Z</time>
      </trkpt>
      <trkpt lat="47.98541" lon="7.09218">
        <ele>707.5</ele>
        <time>2022-01-27T09:03:41.000Z</time>
      </trkpt>
      <trkpt lat="47.98549" lon="7.09227">
        <ele>708.2</ele>
        <time>2022-01-27T09:03:50.112Z</time>
      </trkpt>
      <trkpt lat="47.98558" lon="7.09231">
        <ele>709.5</ele>
        <time>2022-01-27T09:04:00.000Z</time>
      </trkpt>
      <trkpt lat="47.98566" lon="7.09239">
        <ele>711.9</ele>
        <time>2022-01-27T09:04:09.015Z</time>
      </trkpt>
      <trkpt lat="47.98573" lon="7.09248">
        <ele>712.2</ele>
        <time>2022-01-27T09:04:18.749Z</time>
      </trkpt>
      <trkpt lat="47.98578" lon="7.09256">
        <ele>713</ele>
        <time>2022-01-27T09:04:29.000Z</time>
      </trkpt>
      <trkpt lat="47.98583" lon="7.09269">
        <ele>714.8</ele>
        <time>2022-01-27T09:04:38.709Z</time>
      </trkpt>
      <trkpt lat="47.98588" lon="7.09277">
        <ele>716.3</ele>
        <time>2022-01-27T09:04:48.000Z</time>
      </trkpt>
      <trkpt lat="47.98593" lon="7.09287">
        <ele>718.4</ele>
        <time>2022-01-27T09:04:58.000Z</time>
      </trkpt>
      <trkpt lat="47.98594" lon="7.093">
        <ele>720.7</ele>
        <time>2022-01-27T09:05:07.171Z</time>
      </trkpt>
      <trkpt lat="47.98601" lon="7.09312">
        <ele>721.2</ele>
        <time>2022-01-27T09:05:17.000Z</time>
      </trkpt>
      <trkpt lat="47.98604" lon="7.09323">
        <ele>722.2</ele>
        <time>2022-01-27T09:05:26.494Z</time>
      </trkpt>
      <trkpt lat="47.98606" lon="7.09341">
        <ele>724.2</ele>
        <time>2022-01-27T09:05:36.000Z</time>
      </trkpt>
      <trkpt lat="47.98608" lon="7.09358">
        <ele>725.2</ele>
        <time>2022-01-27T09:05:46.000Z</time>
      </trkpt>
      <trkpt lat="47.98611" lon="7.09365">
        <ele>725</ele>
        <time>2022-01-27T09:05:55.272Z</time>
      </trkpt>
      <trkpt lat="47.98617" lon="7.09375">
        <ele>727.4</ele>
        <time>2022-01-27T09:06:04.349Z</time>
      </trkpt>
      <trkpt lat="47.98621" lon="7.09386">
        <ele>729.2</ele>
        <time>2022-01-27T09:06:13.694Z</time>
      </trkpt>
      <trkpt lat="47.9862" lon="7.09396">
        <ele>730.6</ele>
        <time>2022-01-27T09:06:23.000Z</time>
      </trkpt>
      <trkpt lat="47.98619" lon="7.09403">
        <ele>731.4</ele>
        <time>2022-01-27T09:06:33.000Z</time>
      </trkpt>
      <trkpt lat="47.98617" lon="7.09405">
        <ele>731.8</ele>
        <time>2022-01-27T09:06:42.453Z</time>
      </trkpt>
      <trkpt lat="47.98615" lon="7.09406">
        <ele>732.1</ele>
        <time>2022-01-27T09:06:51.653Z</time>
      </trkpt>
      <trkpt lat="47.98618" lon="7.09416">
        <ele>733.2</ele>
        <time>2022-01-27T09:07:00.714Z</time>
      </trkpt>
      <trkpt lat="47.98621" lon="7.09423">
        <ele>734.1</ele>
        <time>2022-01-27T09:07:10.000Z</time>
      </trkpt>
      <trkpt lat="47.98626" lon="7.09438">
        <ele>736.1</ele>
        <time>2022-01-27T09:07:19.636Z</time>
      </trkpt>
      <trkpt lat="47.98628" lon="7.0945">
        <ele>737.3</ele>
        <time>2022-01-27T09:07:29.000Z</time>
      </trkpt>
      <trkpt lat="47.98629" lon="7.09461">
        <ele>738</ele>
        <time>2022-01-27T09:07:38.670Z</time>
      </trkpt>
      <trkpt lat="47.98632" lon="7.09473">
        <ele>738.3</ele>
        <time>2022-01-27T09:07:48.000Z</time>
      </trkpt>
      <trkpt lat="47.98633" lon="7.09478">
        <ele>738.9</ele>
        <time>2022-01-27T09:07:57.639Z</time>
      </trkpt>
      <trkpt lat="47.98632" lon="7.09484">
        <ele>740.2</ele>
        <time>2022-01-27T09:08:07.000Z</time>
      </trkpt>
      <trkpt lat="47.98631" lon="7.09488">
        <ele>741</ele>
        <time>2022-01-27T09:08:17.000Z</time>
      </trkpt>
      <trkpt lat="47.9863" lon="7.09491">
        <ele>741.9</ele>
        <time>2022-01-27T09:08:43.000Z</time>
      </trkpt>
      <trkpt lat="47.98628" lon="7.09498">
        <ele>744</ele>
        <time>2022-01-27T09:08:52.549Z</time>
      </trkpt>
      <trkpt lat="47.98628" lon="7.09511">
        <ele>744.8</ele>
        <time>2022-01-27T09:09:02.752Z</time>
      </trkpt>
      <trkpt lat="47.98623" lon="7.09521">
        <ele>746.1</ele>
        <time>2022-01-27T09:09:12.274Z</time>
      </trkpt>
      <trkpt lat="47.98618" lon="7.09533">
        <ele>746.7</ele>
        <time>2022-01-27T09:09:22.000Z</time>
      </trkpt>
      <trkpt lat="47.98612" lon="7.0954">
        <ele>747</ele>
        <time>2022-01-27T09:09:31.254Z</time>
      </trkpt>
      <trkpt lat="47.98606" lon="7.09551">
        <ele>748.9</ele>
        <time>2022-01-27T09:09:40.311Z</time>
      </trkpt>
      <trkpt lat="47.986" lon="7.0956">
        <ele>751.2</ele>
        <time>2022-01-27T09:09:49.614Z</time>
      </trkpt>
      <trkpt lat="47.98598" lon="7.09571">
        <ele>752.7</ele>
        <time>2022-01-27T09:09:58.636Z</time>
      </trkpt>
      <trkpt lat="47.9859" lon="7.09583">
        <ele>754.3</ele>
        <time>2022-01-27T09:10:07.637Z</time>
      </trkpt>
      <trkpt lat="47.98584" lon="7.09593">
        <ele>754.7</ele>
        <time>2022-01-27T09:10:16.731Z</time>
      </trkpt>
      <trkpt lat="47.98579" lon="7.09604">
        <ele>756.2</ele>
        <time>2022-01-27T09:10:26.212Z</time>
      </trkpt>
      <trkpt lat="47.98575" lon="7.09616">
        <ele>757.9</ele>
        <time>2022-01-27T09:10:35.491Z</time>
      </trkpt>
      <trkpt lat="47.9857" lon="7.09621">
        <ele>759.6</ele>
        <time>2022-01-27T09:10:45.000Z</time>
      </trkpt>
      <trkpt lat="47.98565" lon="7.09637">
        <ele>759.8</ele>
        <time>2022-01-27T09:10:54.633Z</time>
      </trkpt>
      <trkpt lat="47.9856" lon="7.09644">
        <ele>760.8</ele>
        <time>2022-01-27T09:11:04.254Z</time>
      </trkpt>
      <trkpt lat="47.98552" lon="7.09649">
        <ele>762.8</ele>
        <time>2022-01-27T09:11:13.292Z</time>
      </trkpt>
      <trkpt lat="47.98546" lon="7.09653">
        <ele>764.9</ele>
        <time>2022-01-27T09:11:22.351Z</time>
      </trkpt>
      <trkpt lat="47.98539" lon="7.0966">
        <ele>766.2</ele>
        <time>2022-01-27T09:11:32.000Z</time>
      </trkpt>
      <trkpt lat="47.98535" lon="7.09674">
        <ele>766.6</ele>
        <time>2022-01-27T09:11:41.313Z</time>
      </trkpt>
      <trkpt lat="47.98533" lon="7.09684">
        <ele>767</ele>
        <time>2022-01-27T09:11:51.000Z</time>
      </trkpt>
      <trkpt lat="47.98529" lon="7.09696">
        <ele>766.7</ele>
        <time>2022-01-27T09:12:00.351Z</time>
      </trkpt>
      <trkpt lat="47.98533" lon="7.09711">
        <ele>771.8</ele>
        <time>2022-01-27T09:12:10.000Z</time>
      </trkpt>
      <trkpt lat="47.98526" lon="7.0972">
        <ele>773.4</ele>
        <time>2022-01-27T09:12:19.413Z</time>
      </trkpt>
      <trkpt lat="47.98521" lon="7.09727">
        <ele>774.4</ele>
        <time>2022-01-27T09:12:29.049Z</time>
      </trkpt>
      <trkpt lat="47.98509" lon="7.09733">
        <ele>774.2</ele>
        <time>2022-01-27T09:12:38.650Z</time>
      </trkpt>
      <trkpt lat="47.98503" lon="7.0974">
        <ele>774.1</ele>
        <time>2022-01-27T09:12:47.672Z</time>
      </trkpt>
      <trkpt lat="47.985" lon="7.09754">
        <ele>774.3</ele>
        <time>2022-01-27T09:12:56.711Z</time>
      </trkpt>
      <trkpt lat="47.985" lon="7.09767">
        <ele>775.2</ele>
        <time>2022-01-27T09:13:06.394Z</time>
      </trkpt>
      <trkpt lat="47.98497" lon="7.09777">
        <ele>776.6</ele>
        <time>2022-01-27T09:13:16.000Z</time>
      </trkpt>
      <trkpt lat="47.98496" lon="7.09784">
        <ele>778.1</ele>
        <time>2022-01-27T09:13:26.000Z</time>
      </trkpt>
      <trkpt lat="47.98495" lon="7.09784">
        <ele>778.3</ele>
        <time>2022-01-27T09:13:44.640Z</time>
      </trkpt>
      <trkpt lat="47.98493" lon="7.09796">
        <ele>780.8</ele>
        <time>2022-01-27T09:13:54.311Z</time>
      </trkpt>
      <trkpt lat="47.98491" lon="7.09802">
        <ele>781.7</ele>
        <time>2022-01-27T09:14:04.000Z</time>
      </trkpt>
      <trkpt lat="47.9849" lon="7.09803">
        <ele>781.9</ele>
        <time>2022-01-27T09:14:14.000Z</time>
      </trkpt>
      <trkpt lat="47.98482" lon="7.09811">
        <ele>782.7</ele>
        <time>2022-01-27T09:14:23.642Z</time>
      </trkpt>
      <trkpt lat="47.98479" lon="7.0982">
        <ele>783.7</ele>
        <time>2022-01-27T09:14:32.711Z</time>
      </trkpt>
      <trkpt lat="47.98479" lon="7.09822">
        <ele>784</ele>
        <time>2022-01-27T09:14:42.000Z</time>
      </trkpt>
      <trkpt lat="47.98478" lon="7.09823">
        <ele>784</ele>
        <time>2022-01-27T09:14:52.233Z</time>
      </trkpt>
      <trkpt lat="47.98468" lon="7.0984">
        <ele>785.8</ele>
        <time>2022-01-27T09:15:01.293Z</time>
      </trkpt>
      <trkpt lat="47.98462" lon="7.09852">
        <ele>787.7</ele>
        <time>2022-01-27T09:15:11.000Z</time>
      </trkpt>
      <trkpt lat="47.9846" lon="7.09858">
        <ele>788.4</ele>
        <time>2022-01-27T09:15:21.000Z</time>
      </trkpt>
      <trkpt lat="47.98452" lon="7.09873">
        <ele>789.9</ele>
        <time>2022-01-27T09:15:30.489Z</time>
      </trkpt>
      <trkpt lat="47.98448" lon="7.09876">
        <ele>789.7</ele>
        <time>2022-01-27T09:15:39.649Z</time>
      </trkpt>
      <trkpt lat="47.98446" lon="7.09885">
        <ele>790.9</ele>
        <time>2022-01-27T09:15:49.000Z</time>
      </trkpt>
      <trkpt lat="47.98443" lon="7.099">
        <ele>792.7</ele>
        <time>2022-01-27T09:15:58.572Z</time>
      </trkpt>
      <trkpt lat="47.9844" lon="7.09915">
        <ele>794.9</ele>
        <time>2022-01-27T09:16:08.290Z</time>
      </trkpt>
      <trkpt lat="47.98437" lon="7.09925">
        <ele>796.6</ele>
        <time>2022-01-27T09:16:18.000Z</time>
      </trkpt>
      <trkpt lat="47.98432" lon="7.09935">
        <ele>797.9</ele>
        <time>2022-01-27T09:16:27.412Z</time>
      </trkpt>
      <trkpt lat="47.98427" lon="7.09944">
        <ele>798.4</ele>
        <time>2022-01-27T09:16:37.000Z</time>
      </trkpt>
      <trkpt lat="47.98426" lon="7.09955">
        <ele>800</ele>
        <time>2022-01-27T09:16:46.373Z</time>
      </trkpt>
      <trkpt lat="47.98426" lon="7.09961">
        <ele>800.9</ele>
        <time>2022-01-27T09:16:56.000Z</time>
      </trkpt>
      <trkpt lat="47.98427" lon="7.09972">
        <ele>803.1</ele>
        <time>2022-01-27T09:17:05.632Z</time>
      </trkpt>
      <trkpt lat="47.98427" lon="7.0999">
        <ele>805.5</ele>
        <time>2022-01-27T09:17:14.734Z</time>
      </trkpt>
      <trkpt lat="47.98427" lon="7.10007">
        <ele>807.3</ele>
        <time>2022-01-27T09:17:24.450Z</time>
      </trkpt>
      <trkpt lat="47.98422" lon="7.10017">
        <ele>806.7</ele>
        <time>2022-01-27T09:17:33.749Z</time>
      </trkpt>
      <trkpt lat="47.98417" lon="7.10017">
        <ele>805.7</ele>
        <time>2022-01-27T09:17:44.000Z</time>
      </trkpt>
      <trkpt lat="47.98409" lon="7.10013">
        <ele>808.8</ele>
        <time>2022-01-27T09:17:53.392Z</time>
      </trkpt>
      <trkpt lat="47.98407" lon="7.09999">
        <ele>808.8</ele>
        <time>2022-01-27T09:18:03.000Z</time>
      </trkpt>
      <trkpt lat="47.984" lon="7.09993">
        <ele>810.4</ele>
        <time>2022-01-27T09:18:12.152Z</time>
      </trkpt>
      <trkpt lat="47.98393" lon="7.09976">
        <ele>810.6</ele>
        <time>2022-01-27T09:18:21.172Z</time>
      </trkpt>
      <trkpt lat="47.98388" lon="7.0996">
        <ele>812.2</ele>
        <time>2022-01-27T09:18:30.473Z</time>
      </trkpt>
      <trkpt lat="47.98389" lon="7.09951">
        <ele>812.1</ele>
        <time>2022-01-27T09:18:39.730Z</time>
      </trkpt>
      <trkpt lat="47.98386" lon="7.09943">
        <ele>812.8</ele>
        <time>2022-01-27T09:18:49.451Z</time>
      </trkpt>
      <trkpt lat="47.98381" lon="7.0994">
        <ele>814.2</ele>
        <time>2022-01-27T09:18:59.000Z</time>
      </trkpt>
      <trkpt lat="47.98375" lon="7.09947">
        <ele>816.1</ele>
        <time>2022-01-27T09:19:08.294Z</time>
      </trkpt>
      <trkpt lat="47.98374" lon="7.0996">
        <ele>816.9</ele>
        <time>2022-01-27T09:19:18.000Z</time>
      </trkpt>
      <trkpt lat="47.98376" lon="7.09968">
        <ele>816.4</ele>
        <time>2022-01-27T09:19:28.000Z</time>
      </trkpt>
      <trkpt lat="47.98381" lon="7.09975">
        <ele>815.4</ele>
        <time>2022-01-27T09:19:37.371Z</time>
      </trkpt>
      <trkpt lat="47.98385" lon="7.09989">
        <ele>815.7</ele>
        <time>2022-01-27T09:19:46.468Z</time>
      </trkpt>
      <trkpt lat="47.98389" lon="7.09998">
        <ele>815.6</ele>
        <time>2022-01-27T09:19:56.000Z</time>
      </trkpt>
      <trkpt lat="47.9839" lon="7.10009">
        <ele>816.7</ele>
        <time>2022-01-27T09:20:05.430Z</time>
      </trkpt>
      <trkpt lat="47.9839" lon="7.10018">
        <ele>817.6</ele>
        <time>2022-01-27T09:20:15.190Z</time>
      </trkpt>
      <trkpt lat="47.9839" lon="7.10024">
        <ele>818</ele>
        <time>2022-01-27T09:20:24.450Z</time>
      </trkpt>
      <trkpt lat="47.98393" lon="7.10037">
        <ele>818.2</ele>
        <time>2022-01-27T09:20:35.000Z</time>
      </trkpt>
      <trkpt lat="47.98394" lon="7.10051">
        <ele>819.1</ele>
        <time>2022-01-27T09:20:44.231Z</time>
      </trkpt>
      <trkpt lat="47.98394" lon="7.10064">
        <ele>820.9</ele>
        <time>2022-01-27T09:20:54.000Z</time>
      </trkpt>
      <trkpt lat="47.98397" lon="7.10071">
        <ele>820.6</ele>
        <time>2022-01-27T09:21:03.639Z</time>
      </trkpt>
      <trkpt lat="47.98402" lon="7.10079">
        <ele>819.9</ele>
        <time>2022-01-27T09:21:13.193Z</time>
      </trkpt>
      <trkpt lat="47.98405" lon="7.1009">
        <ele>820.6</ele>
        <time>2022-01-27T09:21:22.634Z</time>
      </trkpt>
      <trkpt lat="47.98407" lon="7.10108">
        <ele>823.8</ele>
        <time>2022-01-27T09:21:32.368Z</time>
      </trkpt>
      <trkpt lat="47.98408" lon="7.10128">
        <ele>827.8</ele>
        <time>2022-01-27T09:21:41.554Z</time>
      </trkpt>
      <trkpt lat="47.98408" lon="7.10142">
        <ele>830.3</ele>
        <time>2022-01-27T09:21:51.000Z</time>
      </trkpt>
      <trkpt lat="47.98411" lon="7.10152">
        <ele>831.6</ele>
        <time>2022-01-27T09:22:00.535Z</time>
      </trkpt>
      <trkpt lat="47.98413" lon="7.10161">
        <ele>832.7</ele>
        <time>2022-01-27T09:22:10.149Z</time>
      </trkpt>
      <trkpt lat="47.98416" lon="7.1017">
        <ele>833.6</ele>
        <time>2022-01-27T09:22:19.155Z</time>
      </trkpt>
      <trkpt lat="47.98418" lon="7.10182">
        <ele>834.6</ele>
        <time>2022-01-27T09:22:29.000Z</time>
      </trkpt>
      <trkpt lat="47.98418" lon="7.10183">
        <ele>834.7</ele>
        <time>2022-01-27T09:22:39.000Z</time>
      </trkpt>
      <trkpt lat="47.98418" lon="7.10187">
        <ele>835.2</ele>
        <time>2022-01-27T09:22:49.000Z</time>
      </trkpt>
      <trkpt lat="47.98422" lon="7.10198">
        <ele>835</ele>
        <time>2022-01-27T09:22:59.000Z</time>
      </trkpt>
      <trkpt lat="47.98423" lon="7.10205">
        <ele>835.6</ele>
        <time>2022-01-27T09:23:09.000Z</time>
      </trkpt>
      <trkpt lat="47.98428" lon="7.10213">
        <ele>834.8</ele>
        <time>2022-01-27T09:23:18.273Z</time>
      </trkpt>
      <trkpt lat="47.98432" lon="7.10227">
        <ele>835.5</ele>
        <time>2022-01-27T09:23:27.713Z</time>
      </trkpt>
      <trkpt lat="47.98434" lon="7.10246">
        <ele>837.7</ele>
        <time>2022-01-27T09:23:37.269Z</time>
      </trkpt>
      <trkpt lat="47.98434" lon="7.10257">
        <ele>839.2</ele>
        <time>2022-01-27T09:23:46.689Z</time>
      </trkpt>
      <trkpt lat="47.98434" lon="7.10263">
        <ele>839.9</ele>
        <time>2022-01-27T09:23:56.000Z</time>
      </trkpt>
      <trkpt lat="47.98434" lon="7.10266">
        <ele>840.4</ele>
        <time>2022-01-27T09:24:06.000Z</time>
      </trkpt>
      <trkpt lat="47.98435" lon="7.10276">
        <ele>841.1</ele>
        <time>2022-01-27T09:24:16.000Z</time>
      </trkpt>
      <trkpt lat="47.98438" lon="7.10285">
        <ele>841.5</ele>
        <time>2022-01-27T09:24:25.635Z</time>
      </trkpt>
      <trkpt lat="47.98438" lon="7.10296">
        <ele>842.8</ele>
        <time>2022-01-27T09:24:34.672Z</time>
      </trkpt>
      <trkpt lat="47.98437" lon="7.10309">
        <ele>845.1</ele>
        <time>2022-01-27T09:24:44.000Z</time>
      </trkpt>
      <trkpt lat="47.98438" lon="7.10316">
        <ele>845.7</ele>
        <time>2022-01-27T09:24:53.653Z</time>
      </trkpt>
      <trkpt lat="47.98442" lon="7.10328">
        <ele>846.3</ele>
        <time>2022-01-27T09:25:03.000Z</time>
      </trkpt>
      <trkpt lat="47.9844" lon="7.10342">
        <ele>848.9</ele>
        <time>2022-01-27T09:25:12.416Z</time>
      </trkpt>
      <trkpt lat="47.98438" lon="7.10352">
        <ele>851.6</ele>
        <time>2022-01-27T09:25:22.000Z</time>
      </trkpt>
      <trkpt lat="47.98438" lon="7.1036">
        <ele>852.7</ele>
        <time>2022-01-27T09:25:31.471Z</time>
      </trkpt>
      <trkpt lat="47.9844" lon="7.10368">
        <ele>852.8</ele>
        <time>2022-01-27T09:25:40.633Z</time>
      </trkpt>
      <trkpt lat="47.98441" lon="7.1037">
        <ele>852.6</ele>
        <time>2022-01-27T09:25:50.193Z</time>
      </trkpt>
      <trkpt lat="47.98444" lon="7.10383">
        <ele>852.5</ele>
        <time>2022-01-27T09:25:59.311Z</time>
      </trkpt>
      <trkpt lat="47.98446" lon="7.1039">
        <ele>853.1</ele>
        <time>2022-01-27T09:26:09.000Z</time>
      </trkpt>
      <trkpt lat="47.98446" lon="7.10398">
        <ele>854.5</ele>
        <time>2022-01-27T09:26:19.000Z</time>
      </trkpt>
      <trkpt lat="47.98447" lon="7.10404">
        <ele>855.3</ele>
        <time>2022-01-27T09:26:28.453Z</time>
      </trkpt>
      <trkpt lat="47.98446" lon="7.10422">
        <ele>858.5</ele>
        <time>2022-01-27T09:26:37.641Z</time>
      </trkpt>
      <trkpt lat="47.98446" lon="7.10438">
        <ele>860.9</ele>
        <time>2022-01-27T09:26:47.333Z</time>
      </trkpt>
      <trkpt lat="47.98447" lon="7.10449">
        <ele>862.1</ele>
        <time>2022-01-27T09:26:57.000Z</time>
      </trkpt>
      <trkpt lat="47.98447" lon="7.10458">
        <ele>862.9</ele>
        <time>2022-01-27T09:27:06.133Z</time>
      </trkpt>
      <trkpt lat="47.98447" lon="7.10468">
        <ele>863.9</ele>
        <time>2022-01-27T09:27:15.351Z</time>
      </trkpt>
      <trkpt lat="47.98446" lon="7.10472">
        <ele>864.6</ele>
        <time>2022-01-27T09:27:24.531Z</time>
      </trkpt>
      <trkpt lat="47.98444" lon="7.10483">
        <ele>865.2</ele>
        <time>2022-01-27T09:27:34.000Z</time>
      </trkpt>
      <trkpt lat="47.98438" lon="7.10498">
        <ele>867.9</ele>
        <time>2022-01-27T09:27:44.000Z</time>
      </trkpt>
      <trkpt lat="47.98439" lon="7.105">
        <ele>867.8</ele>
        <time>2022-01-27T09:27:54.000Z</time>
      </trkpt>
      <trkpt lat="47.98439" lon="7.10501">
        <ele>867.5</ele>
        <time>2022-01-27T09:28:03.572Z</time>
      </trkpt>
      <trkpt lat="47.98439" lon="7.10502">
        <ele>867.9</ele>
        <time>2022-01-27T09:28:29.710Z</time>
      </trkpt>
      <trkpt lat="47.98433" lon="7.10513">
        <ele>870.2</ele>
        <time>2022-01-27T09:28:39.000Z</time>
      </trkpt>
      <trkpt lat="47.98429" lon="7.10526">
        <ele>871.5</ele>
        <time>2022-01-27T09:28:48.290Z</time>
      </trkpt>
      <trkpt lat="47.98425" lon="7.10539">
        <ele>872.6</ele>
        <time>2022-01-27T09:28:58.000Z</time>
      </trkpt>
      <trkpt lat="47.98424" lon="7.10546">
        <ele>872.8</ele>
        <time>2022-01-27T09:29:07.552Z</time>
      </trkpt>
      <trkpt lat="47.98421" lon="7.10562">
        <ele>873.4</ele>
        <time>2022-01-27T09:29:17.253Z</time>
      </trkpt>
      <trkpt lat="47.98417" lon="7.10566">
        <ele>873.4</ele>
        <time>2022-01-27T09:29:27.000Z</time>
      </trkpt>
      <trkpt lat="47.98415" lon="7.10564">
        <ele>874.3</ele>
        <time>2022-01-27T09:29:36.429Z</time>
      </trkpt>
      <trkpt lat="47.98412" lon="7.10573">
        <ele>875.8</ele>
        <time>2022-01-27T09:29:46.000Z</time>
      </trkpt>
      <trkpt lat="47.98411" lon="7.10587">
        <ele>877</ele>
        <time>2022-01-27T09:29:55.332Z</time>
      </trkpt>
      <trkpt lat="47.9841" lon="7.10595">
        <ele>878.7</ele>
        <time>2022-01-27T09:30:05.000Z</time>
      </trkpt>
      <trkpt lat="47.98406" lon="7.10608">
        <ele>881.4</ele>
        <time>2022-01-27T09:30:14.631Z</time>
      </trkpt>
      <trkpt lat="47.98407" lon="7.10615">
        <ele>882</ele>
        <time>2022-01-27T09:30:24.000Z</time>
      </trkpt>
      <trkpt lat="47.98406" lon="7.10622">
        <ele>883.1</ele>
        <time>2022-01-27T09:30:33.604Z</time>
      </trkpt>
      <trkpt lat="47.98403" lon="7.1063">
        <ele>884.5</ele>
        <time>2022-01-27T09:30:43.000Z</time>
      </trkpt>
      <trkpt lat="47.98403" lon="7.10645">
        <ele>885.9</ele>
        <time>2022-01-27T09:30:52.736Z</time>
      </trkpt>
      <trkpt lat="47.98403" lon="7.1065">
        <ele>886.3</ele>
        <time>2022-01-27T09:31:02.000Z</time>
      </trkpt>
      <trkpt lat="47.98403" lon="7.10652">
        <ele>886.4</ele>
        <time>2022-01-27T09:31:12.000Z</time>
      </trkpt>
      <trkpt lat="47.98393" lon="7.10653">
        <ele>886.2</ele>
        <time>2022-01-27T09:31:21.491Z</time>
      </trkpt>
      <trkpt lat="47.98387" lon="7.10651">
        <ele>886.7</ele>
        <time>2022-01-27T09:31:30.711Z</time>
      </trkpt>
      <trkpt lat="47.98386" lon="7.10645">
        <ele>887.3</ele>
        <time>2022-01-27T09:31:40.607Z</time>
      </trkpt>
      <trkpt lat="47.98382" lon="7.10633">
        <ele>889.2</ele>
        <time>2022-01-27T09:31:50.614Z</time>
      </trkpt>
      <trkpt lat="47.98382" lon="7.10623">
        <ele>889.2</ele>
        <time>2022-01-27T09:32:00.000Z</time>
      </trkpt>
      <trkpt lat="47.98382" lon="7.10613">
        <ele>889.1</ele>
        <time>2022-01-27T09:32:09.289Z</time>
      </trkpt>
      <trkpt lat="47.98381" lon="7.10604">
        <ele>890</ele>
        <time>2022-01-27T09:32:19.000Z</time>
      </trkpt>
      <trkpt lat="47.98378" lon="7.10593">
        <ele>892</ele>
        <time>2022-01-27T09:32:28.129Z</time>
      </trkpt>
      <trkpt lat="47.98376" lon="7.10592">
        <ele>892.9</ele>
        <time>2022-01-27T09:32:37.409Z</time>
      </trkpt>
      <trkpt lat="47.98372" lon="7.10595">
        <ele>894.5</ele>
        <time>2022-01-27T09:32:47.000Z</time>
      </trkpt>
      <trkpt lat="47.98373" lon="7.10607">
        <ele>893.2</ele>
        <time>2022-01-27T09:32:56.630Z</time>
      </trkpt>
      <trkpt lat="47.98375" lon="7.10614">
        <ele>892</ele>
        <time>2022-01-27T09:33:06.294Z</time>
      </trkpt>
      <trkpt lat="47.98376" lon="7.10626">
        <ele>891.9</ele>
        <time>2022-01-27T09:33:15.513Z</time>
      </trkpt>
      <trkpt lat="47.98374" lon="7.10641">
        <ele>893</ele>
        <time>2022-01-27T09:33:26.000Z</time>
      </trkpt>
      <trkpt lat="47.98371" lon="7.10657">
        <ele>894</ele>
        <time>2022-01-27T09:33:35.031Z</time>
      </trkpt>
      <trkpt lat="47.9837" lon="7.10671">
        <ele>894.5</ele>
        <time>2022-01-27T09:33:44.731Z</time>
      </trkpt>
      <trkpt lat="47.9837" lon="7.10678">
        <ele>895.1</ele>
        <time>2022-01-27T09:33:54.000Z</time>
      </trkpt>
      <trkpt lat="47.98369" lon="7.10681">
        <ele>895.5</ele>
        <time>2022-01-27T09:34:04.000Z</time>
      </trkpt>
      <trkpt lat="47.98369" lon="7.10697">
        <ele>896.8</ele>
        <time>2022-01-27T09:34:13.355Z</time>
      </trkpt>
      <trkpt lat="47.98372" lon="7.10702">
        <ele>895.9</ele>
        <time>2022-01-27T09:34:23.000Z</time>
      </trkpt>
      <trkpt lat="47.98374" lon="7.10702">
        <ele>895.4</ele>
        <time>2022-01-27T09:34:33.000Z</time>
      </trkpt>
      <trkpt lat="47.98379" lon="7.10713">
        <ele>894.2</ele>
        <time>2022-01-27T09:34:42.734Z</time>
      </trkpt>
      <trkpt lat="47.98377" lon="7.10725">
        <ele>896.5</ele>
        <time>2022-01-27T09:34:52.000Z</time>
      </trkpt>
      <trkpt lat="47.98377" lon="7.10733">
        <ele>897.8</ele>
        <time>2022-01-27T09:35:02.000Z</time>
      </trkpt>
      <trkpt lat="47.98377" lon="7.10741">
        <ele>899.2</ele>
        <time>2022-01-27T09:35:11.493Z</time>
      </trkpt>
      <trkpt lat="47.98377" lon="7.10759">
        <ele>901.7</ele>
        <time>2022-01-27T09:35:20.644Z</time>
      </trkpt>
      <trkpt lat="47.98377" lon="7.10771">
        <ele>903.7</ele>
        <time>2022-01-27T09:35:30.000Z</time>
      </trkpt>
      <trkpt lat="47.98378" lon="7.1078">
        <ele>904.8</ele>
        <time>2022-01-27T09:35:39.372Z</time>
      </trkpt>
      <trkpt lat="47.9838" lon="7.10788">
        <ele>905.9</ele>
        <time>2022-01-27T09:35:49.000Z</time>
      </trkpt>
      <trkpt lat="47.98387" lon="7.10794">
        <ele>905</ele>
        <time>2022-01-27T09:35:58.234Z</time>
      </trkpt>
      <trkpt lat="47.98396" lon="7.10803">
        <ele>905.9</ele>
        <time>2022-01-27T09:36:07.310Z</time>
      </trkpt>
      <trkpt lat="47.98396" lon="7.10812">
        <ele>907.1</ele>
        <time>2022-01-27T09:36:17.000Z</time>
      </trkpt>
      <trkpt lat="47.98399" lon="7.10824">
        <ele>908.2</ele>
        <time>2022-01-27T09:36:26.691Z</time>
      </trkpt>
      <trkpt lat="47.98407" lon="7.10833">
        <ele>908.7</ele>
        <time>2022-01-27T09:36:36.253Z</time>
      </trkpt>
      <trkpt lat="47.98409" lon="7.10844">
        <ele>910.1</ele>
        <time>2022-01-27T09:36:45.532Z</time>
      </trkpt>
      <trkpt lat="47.98412" lon="7.10852">
        <ele>911</ele>
        <time>2022-01-27T09:36:54.554Z</time>
      </trkpt>
      <trkpt lat="47.98414" lon="7.10862">
        <ele>912.3</ele>
        <time>2022-01-27T09:37:04.000Z</time>
      </trkpt>
      <trkpt lat="47.98409" lon="7.10871">
        <ele>914.3</ele>
        <time>2022-01-27T09:37:13.234Z</time>
      </trkpt>
      <trkpt lat="47.98405" lon="7.10881">
        <ele>916</ele>
        <time>2022-01-27T09:37:23.000Z</time>
      </trkpt>
      <trkpt lat="47.98405" lon="7.10882">
        <ele>916.3</ele>
        <time>2022-01-27T09:37:33.000Z</time>
      </trkpt>
      <trkpt lat="47.98404" lon="7.10883">
        <ele>916.5</ele>
        <time>2022-01-27T09:37:48.000Z</time>
      </trkpt>
      <trkpt lat="47.984" lon="7.10887">
        <ele>917.2</ele>
        <time>2022-01-27T09:37:58.000Z</time>
      </trkpt>
      <trkpt lat="47.98401" lon="7.10887">
        <ele>917.3</ele>
        <time>2022-01-27T09:38:08.000Z</time>
      </trkpt>
      <trkpt lat="47.98401" lon="7.1089">
        <ele>917.7</ele>
        <time>2022-01-27T09:38:53.000Z</time>
      </trkpt>
      <trkpt lat="47.984" lon="7.10895">
        <ele>919.2</ele>
        <time>2022-01-27T09:39:02.371Z</time>
      </trkpt>
      <trkpt lat="47.98395" lon="7.10894">
        <ele>919.1</ele>
        <time>2022-01-27T09:39:12.000Z</time>
      </trkpt>
      <trkpt lat="47.98394" lon="7.10895">
        <ele>919.2</ele>
        <time>2022-01-27T09:39:23.000Z</time>
      </trkpt>
      <trkpt lat="47.98393" lon="7.10895">
        <ele>919.3</ele>
        <time>2022-01-27T09:39:35.313Z</time>
      </trkpt>
      <trkpt lat="47.98389" lon="7.10899">
        <ele>920.1</ele>
        <time>2022-01-27T09:39:45.000Z</time>
      </trkpt>
      <trkpt lat="47.98388" lon="7.10903">
        <ele>921.1</ele>
        <time>2022-01-27T09:39:55.000Z</time>
      </trkpt>
      <trkpt lat="47.98387" lon="7.10905">
        <ele>921.5</ele>
        <time>2022-01-27T09:40:07.690Z</time>
      </trkpt>
      <trkpt lat="47.98382" lon="7.10908">
        <ele>922.5</ele>
        <time>2022-01-27T09:40:17.000Z</time>
      </trkpt>
      <trkpt lat="47.98381" lon="7.10909">
        <ele>922.7</ele>
        <time>2022-01-27T09:40:26.690Z</time>
      </trkpt>
      <trkpt lat="47.9837" lon="7.10912">
        <ele>923.8</ele>
        <time>2022-01-27T09:40:36.192Z</time>
      </trkpt>
      <trkpt lat="47.98365" lon="7.10913">
        <ele>924.2</ele>
        <time>2022-01-27T09:40:46.000Z</time>
      </trkpt>
      <trkpt lat="47.98354" lon="7.10915">
        <ele>925.5</ele>
        <time>2022-01-27T09:40:56.000Z</time>
      </trkpt>
      <trkpt lat="47.98348" lon="7.10916">
        <ele>926.3</ele>
        <time>2022-01-27T09:41:06.000Z</time>
      </trkpt>
      <trkpt lat="47.98341" lon="7.10917">
        <ele>927.2</ele>
        <time>2022-01-27T09:41:15.274Z</time>
      </trkpt>
      <trkpt lat="47.98333" lon="7.1092">
        <ele>929</ele>
        <time>2022-01-27T09:41:24.433Z</time>
      </trkpt>
      <trkpt lat="47.9833" lon="7.10919">
        <ele>929.4</ele>
        <time>2022-01-27T09:41:34.000Z</time>
      </trkpt>
      <trkpt lat="47.9833" lon="7.10921">
        <ele>929.8</ele>
        <time>2022-01-27T09:41:45.000Z</time>
      </trkpt>
      <trkpt lat="47.98341" lon="7.10936">
        <ele>932.3</ele>
        <time>2022-01-27T09:41:54.490Z</time>
      </trkpt>
      <trkpt lat="47.9835" lon="7.10943">
        <ele>933.6</ele>
        <time>2022-01-27T09:42:05.000Z</time>
      </trkpt>
      <trkpt lat="47.98356" lon="7.10948">
        <ele>934.5</ele>
        <time>2022-01-27T09:42:15.000Z</time>
      </trkpt>
      <trkpt lat="47.98359" lon="7.10949">
        <ele>934.9</ele>
        <time>2022-01-27T09:42:24.455Z</time>
      </trkpt>
      <trkpt lat="47.98361" lon="7.1095">
        <ele>935.2</ele>
        <time>2022-01-27T09:42:33.733Z</time>
      </trkpt>
      <trkpt lat="47.98373" lon="7.10958">
        <ele>939</ele>
        <time>2022-01-27T09:42:43.000Z</time>
      </trkpt>
      <trkpt lat="47.98381" lon="7.10961">
        <ele>940.7</ele>
        <time>2022-01-27T09:42:52.372Z</time>
      </trkpt>
      <trkpt lat="47.98388" lon="7.10959">
        <ele>940.8</ele>
        <time>2022-01-27T09:43:03.000Z</time>
      </trkpt>
      <trkpt lat="47.98393" lon="7.10959">
        <ele>941</ele>
        <time>2022-01-27T09:43:13.000Z</time>
      </trkpt>
      <trkpt lat="47.98399" lon="7.10958">
        <ele>941.1</ele>
        <time>2022-01-27T09:43:22.150Z</time>
      </trkpt>
      <trkpt lat="47.98399" lon="7.1096">
        <ele>941.7</ele>
        <time>2022-01-27T09:43:33.355Z</time>
      </trkpt>
      <trkpt lat="47.98393" lon="7.10965">
        <ele>943.5</ele>
        <time>2022-01-27T09:43:42.715Z</time>
      </trkpt>
      <trkpt lat="47.98389" lon="7.10968">
        <ele>944.5</ele>
        <time>2022-01-27T09:43:52.394Z</time>
      </trkpt>
      <trkpt lat="47.98388" lon="7.10969">
        <ele>944.6</ele>
        <time>2022-01-27T09:44:03.291Z</time>
      </trkpt>
      <trkpt lat="47.98377" lon="7.10982">
        <ele>948.5</ele>
        <time>2022-01-27T09:44:12.750Z</time>
      </trkpt>
      <trkpt lat="47.98369" lon="7.10989">
        <ele>950.5</ele>
        <time>2022-01-27T09:44:22.474Z</time>
      </trkpt>
      <trkpt lat="47.98363" lon="7.10992">
        <ele>951</ele>
        <time>2022-01-27T09:44:31.751Z</time>
      </trkpt>
      <trkpt lat="47.98357" lon="7.10996">
        <ele>952.3</ele>
        <time>2022-01-27T09:44:41.554Z</time>
      </trkpt>
      <trkpt lat="47.98356" lon="7.10998">
        <ele>953</ele>
        <time>2022-01-27T09:44:50.693Z</time>
      </trkpt>
      <trkpt lat="47.98356" lon="7.11">
        <ele>953.9</ele>
        <time>2022-01-27T09:45:01.454Z</time>
      </trkpt>
      <trkpt lat="47.98364" lon="7.11007">
        <ele>957.1</ele>
        <time>2022-01-27T09:45:10.652Z</time>
      </trkpt>
      <trkpt lat="47.98375" lon="7.11008">
        <ele>959.1</ele>
        <time>2022-01-27T09:45:20.133Z</time>
      </trkpt>
      <trkpt lat="47.98384" lon="7.11007">
        <ele>959.9</ele>
        <time>2022-01-27T09:45:29.432Z</time>
      </trkpt>
      <trkpt lat="47.98394" lon="7.11007">
        <ele>960.4</ele>
        <time>2022-01-27T09:45:38.559Z</time>
      </trkpt>
      <trkpt lat="47.98401" lon="7.11005">
        <ele>959.9</ele>
        <time>2022-01-27T09:45:49.000Z</time>
      </trkpt>
      <trkpt lat="47.98408" lon="7.11006">
        <ele>960.1</ele>
        <time>2022-01-27T09:45:58.714Z</time>
      </trkpt>
      <trkpt lat="47.98411" lon="7.11011">
        <ele>961.8</ele>
        <time>2022-01-27T09:46:08.000Z</time>
      </trkpt>
      <trkpt lat="47.98407" lon="7.11016">
        <ele>963.6</ele>
        <time>2022-01-27T09:46:18.000Z</time>
      </trkpt>
      <trkpt lat="47.98406" lon="7.11017">
        <ele>964.3</ele>
        <time>2022-01-27T09:46:28.000Z</time>
      </trkpt>
      <trkpt lat="47.98405" lon="7.11018">
        <ele>964.4</ele>
        <time>2022-01-27T09:48:19.174Z</time>
      </trkpt>
      <trkpt lat="47.9839" lon="7.11019">
        <ele>964.7</ele>
        <time>2022-01-27T09:48:29.000Z</time>
      </trkpt>
      <trkpt lat="47.98387" lon="7.11014">
        <ele>962.8</ele>
        <time>2022-01-27T09:48:39.000Z</time>
      </trkpt>
      <trkpt lat="47.98387" lon="7.11016">
        <ele>963.3</ele>
        <time>2022-01-27T09:48:58.627Z</time>
      </trkpt>
      <trkpt lat="47.9838" lon="7.11029">
        <ele>967</ele>
        <time>2022-01-27T09:49:08.000Z</time>
      </trkpt>
      <trkpt lat="47.98372" lon="7.11041">
        <ele>971.4</ele>
        <time>2022-01-27T09:49:17.211Z</time>
      </trkpt>
      <trkpt lat="47.98364" lon="7.11044">
        <ele>972.1</ele>
        <time>2022-01-27T09:49:26.410Z</time>
      </trkpt>
      <trkpt lat="47.98358" lon="7.11049">
        <ele>973.5</ele>
        <time>2022-01-27T09:49:35.651Z</time>
      </trkpt>
      <trkpt lat="47.98351" lon="7.11057">
        <ele>975.7</ele>
        <time>2022-01-27T09:49:44.710Z</time>
      </trkpt>
      <trkpt lat="47.98343" lon="7.11061">
        <ele>975.9</ele>
        <time>2022-01-27T09:49:54.471Z</time>
      </trkpt>
      <trkpt lat="47.98333" lon="7.11069">
        <ele>977.3</ele>
        <time>2022-01-27T09:50:05.000Z</time>
      </trkpt>
      <trkpt lat="47.98326" lon="7.11077">
        <ele>980.3</ele>
        <time>2022-01-27T09:50:15.000Z</time>
      </trkpt>
      <trkpt lat="47.98329" lon="7.11075">
        <ele>979.6</ele>
        <time>2022-01-27T09:50:24.254Z</time>
      </trkpt>
      <trkpt lat="47.98328" lon="7.11075">
        <ele>979.4</ele>
        <time>2022-01-27T09:50:34.000Z</time>
      </trkpt>
      <trkpt lat="47.98316" lon="7.11077">
        <ele>980.1</ele>
        <time>2022-01-27T09:50:43.512Z</time>
      </trkpt>
      <trkpt lat="47.98307" lon="7.1108">
        <ele>980.9</ele>
        <time>2022-01-27T09:50:53.000Z</time>
      </trkpt>
      <trkpt lat="47.98298" lon="7.11082">
        <ele>982.6</ele>
        <time>2022-01-27T09:51:03.000Z</time>
      </trkpt>
      <trkpt lat="47.98292" lon="7.11085">
        <ele>984.6</ele>
        <time>2022-01-27T09:51:13.000Z</time>
      </trkpt>
      <trkpt lat="47.9829" lon="7.11086">
        <ele>984.9</ele>
        <time>2022-01-27T09:51:23.000Z</time>
      </trkpt>
      <trkpt lat="47.98289" lon="7.11086">
        <ele>985.3</ele>
        <time>2022-01-27T09:51:32.190Z</time>
      </trkpt>
      <trkpt lat="47.9829" lon="7.11089">
        <ele>985.9</ele>
        <time>2022-01-27T09:51:41.730Z</time>
      </trkpt>
      <trkpt lat="47.98302" lon="7.11095">
        <ele>986.7</ele>
        <time>2022-01-27T09:51:51.153Z</time>
      </trkpt>
      <trkpt lat="47.98311" lon="7.11098">
        <ele>987.7</ele>
        <time>2022-01-27T09:52:01.000Z</time>
      </trkpt>
      <trkpt lat="47.98312" lon="7.11094">
        <ele>986.4</ele>
        <time>2022-01-27T09:52:10.453Z</time>
      </trkpt>
      <trkpt lat="47.98315" lon="7.11094">
        <ele>986.6</ele>
        <time>2022-01-27T09:52:20.000Z</time>
      </trkpt>
      <trkpt lat="47.98316" lon="7.11095">
        <ele>986.8</ele>
        <time>2022-01-27T09:52:31.531Z</time>
      </trkpt>
      <trkpt lat="47.98323" lon="7.111">
        <ele>989.6</ele>
        <time>2022-01-27T09:52:41.000Z</time>
      </trkpt>
      <trkpt lat="47.98333" lon="7.11103">
        <ele>991.4</ele>
        <time>2022-01-27T09:52:51.000Z</time>
      </trkpt>
      <trkpt lat="47.98343" lon="7.11102">
        <ele>992.6</ele>
        <time>2022-01-27T09:53:00.637Z</time>
      </trkpt>
      <trkpt lat="47.98351" lon="7.11103">
        <ele>994.1</ele>
        <time>2022-01-27T09:53:10.000Z</time>
      </trkpt>
      <trkpt lat="47.98359" lon="7.111">
        <ele>994.4</ele>
        <time>2022-01-27T09:53:19.610Z</time>
      </trkpt>
      <trkpt lat="47.98365" lon="7.11101">
        <ele>995.6</ele>
        <time>2022-01-27T09:53:29.000Z</time>
      </trkpt>
      <trkpt lat="47.98375" lon="7.11101">
        <ele>996.8</ele>
        <time>2022-01-27T09:53:39.000Z</time>
      </trkpt>
      <trkpt lat="47.98386" lon="7.11099">
        <ele>997.8</ele>
        <time>2022-01-27T09:53:48.731Z</time>
      </trkpt>
      <trkpt lat="47.98394" lon="7.111">
        <ele>997.4</ele>
        <time>2022-01-27T09:53:57.770Z</time>
      </trkpt>
      <trkpt lat="47.98402" lon="7.11102">
        <ele>996.8</ele>
        <time>2022-01-27T09:54:07.169Z</time>
      </trkpt>
      <trkpt lat="47.98407" lon="7.1111">
        <ele>997.9</ele>
        <time>2022-01-27T09:54:16.529Z</time>
      </trkpt>
      <trkpt lat="47.98403" lon="7.1112">
        <ele>999.4</ele>
        <time>2022-01-27T09:54:25.709Z</time>
      </trkpt>
      <trkpt lat="47.98403" lon="7.11119">
        <ele>999.6</ele>
        <time>2022-01-27T09:54:58.000Z</time>
      </trkpt>
      <trkpt lat="47.98398" lon="7.11116">
        <ele>1000.8</ele>
        <time>2022-01-27T09:55:07.414Z</time>
      </trkpt>
      <trkpt lat="47.98391" lon="7.11112">
        <ele>1001.9</ele>
        <time>2022-01-27T09:55:17.000Z</time>
      </trkpt>
      <trkpt lat="47.9839" lon="7.11115">
        <ele>1002.5</ele>
        <time>2022-01-27T09:55:27.000Z</time>
      </trkpt>
      <trkpt lat="47.98391" lon="7.11117">
        <ele>1002.8</ele>
        <time>2022-01-27T09:56:08.000Z</time>
      </trkpt>
      <trkpt lat="47.98379" lon="7.11125">
        <ele>1004.9</ele>
        <time>2022-01-27T09:56:17.391Z</time>
      </trkpt>
      <trkpt lat="47.98375" lon="7.11127">
        <ele>1005.2</ele>
        <time>2022-01-27T09:56:27.000Z</time>
      </trkpt>
      <trkpt lat="47.98376" lon="7.11126">
        <ele>1005</ele>
        <time>2022-01-27T09:57:34.000Z</time>
      </trkpt>
      <trkpt lat="47.98379" lon="7.11125">
        <ele>1004.9</ele>
        <time>2022-01-27T09:57:44.000Z</time>
      </trkpt>
      <trkpt lat="47.98381" lon="7.11124">
        <ele>1004.9</ele>
        <time>2022-01-27T09:57:58.000Z</time>
      </trkpt>
      <trkpt lat="47.98391" lon="7.11123">
        <ele>1004.2</ele>
        <time>2022-01-27T09:58:07.052Z</time>
      </trkpt>
      <trkpt lat="47.98402" lon="7.11122">
        <ele>1000.2</ele>
        <time>2022-01-27T09:58:16.433Z</time>
      </trkpt>
      <trkpt lat="47.98408" lon="7.1112">
        <ele>997.9</ele>
        <time>2022-01-27T09:58:26.000Z</time>
      </trkpt>
      <trkpt lat="47.98408" lon="7.11119">
        <ele>997.8</ele>
        <time>2022-01-27T09:58:35.509Z</time>
      </trkpt>
      <trkpt lat="47.98408" lon="7.11117">
        <ele>997.9</ele>
        <time>2022-01-27T09:58:46.000Z</time>
      </trkpt>
      <trkpt lat="47.98402" lon="7.11118">
        <ele>999.8</ele>
        <time>2022-01-27T09:58:55.391Z</time>
      </trkpt>
      <trkpt lat="47.98398" lon="7.11118">
        <ele>1000.8</ele>
        <time>2022-01-27T09:59:05.000Z</time>
      </trkpt>
      <trkpt lat="47.98389" lon="7.11114">
        <ele>1002.6</ele>
        <time>2022-01-27T09:59:14.291Z</time>
      </trkpt>
      <trkpt lat="47.98377" lon="7.11121">
        <ele>1003.8</ele>
        <time>2022-01-27T09:59:23.912Z</time>
      </trkpt>
      <trkpt lat="47.98362" lon="7.11127">
        <ele>1004.6</ele>
        <time>2022-01-27T09:59:33.373Z</time>
      </trkpt>
      <trkpt lat="47.98351" lon="7.1113">
        <ele>1004.7</ele>
        <time>2022-01-27T09:59:42.533Z</time>
      </trkpt>
      <trkpt lat="47.98346" lon="7.11135">
        <ele>1005.8</ele>
        <time>2022-01-27T09:59:52.000Z</time>
      </trkpt>
      <trkpt lat="47.98338" lon="7.1114">
        <ele>1007.1</ele>
        <time>2022-01-27T10:00:01.710Z</time>
      </trkpt>
      <trkpt lat="47.98333" lon="7.11147">
        <ele>1009.3</ele>
        <time>2022-01-27T10:00:11.000Z</time>
      </trkpt>
      <trkpt lat="47.98331" lon="7.11147">
        <ele>1008.9</ele>
        <time>2022-01-27T10:00:20.453Z</time>
      </trkpt>
      <trkpt lat="47.98326" lon="7.11148">
        <ele>1008.9</ele>
        <time>2022-01-27T10:00:30.000Z</time>
      </trkpt>
      <trkpt lat="47.98313" lon="7.11152">
        <ele>1009.3</ele>
        <time>2022-01-27T10:00:39.134Z</time>
      </trkpt>
      <trkpt lat="47.98302" lon="7.1116">
        <ele>1011.9</ele>
        <time>2022-01-27T10:00:48.512Z</time>
      </trkpt>
      <trkpt lat="47.98293" lon="7.11166">
        <ele>1013</ele>
        <time>2022-01-27T10:00:58.000Z</time>
      </trkpt>
      <trkpt lat="47.98285" lon="7.11171">
        <ele>1013.5</ele>
        <time>2022-01-27T10:01:07.311Z</time>
      </trkpt>
      <trkpt lat="47.98279" lon="7.11173">
        <ele>1013.5</ele>
        <time>2022-01-27T10:01:16.352Z</time>
      </trkpt>
      <trkpt lat="47.98271" lon="7.11171">
        <ele>1012.6</ele>
        <time>2022-01-27T10:01:25.693Z</time>
      </trkpt>
      <trkpt lat="47.98259" lon="7.11179">
        <ele>1014.6</ele>
        <time>2022-01-27T10:01:35.000Z</time>
      </trkpt>
      <trkpt lat="47.98251" lon="7.11184">
        <ele>1015.1</ele>
        <time>2022-01-27T10:01:44.735Z</time>
      </trkpt>
      <trkpt lat="47.98247" lon="7.11188">
        <ele>1014.7</ele>
        <time>2022-01-27T10:01:54.000Z</time>
      </trkpt>
      <trkpt lat="47.98242" lon="7.11201">
        <ele>1015.3</ele>
        <time>2022-01-27T10:02:03.450Z</time>
      </trkpt>
      <trkpt lat="47.98243" lon="7.11209">
        <ele>1016.6</ele>
        <time>2022-01-27T10:02:13.170Z</time>
      </trkpt>
      <trkpt lat="47.98242" lon="7.11214">
        <ele>1017.3</ele>
        <time>2022-01-27T10:02:22.335Z</time>
      </trkpt>
      <trkpt lat="47.98238" lon="7.11225">
        <ele>1017.1</ele>
        <time>2022-01-27T10:02:31.491Z</time>
      </trkpt>
      <trkpt lat="47.98235" lon="7.11225">
        <ele>1016</ele>
        <time>2022-01-27T10:02:40.669Z</time>
      </trkpt>
      <trkpt lat="47.9823" lon="7.11237">
        <ele>1015.5</ele>
        <time>2022-01-27T10:02:50.150Z</time>
      </trkpt>
      <trkpt lat="47.98223" lon="7.11249">
        <ele>1014.3</ele>
        <time>2022-01-27T10:02:59.690Z</time>
      </trkpt>
      <trkpt lat="47.98216" lon="7.11256">
        <ele>1015.7</ele>
        <time>2022-01-27T10:03:09.000Z</time>
      </trkpt>
      <trkpt lat="47.98212" lon="7.11267">
        <ele>1017.7</ele>
        <time>2022-01-27T10:03:19.000Z</time>
      </trkpt>
      <trkpt lat="47.98206" lon="7.11272">
        <ele>1018.8</ele>
        <time>2022-01-27T10:03:29.000Z</time>
      </trkpt>
      <trkpt lat="47.98202" lon="7.11273">
        <ele>1019.2</ele>
        <time>2022-01-27T10:03:39.000Z</time>
      </trkpt>
      <trkpt lat="47.98202" lon="7.11272">
        <ele>1018.9</ele>
        <time>2022-01-27T10:03:49.000Z</time>
      </trkpt>
      <trkpt lat="47.98205" lon="7.11264">
        <ele>1017.8</ele>
        <time>2022-01-27T10:03:58.530Z</time>
      </trkpt>
      <trkpt lat="47.98202" lon="7.11245">
        <ele>1015.4</ele>
        <time>2022-01-27T10:04:07.730Z</time>
      </trkpt>
      <trkpt lat="47.98201" lon="7.11236">
        <ele>1014.2</ele>
        <time>2022-01-27T10:04:17.091Z</time>
      </trkpt>
      <trkpt lat="47.982" lon="7.11226">
        <ele>1013</ele>
        <time>2022-01-27T10:04:26.209Z</time>
      </trkpt>
      <trkpt lat="47.98197" lon="7.11214">
        <ele>1011.9</ele>
        <time>2022-01-27T10:04:35.489Z</time>
      </trkpt>
      <trkpt lat="47.98189" lon="7.11212">
        <ele>1013.8</ele>
        <time>2022-01-27T10:04:44.513Z</time>
      </trkpt>
      <trkpt lat="47.98178" lon="7.11213">
        <ele>1018.1</ele>
        <time>2022-01-27T10:04:54.732Z</time>
      </trkpt>
      <trkpt lat="47.98172" lon="7.11206">
        <ele>1018.7</ele>
        <time>2022-01-27T10:05:04.735Z</time>
      </trkpt>
      <trkpt lat="47.98166" lon="7.11188">
        <ele>1015.9</ele>
        <time>2022-01-27T10:05:14.251Z</time>
      </trkpt>
      <trkpt lat="47.98162" lon="7.11172">
        <ele>1013.7</ele>
        <time>2022-01-27T10:05:23.490Z</time>
      </trkpt>
      <trkpt lat="47.98152" lon="7.11161">
        <ele>1013.9</ele>
        <time>2022-01-27T10:05:32.692Z</time>
      </trkpt>
      <trkpt lat="47.98145" lon="7.11149">
        <ele>1013.3</ele>
        <time>2022-01-27T10:05:42.000Z</time>
      </trkpt>
      <trkpt lat="47.98136" lon="7.11142">
        <ele>1015.2</ele>
        <time>2022-01-27T10:05:51.371Z</time>
      </trkpt>
      <trkpt lat="47.98134" lon="7.1113">
        <ele>1014.2</ele>
        <time>2022-01-27T10:06:01.000Z</time>
      </trkpt>
      <trkpt lat="47.98137" lon="7.1113">
        <ele>1012.7</ele>
        <time>2022-01-27T10:06:11.000Z</time>
      </trkpt>
      <trkpt lat="47.98141" lon="7.11127">
        <ele>1010.6</ele>
        <time>2022-01-27T10:06:20.372Z</time>
      </trkpt>
      <trkpt lat="47.98138" lon="7.11109">
        <ele>1009</ele>
        <time>2022-01-27T10:06:30.670Z</time>
      </trkpt>
      <trkpt lat="47.98136" lon="7.11096">
        <ele>1009.1</ele>
        <time>2022-01-27T10:06:40.000Z</time>
      </trkpt>
      <trkpt lat="47.98135" lon="7.11093">
        <ele>1009.4</ele>
        <time>2022-01-27T10:06:49.642Z</time>
      </trkpt>
      <trkpt lat="47.98137" lon="7.11086">
        <ele>1007.7</ele>
        <time>2022-01-27T10:06:58.710Z</time>
      </trkpt>
      <trkpt lat="47.98137" lon="7.1107">
        <ele>1007.4</ele>
        <time>2022-01-27T10:07:08.032Z</time>
      </trkpt>
      <trkpt lat="47.98135" lon="7.11057">
        <ele>1008.7</ele>
        <time>2022-01-27T10:07:17.352Z</time>
      </trkpt>
      <trkpt lat="47.98133" lon="7.11048">
        <ele>1010.2</ele>
        <time>2022-01-27T10:07:26.634Z</time>
      </trkpt>
      <trkpt lat="47.98129" lon="7.11023">
        <ele>1013.9</ele>
        <time>2022-01-27T10:07:36.451Z</time>
      </trkpt>
      <trkpt lat="47.98131" lon="7.10992">
        <ele>1017</ele>
        <time>2022-01-27T10:07:45.639Z</time>
      </trkpt>
      <trkpt lat="47.98145" lon="7.10977">
        <ele>1012.1</ele>
        <time>2022-01-27T10:07:55.252Z</time>
      </trkpt>
      <trkpt lat="47.98154" lon="7.10969">
        <ele>1008</ele>
        <time>2022-01-27T10:08:04.291Z</time>
      </trkpt>
      <trkpt lat="47.98161" lon="7.10955">
        <ele>1007</ele>
        <time>2022-01-27T10:08:13.550Z</time>
      </trkpt>
      <trkpt lat="47.9816" lon="7.10941">
        <ele>1010.9</ele>
        <time>2022-01-27T10:08:23.000Z</time>
      </trkpt>
      <trkpt lat="47.98162" lon="7.10929">
        <ele>1012</ele>
        <time>2022-01-27T10:08:32.603Z</time>
      </trkpt>
      <trkpt lat="47.98161" lon="7.10915">
        <ele>1014.4</ele>
        <time>2022-01-27T10:08:43.000Z</time>
      </trkpt>
      <trkpt lat="47.98162" lon="7.10905">
        <ele>1014.8</ele>
        <time>2022-01-27T10:08:52.391Z</time>
      </trkpt>
      <trkpt lat="47.9816" lon="7.10888">
        <ele>1016.9</ele>
        <time>2022-01-27T10:09:01.651Z</time>
      </trkpt>
      <trkpt lat="47.98155" lon="7.10875">
        <ele>1019.4</ele>
        <time>2022-01-27T10:09:11.000Z</time>
      </trkpt>
      <trkpt lat="47.9815" lon="7.1086">
        <ele>1021.5</ele>
        <time>2022-01-27T10:09:20.333Z</time>
      </trkpt>
      <trkpt lat="47.98146" lon="7.10845">
        <ele>1023.4</ele>
        <time>2022-01-27T10:09:29.411Z</time>
      </trkpt>
      <trkpt lat="47.98147" lon="7.10827">
        <ele>1022.8</ele>
        <time>2022-01-27T10:09:39.034Z</time>
      </trkpt>
      <trkpt lat="47.98144" lon="7.10811">
        <ele>1023.6</ele>
        <time>2022-01-27T10:09:49.000Z</time>
      </trkpt>
      <trkpt lat="47.98142" lon="7.10798">
        <ele>1023.9</ele>
        <time>2022-01-27T10:09:58.373Z</time>
      </trkpt>
      <trkpt lat="47.98142" lon="7.10782">
        <ele>1023.5</ele>
        <time>2022-01-27T10:10:07.551Z</time>
      </trkpt>
      <trkpt lat="47.98145" lon="7.10782">
        <ele>1022.1</ele>
        <time>2022-01-27T10:10:16.772Z</time>
      </trkpt>
      <trkpt lat="47.98143" lon="7.10773">
        <ele>1022.3</ele>
        <time>2022-01-27T10:10:26.000Z</time>
      </trkpt>
      <trkpt lat="47.98139" lon="7.10761">
        <ele>1023.7</ele>
        <time>2022-01-27T10:10:35.212Z</time>
      </trkpt>
      <trkpt lat="47.98138" lon="7.10762">
        <ele>1024.5</ele>
        <time>2022-01-27T10:10:44.432Z</time>
      </trkpt>
      <trkpt lat="47.98137" lon="7.1077">
        <ele>1025.5</ele>
        <time>2022-01-27T10:10:54.114Z</time>
      </trkpt>
      <trkpt lat="47.98136" lon="7.10784">
        <ele>1026.6</ele>
        <time>2022-01-27T10:11:03.617Z</time>
      </trkpt>
      <trkpt lat="47.98136" lon="7.10789">
        <ele>1026.8</ele>
        <time>2022-01-27T10:11:13.000Z</time>
      </trkpt>
      <trkpt lat="47.98133" lon="7.10801">
        <ele>1028.6</ele>
        <time>2022-01-27T10:11:22.713Z</time>
      </trkpt>
      <trkpt lat="47.98128" lon="7.10815">
        <ele>1031.5</ele>
        <time>2022-01-27T10:11:32.000Z</time>
      </trkpt>
      <trkpt lat="47.98127" lon="7.1083">
        <ele>1032.3</ele>
        <time>2022-01-27T10:11:42.000Z</time>
      </trkpt>
      <trkpt lat="47.98125" lon="7.10841">
        <ele>1033.5</ele>
        <time>2022-01-27T10:11:51.490Z</time>
      </trkpt>
      <trkpt lat="47.98125" lon="7.10853">
        <ele>1033.8</ele>
        <time>2022-01-27T10:12:00.649Z</time>
      </trkpt>
      <trkpt lat="47.98123" lon="7.10868">
        <ele>1035.7</ele>
        <time>2022-01-27T10:12:10.000Z</time>
      </trkpt>
      <trkpt lat="47.98122" lon="7.10879">
        <ele>1037.2</ele>
        <time>2022-01-27T10:12:19.512Z</time>
      </trkpt>
      <trkpt lat="47.9812" lon="7.10891">
        <ele>1039</ele>
        <time>2022-01-27T10:12:29.000Z</time>
      </trkpt>
      <trkpt lat="47.98119" lon="7.10901">
        <ele>1039.4</ele>
        <time>2022-01-27T10:12:38.314Z</time>
      </trkpt>
      <trkpt lat="47.98118" lon="7.1091">
        <ele>1040.3</ele>
        <time>2022-01-27T10:12:48.000Z</time>
      </trkpt>
      <trkpt lat="47.98116" lon="7.10915">
        <ele>1041</ele>
        <time>2022-01-27T10:12:57.625Z</time>
      </trkpt>
      <trkpt lat="47.98109" lon="7.10928">
        <ele>1044.7</ele>
        <time>2022-01-27T10:13:07.071Z</time>
      </trkpt>
      <trkpt lat="47.98108" lon="7.10929">
        <ele>1045</ele>
        <time>2022-01-27T10:13:16.410Z</time>
      </trkpt>
      <trkpt lat="47.98104" lon="7.10941">
        <ele>1046.5</ele>
        <time>2022-01-27T10:13:26.000Z</time>
      </trkpt>
      <trkpt lat="47.98096" lon="7.10953">
        <ele>1048.4</ele>
        <time>2022-01-27T10:13:35.749Z</time>
      </trkpt>
      <trkpt lat="47.98095" lon="7.10955">
        <ele>1048.9</ele>
        <time>2022-01-27T10:13:45.651Z</time>
      </trkpt>
      <trkpt lat="47.98087" lon="7.10965">
        <ele>1051.7</ele>
        <time>2022-01-27T10:13:55.489Z</time>
      </trkpt>
      <trkpt lat="47.98083" lon="7.10973">
        <ele>1053.4</ele>
        <time>2022-01-27T10:14:04.552Z</time>
      </trkpt>
      <trkpt lat="47.9808" lon="7.10985">
        <ele>1053.5</ele>
        <time>2022-01-27T10:14:14.270Z</time>
      </trkpt>
      <trkpt lat="47.98074" lon="7.11004">
        <ele>1056.3</ele>
        <time>2022-01-27T10:14:23.549Z</time>
      </trkpt>
      <trkpt lat="47.98071" lon="7.11016">
        <ele>1058.2</ele>
        <time>2022-01-27T10:14:32.668Z</time>
      </trkpt>
      <trkpt lat="47.98072" lon="7.1103">
        <ele>1057.7</ele>
        <time>2022-01-27T10:14:42.000Z</time>
      </trkpt>
      <trkpt lat="47.98073" lon="7.11043">
        <ele>1057.6</ele>
        <time>2022-01-27T10:14:51.731Z</time>
      </trkpt>
      <trkpt lat="47.98071" lon="7.11051">
        <ele>1059.5</ele>
        <time>2022-01-27T10:15:01.000Z</time>
      </trkpt>
      <trkpt lat="47.98069" lon="7.11056">
        <ele>1060.9</ele>
        <time>2022-01-27T10:15:10.372Z</time>
      </trkpt>
      <trkpt lat="47.98067" lon="7.11068">
        <ele>1061</ele>
        <time>2022-01-27T10:15:19.632Z</time>
      </trkpt>
      <trkpt lat="47.98061" lon="7.11083">
        <ele>1063.2</ele>
        <time>2022-01-27T10:15:28.650Z</time>
      </trkpt>
      <trkpt lat="47.98058" lon="7.11094">
        <ele>1064.5</ele>
        <time>2022-01-27T10:15:38.000Z</time>
      </trkpt>
      <trkpt lat="47.98059" lon="7.111">
        <ele>1063.4</ele>
        <time>2022-01-27T10:15:47.712Z</time>
      </trkpt>
      <trkpt lat="47.98058" lon="7.11101">
        <ele>1063.9</ele>
        <time>2022-01-27T10:15:57.510Z</time>
      </trkpt>
      <trkpt lat="47.98058" lon="7.111">
        <ele>1064.3</ele>
        <time>2022-01-27T10:16:07.000Z</time>
      </trkpt>
      <trkpt lat="47.98059" lon="7.11096">
        <ele>1063.6</ele>
        <time>2022-01-27T10:16:16.292Z</time>
      </trkpt>
      <trkpt lat="47.98058" lon="7.11095">
        <ele>1064.4</ele>
        <time>2022-01-27T10:16:27.372Z</time>
      </trkpt>
      <trkpt lat="47.98056" lon="7.11097">
        <ele>1065.8</ele>
        <time>2022-01-27T10:16:36.871Z</time>
      </trkpt>
      <trkpt lat="47.98053" lon="7.11089">
        <ele>1068.4</ele>
        <time>2022-01-27T10:16:47.000Z</time>
      </trkpt>
      <trkpt lat="47.98058" lon="7.11097">
        <ele>1064</ele>
        <time>2022-01-27T10:16:56.168Z</time>
      </trkpt>
      <trkpt lat="47.98064" lon="7.11113">
        <ele>1058.8</ele>
        <time>2022-01-27T10:17:06.000Z</time>
      </trkpt>
      <trkpt lat="47.9807" lon="7.11115">
        <ele>1053.9</ele>
        <time>2022-01-27T10:17:15.634Z</time>
      </trkpt>
      <trkpt lat="47.98074" lon="7.11102">
        <ele>1051.7</ele>
        <time>2022-01-27T10:17:25.000Z</time>
      </trkpt>
      <trkpt lat="47.98076" lon="7.11114">
        <ele>1049.8</ele>
        <time>2022-01-27T10:17:34.713Z</time>
      </trkpt>
      <trkpt lat="47.98072" lon="7.11114">
        <ele>1052.4</ele>
        <time>2022-01-27T10:17:44.000Z</time>
      </trkpt>
      <trkpt lat="47.98074" lon="7.11121">
        <ele>1050.6</ele>
        <time>2022-01-27T10:17:54.000Z</time>
      </trkpt>
      <trkpt lat="47.98076" lon="7.11122">
        <ele>1049.5</ele>
        <time>2022-01-27T10:18:03.751Z</time>
      </trkpt>
      <trkpt lat="47.98071" lon="7.11125">
        <ele>1053</ele>
        <time>2022-01-27T10:18:13.000Z</time>
      </trkpt>
      <trkpt lat="47.98064" lon="7.11137">
        <ele>1057.1</ele>
        <time>2022-01-27T10:18:22.432Z</time>
      </trkpt>
      <trkpt lat="47.98057" lon="7.11155">
        <ele>1064.8</ele>
        <time>2022-01-27T10:18:31.652Z</time>
      </trkpt>
      <trkpt lat="47.98058" lon="7.11167">
        <ele>1066.4</ele>
        <time>2022-01-27T10:18:41.213Z</time>
      </trkpt>
      <trkpt lat="47.98063" lon="7.11176">
        <ele>1064.6</ele>
        <time>2022-01-27T10:18:51.000Z</time>
      </trkpt>
      <trkpt lat="47.9806" lon="7.11187">
        <ele>1068.8</ele>
        <time>2022-01-27T10:19:01.000Z</time>
      </trkpt>
      <trkpt lat="47.98058" lon="7.1119">
        <ele>1070.9</ele>
        <time>2022-01-27T10:19:11.000Z</time>
      </trkpt>
      <trkpt lat="47.98058" lon="7.11199">
        <ele>1071.9</ele>
        <time>2022-01-27T10:19:21.000Z</time>
      </trkpt>
      <trkpt lat="47.9806" lon="7.11214">
        <ele>1072.5</ele>
        <time>2022-01-27T10:19:30.294Z</time>
      </trkpt>
      <trkpt lat="47.98062" lon="7.11223">
        <ele>1072.7</ele>
        <time>2022-01-27T10:19:40.000Z</time>
      </trkpt>
      <trkpt lat="47.98062" lon="7.11235">
        <ele>1074.9</ele>
        <time>2022-01-27T10:19:49.214Z</time>
      </trkpt>
      <trkpt lat="47.98062" lon="7.11246">
        <ele>1077.1</ele>
        <time>2022-01-27T10:19:58.695Z</time>
      </trkpt>
      <trkpt lat="47.98062" lon="7.11257">
        <ele>1079.3</ele>
        <time>2022-01-27T10:20:07.751Z</time>
      </trkpt>
      <trkpt lat="47.9806" lon="7.11267">
        <ele>1081.8</ele>
        <time>2022-01-27T10:20:17.000Z</time>
      </trkpt>
      <trkpt lat="47.98061" lon="7.11275">
        <ele>1082.8</ele>
        <time>2022-01-27T10:20:26.232Z</time>
      </trkpt>
      <trkpt lat="47.98061" lon="7.11283">
        <ele>1084.1</ele>
        <time>2022-01-27T10:20:35.453Z</time>
      </trkpt>
      <trkpt lat="47.98061" lon="7.11295">
        <ele>1086</ele>
        <time>2022-01-27T10:20:45.000Z</time>
      </trkpt>
      <trkpt lat="47.9806" lon="7.11308">
        <ele>1088.1</ele>
        <time>2022-01-27T10:20:54.255Z</time>
      </trkpt>
      <trkpt lat="47.9806" lon="7.11315">
        <ele>1088.8</ele>
        <time>2022-01-27T10:21:04.000Z</time>
      </trkpt>
      <trkpt lat="47.98061" lon="7.1132">
        <ele>1088.9</ele>
        <time>2022-01-27T10:21:13.390Z</time>
      </trkpt>
      <trkpt lat="47.98066" lon="7.11336">
        <ele>1088.2</ele>
        <time>2022-01-27T10:21:23.000Z</time>
      </trkpt>
      <trkpt lat="47.98068" lon="7.11339">
        <ele>1087.3</ele>
        <time>2022-01-27T10:21:33.000Z</time>
      </trkpt>
      <trkpt lat="47.98069" lon="7.1134">
        <ele>1086.9</ele>
        <time>2022-01-27T10:21:48.451Z</time>
      </trkpt>
      <trkpt lat="47.98074" lon="7.11348">
        <ele>1085.1</ele>
        <time>2022-01-27T10:21:58.000Z</time>
      </trkpt>
      <trkpt lat="47.98078" lon="7.11354">
        <ele>1083.3</ele>
        <time>2022-01-27T10:22:07.413Z</time>
      </trkpt>
      <trkpt lat="47.98073" lon="7.11367">
        <ele>1086.6</ele>
        <time>2022-01-27T10:22:17.000Z</time>
      </trkpt>
      <trkpt lat="47.98071" lon="7.11375">
        <ele>1088.1</ele>
        <time>2022-01-27T10:22:26.510Z</time>
      </trkpt>
      <trkpt lat="47.9807" lon="7.11388">
        <ele>1089.8</ele>
        <time>2022-01-27T10:22:36.000Z</time>
      </trkpt>
      <trkpt lat="47.98068" lon="7.11397">
        <ele>1091.1</ele>
        <time>2022-01-27T10:22:46.000Z</time>
      </trkpt>
      <trkpt lat="47.98068" lon="7.11399">
        <ele>1091.1</ele>
        <time>2022-01-27T10:22:56.000Z</time>
      </trkpt>
      <trkpt lat="47.98064" lon="7.11418">
        <ele>1093.6</ele>
        <time>2022-01-27T10:23:05.153Z</time>
      </trkpt>
      <trkpt lat="47.9806" lon="7.11432">
        <ele>1096.6</ele>
        <time>2022-01-27T10:23:14.452Z</time>
      </trkpt>
      <trkpt lat="47.98061" lon="7.11446">
        <ele>1097.1</ele>
        <time>2022-01-27T10:23:24.000Z</time>
      </trkpt>
      <trkpt lat="47.9806" lon="7.1146">
        <ele>1098.1</ele>
        <time>2022-01-27T10:23:33.550Z</time>
      </trkpt>
      <trkpt lat="47.98059" lon="7.11476">
        <ele>1099.5</ele>
        <time>2022-01-27T10:23:43.332Z</time>
      </trkpt>
      <trkpt lat="47.9806" lon="7.11488">
        <ele>1100.4</ele>
        <time>2022-01-27T10:23:53.000Z</time>
      </trkpt>
      <trkpt lat="47.98057" lon="7.11496">
        <ele>1102.7</ele>
        <time>2022-01-27T10:24:02.334Z</time>
      </trkpt>
      <trkpt lat="47.98056" lon="7.11505">
        <ele>1103.8</ele>
        <time>2022-01-27T10:24:12.000Z</time>
      </trkpt>
      <trkpt lat="47.98056" lon="7.11513">
        <ele>1103.6</ele>
        <time>2022-01-27T10:24:21.552Z</time>
      </trkpt>
      <trkpt lat="47.98054" lon="7.11525">
        <ele>1104.7</ele>
        <time>2022-01-27T10:24:30.631Z</time>
      </trkpt>
      <trkpt lat="47.98052" lon="7.11535">
        <ele>1106.5</ele>
        <time>2022-01-27T10:24:40.134Z</time>
      </trkpt>
      <trkpt lat="47.98051" lon="7.11537">
        <ele>1106.7</ele>
        <time>2022-01-27T10:24:49.311Z</time>
      </trkpt>
      <trkpt lat="47.98052" lon="7.11558">
        <ele>1107</ele>
        <time>2022-01-27T10:24:59.000Z</time>
      </trkpt>
      <trkpt lat="47.98051" lon="7.11572">
        <ele>1107.9</ele>
        <time>2022-01-27T10:25:08.333Z</time>
      </trkpt>
      <trkpt lat="47.98048" lon="7.11584">
        <ele>1110.1</ele>
        <time>2022-01-27T10:25:17.639Z</time>
      </trkpt>
      <trkpt lat="47.9805" lon="7.11596">
        <ele>1109.7</ele>
        <time>2022-01-27T10:25:27.000Z</time>
      </trkpt>
      <trkpt lat="47.9805" lon="7.1161">
        <ele>1110.6</ele>
        <time>2022-01-27T10:25:36.551Z</time>
      </trkpt>
      <trkpt lat="47.98047" lon="7.11625">
        <ele>1113.2</ele>
        <time>2022-01-27T10:25:45.615Z</time>
      </trkpt>
      <trkpt lat="47.98046" lon="7.11636">
        <ele>1114.4</ele>
        <time>2022-01-27T10:25:55.000Z</time>
      </trkpt>
      <trkpt lat="47.98049" lon="7.11647">
        <ele>1113.7</ele>
        <time>2022-01-27T10:26:04.431Z</time>
      </trkpt>
      <trkpt lat="47.98049" lon="7.11657">
        <ele>1114.3</ele>
        <time>2022-01-27T10:26:13.534Z</time>
      </trkpt>
      <trkpt lat="47.98047" lon="7.11671">
        <ele>1116.1</ele>
        <time>2022-01-27T10:26:23.291Z</time>
      </trkpt>
      <trkpt lat="47.98048" lon="7.11683">
        <ele>1116.6</ele>
        <time>2022-01-27T10:26:33.000Z</time>
      </trkpt>
      <trkpt lat="47.98047" lon="7.11696">
        <ele>1118</ele>
        <time>2022-01-27T10:26:42.709Z</time>
      </trkpt>
      <trkpt lat="47.98045" lon="7.11707">
        <ele>1119.2</ele>
        <time>2022-01-27T10:26:52.000Z</time>
      </trkpt>
      <trkpt lat="47.98046" lon="7.11718">
        <ele>1119.5</ele>
        <time>2022-01-27T10:27:01.209Z</time>
      </trkpt>
      <trkpt lat="47.98046" lon="7.11729">
        <ele>1119.3</ele>
        <time>2022-01-27T10:27:11.000Z</time>
      </trkpt>
      <trkpt lat="47.98043" lon="7.1174">
        <ele>1120.6</ele>
        <time>2022-01-27T10:27:20.642Z</time>
      </trkpt>
      <trkpt lat="47.98045" lon="7.11743">
        <ele>1119.6</ele>
        <time>2022-01-27T10:27:30.000Z</time>
      </trkpt>
      <trkpt lat="47.98047" lon="7.11745">
        <ele>1118.7</ele>
        <time>2022-01-27T10:27:40.000Z</time>
      </trkpt>
      <trkpt lat="47.98041" lon="7.11753">
        <ele>1120.8</ele>
        <time>2022-01-27T10:27:50.000Z</time>
      </trkpt>
      <trkpt lat="47.98044" lon="7.1175">
        <ele>1119.8</ele>
        <time>2022-01-27T10:28:44.000Z</time>
      </trkpt>
      <trkpt lat="47.98049" lon="7.11746">
        <ele>1117.7</ele>
        <time>2022-01-27T10:28:54.000Z</time>
      </trkpt>
      <trkpt lat="47.98047" lon="7.11744">
        <ele>1118.6</ele>
        <time>2022-01-27T10:29:04.000Z</time>
      </trkpt>
      <trkpt lat="47.98048" lon="7.11745">
        <ele>1118.2</ele>
        <time>2022-01-27T10:29:19.000Z</time>
      </trkpt>
      <trkpt lat="47.98049" lon="7.11746">
        <ele>1117.8</ele>
        <time>2022-01-27T10:29:29.000Z</time>
      </trkpt>
      <trkpt lat="47.9805" lon="7.11741">
        <ele>1117.4</ele>
        <time>2022-01-27T10:29:39.000Z</time>
      </trkpt>
      <trkpt lat="47.98049" lon="7.11743">
        <ele>1117.8</ele>
        <time>2022-01-27T10:29:50.000Z</time>
      </trkpt>
      <trkpt lat="47.98046" lon="7.11745">
        <ele>1119</ele>
        <time>2022-01-27T10:30:00.000Z</time>
      </trkpt>
      <trkpt lat="47.98044" lon="7.11746">
        <ele>1119.9</ele>
        <time>2022-01-27T10:30:10.000Z</time>
      </trkpt>
      <trkpt lat="47.9804" lon="7.11756">
        <ele>1121.2</ele>
        <time>2022-01-27T10:30:20.000Z</time>
      </trkpt>
      <trkpt lat="47.98031" lon="7.11765">
        <ele>1123.8</ele>
        <time>2022-01-27T10:30:30.000Z</time>
      </trkpt>
      <trkpt lat="47.98032" lon="7.11766">
        <ele>1123.3</ele>
        <time>2022-01-27T10:30:42.000Z</time>
      </trkpt>
      <trkpt lat="47.98031" lon="7.11769">
        <ele>1123.3</ele>
        <time>2022-01-27T10:30:51.074Z</time>
      </trkpt>
      <trkpt lat="47.98026" lon="7.11778">
        <ele>1123.7</ele>
        <time>2022-01-27T10:31:00.290Z</time>
      </trkpt>
      <trkpt lat="47.98025" lon="7.1178">
        <ele>1124.4</ele>
        <time>2022-01-27T10:31:10.000Z</time>
      </trkpt>
      <trkpt lat="47.98023" lon="7.11797">
        <ele>1127.1</ele>
        <time>2022-01-27T10:31:19.413Z</time>
      </trkpt>
      <trkpt lat="47.98026" lon="7.1181">
        <ele>1128.6</ele>
        <time>2022-01-27T10:31:29.000Z</time>
      </trkpt>
      <trkpt lat="47.9803" lon="7.11816">
        <ele>1129.3</ele>
        <time>2022-01-27T10:31:38.612Z</time>
      </trkpt>
      <trkpt lat="47.98038" lon="7.11822">
        <ele>1129.3</ele>
        <time>2022-01-27T10:31:48.731Z</time>
      </trkpt>
      <trkpt lat="47.98044" lon="7.11831">
        <ele>1130.8</ele>
        <time>2022-01-27T10:31:58.071Z</time>
      </trkpt>
      <trkpt lat="47.98051" lon="7.11836">
        <ele>1130.6</ele>
        <time>2022-01-27T10:32:07.691Z</time>
      </trkpt>
      <trkpt lat="47.98052" lon="7.11844">
        <ele>1132</ele>
        <time>2022-01-27T10:32:17.000Z</time>
      </trkpt>
      <trkpt lat="47.98048" lon="7.11846">
        <ele>1133.3</ele>
        <time>2022-01-27T10:32:27.000Z</time>
      </trkpt>
      <trkpt lat="47.98051" lon="7.1185">
        <ele>1133.7</ele>
        <time>2022-01-27T10:32:36.230Z</time>
      </trkpt>
      <trkpt lat="47.98053" lon="7.11855">
        <ele>1133.9</ele>
        <time>2022-01-27T10:32:46.000Z</time>
      </trkpt>
      <trkpt lat="47.98052" lon="7.11859">
        <ele>1135</ele>
        <time>2022-01-27T10:32:55.429Z</time>
      </trkpt>
      <trkpt lat="47.98056" lon="7.11862">
        <ele>1134.2</ele>
        <time>2022-01-27T10:33:05.000Z</time>
      </trkpt>
      <trkpt lat="47.98055" lon="7.11863">
        <ele>1134.7</ele>
        <time>2022-01-27T10:33:15.000Z</time>
      </trkpt>
      <trkpt lat="47.98057" lon="7.11874">
        <ele>1136.7</ele>
        <time>2022-01-27T10:33:24.671Z</time>
      </trkpt>
      <trkpt lat="47.98066" lon="7.11885">
        <ele>1136</ele>
        <time>2022-01-27T10:33:34.000Z</time>
      </trkpt>
      <trkpt lat="47.98068" lon="7.1189">
        <ele>1136.7</ele>
        <time>2022-01-27T10:33:44.000Z</time>
      </trkpt>
      <trkpt lat="47.98069" lon="7.11886">
        <ele>1135.7</ele>
        <time>2022-01-27T10:33:54.000Z</time>
      </trkpt>
      <trkpt lat="47.98068" lon="7.11888">
        <ele>1136.3</ele>
        <time>2022-01-27T10:34:09.000Z</time>
      </trkpt>
      <trkpt lat="47.98066" lon="7.11897">
        <ele>1139.1</ele>
        <time>2022-01-27T10:34:18.653Z</time>
      </trkpt>
      <trkpt lat="47.98064" lon="7.11897">
        <ele>1140</ele>
        <time>2022-01-27T10:34:28.000Z</time>
      </trkpt>
      <trkpt lat="47.98065" lon="7.11901">
        <ele>1140.4</ele>
        <time>2022-01-27T10:34:37.150Z</time>
      </trkpt>
      <trkpt lat="47.98075" lon="7.1191">
        <ele>1138.5</ele>
        <time>2022-01-27T10:34:46.389Z</time>
      </trkpt>
      <trkpt lat="47.98083" lon="7.11919">
        <ele>1136.7</ele>
        <time>2022-01-27T10:34:56.000Z</time>
      </trkpt>
      <trkpt lat="47.98086" lon="7.11934">
        <ele>1138.6</ele>
        <time>2022-01-27T10:35:05.639Z</time>
      </trkpt>
      <trkpt lat="47.98093" lon="7.11948">
        <ele>1139</ele>
        <time>2022-01-27T10:35:16.000Z</time>
      </trkpt>
      <trkpt lat="47.98097" lon="7.11962">
        <ele>1140.6</ele>
        <time>2022-01-27T10:35:25.531Z</time>
      </trkpt>
      <trkpt lat="47.98107" lon="7.11972">
        <ele>1140.1</ele>
        <time>2022-01-27T10:35:35.000Z</time>
      </trkpt>
      <trkpt lat="47.98115" lon="7.1198">
        <ele>1140.4</ele>
        <time>2022-01-27T10:35:44.191Z</time>
      </trkpt>
      <trkpt lat="47.98121" lon="7.11986">
        <ele>1141.2</ele>
        <time>2022-01-27T10:35:53.332Z</time>
      </trkpt>
      <trkpt lat="47.9813" lon="7.11988">
        <ele>1141.1</ele>
        <time>2022-01-27T10:36:02.692Z</time>
      </trkpt>
      <trkpt lat="47.98128" lon="7.11988">
        <ele>1141.3</ele>
        <time>2022-01-27T10:36:12.093Z</time>
      </trkpt>
      <trkpt lat="47.9812" lon="7.11988">
        <ele>1141.8</ele>
        <time>2022-01-27T10:36:22.000Z</time>
      </trkpt>
      <trkpt lat="47.98118" lon="7.1199">
        <ele>1142.4</ele>
        <time>2022-01-27T10:36:32.000Z</time>
      </trkpt>
      <trkpt lat="47.98124" lon="7.11989">
        <ele>1141.7</ele>
        <time>2022-01-27T10:36:42.000Z</time>
      </trkpt>
      <trkpt lat="47.98131" lon="7.1199">
        <ele>1141.5</ele>
        <time>2022-01-27T10:36:51.290Z</time>
      </trkpt>
      <trkpt lat="47.98134" lon="7.1199">
        <ele>1141.3</ele>
        <time>2022-01-27T10:37:01.000Z</time>
      </trkpt>
      <trkpt lat="47.9813" lon="7.11985">
        <ele>1140.5</ele>
        <time>2022-01-27T10:37:10.690Z</time>
      </trkpt>
      <trkpt lat="47.98136" lon="7.11985">
        <ele>1139.9</ele>
        <time>2022-01-27T10:37:20.000Z</time>
      </trkpt>
      <trkpt lat="47.9814" lon="7.11998">
        <ele>1142.5</ele>
        <time>2022-01-27T10:37:29.253Z</time>
      </trkpt>
      <trkpt lat="47.98132" lon="7.11999">
        <ele>1143.3</ele>
        <time>2022-01-27T10:37:39.000Z</time>
      </trkpt>
      <trkpt lat="47.98124" lon="7.12001">
        <ele>1144.3</ele>
        <time>2022-01-27T10:37:48.471Z</time>
      </trkpt>
      <trkpt lat="47.98113" lon="7.12003">
        <ele>1145.7</ele>
        <time>2022-01-27T10:37:57.731Z</time>
      </trkpt>
      <trkpt lat="47.98103" lon="7.12008">
        <ele>1148.4</ele>
        <time>2022-01-27T10:38:07.000Z</time>
      </trkpt>
      <trkpt lat="47.98096" lon="7.12007">
        <ele>1149.4</ele>
        <time>2022-01-27T10:38:16.451Z</time>
      </trkpt>
      <trkpt lat="47.98094" lon="7.12002">
        <ele>1148.6</ele>
        <time>2022-01-27T10:38:26.000Z</time>
      </trkpt>
      <trkpt lat="47.98095" lon="7.12003">
        <ele>1148.6</ele>
        <time>2022-01-27T10:38:35.211Z</time>
      </trkpt>
      <trkpt lat="47.98096" lon="7.12002">
        <ele>1148.3</ele>
        <time>2022-01-27T10:38:46.433Z</time>
      </trkpt>
      <trkpt lat="47.98096" lon="7.11993">
        <ele>1146.6</ele>
        <time>2022-01-27T10:38:56.000Z</time>
      </trkpt>
      <trkpt lat="47.98091" lon="7.11994">
        <ele>1147.7</ele>
        <time>2022-01-27T10:39:05.369Z</time>
      </trkpt>
      <trkpt lat="47.9809" lon="7.11996">
        <ele>1148.1</ele>
        <time>2022-01-27T10:39:15.000Z</time>
      </trkpt>
      <trkpt lat="47.9809" lon="7.12009">
        <ele>1151</ele>
        <time>2022-01-27T10:39:25.000Z</time>
      </trkpt>
      <trkpt lat="47.98083" lon="7.12008">
        <ele>1151.8</ele>
        <time>2022-01-27T10:39:35.000Z</time>
      </trkpt>
      <trkpt lat="47.98079" lon="7.12002">
        <ele>1152.6</ele>
        <time>2022-01-27T10:39:44.189Z</time>
      </trkpt>
      <trkpt lat="47.98075" lon="7.11993">
        <ele>1153.4</ele>
        <time>2022-01-27T10:39:54.000Z</time>
      </trkpt>
      <trkpt lat="47.98072" lon="7.11981">
        <ele>1153.8</ele>
        <time>2022-01-27T10:40:03.554Z</time>
      </trkpt>
      <trkpt lat="47.98069" lon="7.11967">
        <ele>1153.4</ele>
        <time>2022-01-27T10:40:13.090Z</time>
      </trkpt>
      <trkpt lat="47.98064" lon="7.11955">
        <ele>1154</ele>
        <time>2022-01-27T10:40:22.331Z</time>
      </trkpt>
      <trkpt lat="47.98057" lon="7.11949">
        <ele>1156.6</ele>
        <time>2022-01-27T10:40:31.370Z</time>
      </trkpt>
      <trkpt lat="47.98051" lon="7.11941">
        <ele>1157.3</ele>
        <time>2022-01-27T10:40:41.000Z</time>
      </trkpt>
      <trkpt lat="47.98044" lon="7.1194">
        <ele>1159.3</ele>
        <time>2022-01-27T10:40:50.212Z</time>
      </trkpt>
      <trkpt lat="47.98036" lon="7.11938">
        <ele>1161</ele>
        <time>2022-01-27T10:40:59.391Z</time>
      </trkpt>
      <trkpt lat="47.9803" lon="7.11934">
        <ele>1162.1</ele>
        <time>2022-01-27T10:41:08.733Z</time>
      </trkpt>
      <trkpt lat="47.98023" lon="7.11929">
        <ele>1163</ele>
        <time>2022-01-27T10:41:18.000Z</time>
      </trkpt>
      <trkpt lat="47.98015" lon="7.11925">
        <ele>1164.6</ele>
        <time>2022-01-27T10:41:27.450Z</time>
      </trkpt>
      <trkpt lat="47.98007" lon="7.11924">
        <ele>1166.7</ele>
        <time>2022-01-27T10:41:36.509Z</time>
      </trkpt>
      <trkpt lat="47.98" lon="7.11922">
        <ele>1167.9</ele>
        <time>2022-01-27T10:41:46.000Z</time>
      </trkpt>
      <trkpt lat="47.97994" lon="7.11917">
        <ele>1168.7</ele>
        <time>2022-01-27T10:41:55.070Z</time>
      </trkpt>
      <trkpt lat="47.97984" lon="7.11913">
        <ele>1170.3</ele>
        <time>2022-01-27T10:42:04.632Z</time>
      </trkpt>
      <trkpt lat="47.97978" lon="7.1191">
        <ele>1171.2</ele>
        <time>2022-01-27T10:42:13.651Z</time>
      </trkpt>
      <trkpt lat="47.97972" lon="7.11909">
        <ele>1172.2</ele>
        <time>2022-01-27T10:42:23.000Z</time>
      </trkpt>
      <trkpt lat="47.97965" lon="7.11904">
        <ele>1173</ele>
        <time>2022-01-27T10:42:32.494Z</time>
      </trkpt>
      <trkpt lat="47.97957" lon="7.11899">
        <ele>1173.9</ele>
        <time>2022-01-27T10:42:41.754Z</time>
      </trkpt>
      <trkpt lat="47.97951" lon="7.11897">
        <ele>1175</ele>
        <time>2022-01-27T10:42:51.210Z</time>
      </trkpt>
      <trkpt lat="47.97942" lon="7.11897">
        <ele>1176.9</ele>
        <time>2022-01-27T10:43:00.269Z</time>
      </trkpt>
      <trkpt lat="47.97934" lon="7.11893">
        <ele>1178.4</ele>
        <time>2022-01-27T10:43:10.000Z</time>
      </trkpt>
      <trkpt lat="47.97926" lon="7.11888">
        <ele>1179.5</ele>
        <time>2022-01-27T10:43:19.192Z</time>
      </trkpt>
      <trkpt lat="47.97917" lon="7.11885">
        <ele>1181.1</ele>
        <time>2022-01-27T10:43:28.431Z</time>
      </trkpt>
      <trkpt lat="47.9791" lon="7.11882">
        <ele>1181.8</ele>
        <time>2022-01-27T10:43:38.000Z</time>
      </trkpt>
      <trkpt lat="47.97903" lon="7.11878">
        <ele>1182.3</ele>
        <time>2022-01-27T10:43:47.691Z</time>
      </trkpt>
      <trkpt lat="47.97894" lon="7.11872">
        <ele>1182.9</ele>
        <time>2022-01-27T10:43:57.333Z</time>
      </trkpt>
      <trkpt lat="47.9789" lon="7.11863">
        <ele>1182.1</ele>
        <time>2022-01-27T10:44:06.715Z</time>
      </trkpt>
      <trkpt lat="47.9789" lon="7.11858">
        <ele>1181.6</ele>
        <time>2022-01-27T10:44:16.000Z</time>
      </trkpt>
      <trkpt lat="47.97891" lon="7.1186">
        <ele>1181.6</ele>
        <time>2022-01-27T10:44:25.250Z</time>
      </trkpt>
      <trkpt lat="47.97883" lon="7.11867">
        <ele>1184.8</ele>
        <time>2022-01-27T10:44:35.000Z</time>
      </trkpt>
      <trkpt lat="47.97877" lon="7.11868">
        <ele>1186.8</ele>
        <time>2022-01-27T10:44:44.473Z</time>
      </trkpt>
      <trkpt lat="47.97872" lon="7.11868">
        <ele>1188.2</ele>
        <time>2022-01-27T10:44:53.554Z</time>
      </trkpt>
      <trkpt lat="47.97875" lon="7.11869">
        <ele>1187.5</ele>
        <time>2022-01-27T10:45:03.000Z</time>
      </trkpt>
      <trkpt lat="47.97876" lon="7.11869">
        <ele>1187.2</ele>
        <time>2022-01-27T10:45:36.000Z</time>
      </trkpt>
      <trkpt lat="47.97871" lon="7.11872">
        <ele>1189</ele>
        <time>2022-01-27T10:45:45.289Z</time>
      </trkpt>
      <trkpt lat="47.97862" lon="7.11878">
        <ele>1192</ele>
        <time>2022-01-27T10:45:54.330Z</time>
      </trkpt>
      <trkpt lat="47.97854" lon="7.1188">
        <ele>1194</ele>
        <time>2022-01-27T10:46:03.630Z</time>
      </trkpt>
      <trkpt lat="47.97851" lon="7.11883">
        <ele>1194.9</ele>
        <time>2022-01-27T10:46:13.000Z</time>
      </trkpt>
      <trkpt lat="47.97853" lon="7.11885">
        <ele>1194.6</ele>
        <time>2022-01-27T10:46:23.000Z</time>
      </trkpt>
      <trkpt lat="47.97853" lon="7.11884">
        <ele>1194.6</ele>
        <time>2022-01-27T10:46:42.000Z</time>
      </trkpt>
      <trkpt lat="47.97854" lon="7.11889">
        <ele>1194.6</ele>
        <time>2022-01-27T10:46:51.672Z</time>
      </trkpt>
      <trkpt lat="47.9786" lon="7.11903">
        <ele>1195.2</ele>
        <time>2022-01-27T10:47:00.732Z</time>
      </trkpt>
      <trkpt lat="47.97867" lon="7.11908">
        <ele>1194.6</ele>
        <time>2022-01-27T10:47:10.000Z</time>
      </trkpt>
      <trkpt lat="47.97873" lon="7.11916">
        <ele>1194.2</ele>
        <time>2022-01-27T10:47:19.490Z</time>
      </trkpt>
      <trkpt lat="47.97878" lon="7.11928">
        <ele>1194.6</ele>
        <time>2022-01-27T10:47:28.992Z</time>
      </trkpt>
      <trkpt lat="47.97883" lon="7.11942">
        <ele>1195</ele>
        <time>2022-01-27T10:47:38.000Z</time>
      </trkpt>
      <trkpt lat="47.9789" lon="7.11953">
        <ele>1195</ele>
        <time>2022-01-27T10:47:47.634Z</time>
      </trkpt>
      <trkpt lat="47.97897" lon="7.11962">
        <ele>1195.3</ele>
        <time>2022-01-27T10:47:56.641Z</time>
      </trkpt>
      <trkpt lat="47.97903" lon="7.11969">
        <ele>1195.4</ele>
        <time>2022-01-27T10:48:06.314Z</time>
      </trkpt>
      <trkpt lat="47.97911" lon="7.11978">
        <ele>1195.6</ele>
        <time>2022-01-27T10:48:15.611Z</time>
      </trkpt>
      <trkpt lat="47.97915" lon="7.11985">
        <ele>1196.1</ele>
        <time>2022-01-27T10:48:24.732Z</time>
      </trkpt>
      <trkpt lat="47.97919" lon="7.11995">
        <ele>1197</ele>
        <time>2022-01-27T10:48:34.000Z</time>
      </trkpt>
      <trkpt lat="47.97924" lon="7.12008">
        <ele>1198.1</ele>
        <time>2022-01-27T10:48:43.094Z</time>
      </trkpt>
      <trkpt lat="47.9793" lon="7.12019">
        <ele>1198.9</ele>
        <time>2022-01-27T10:48:52.531Z</time>
      </trkpt>
      <trkpt lat="47.97937" lon="7.12026">
        <ele>1199.4</ele>
        <time>2022-01-27T10:49:01.710Z</time>
      </trkpt>
      <trkpt lat="47.97939" lon="7.12031">
        <ele>1199.7</ele>
        <time>2022-01-27T10:49:11.313Z</time>
      </trkpt>
      <trkpt lat="47.97946" lon="7.12041">
        <ele>1200.3</ele>
        <time>2022-01-27T10:49:20.434Z</time>
      </trkpt>
      <trkpt lat="47.97953" lon="7.12055">
        <ele>1200.4</ele>
        <time>2022-01-27T10:49:29.637Z</time>
      </trkpt>
      <trkpt lat="47.97957" lon="7.12065">
        <ele>1200.4</ele>
        <time>2022-01-27T10:49:38.714Z</time>
      </trkpt>
      <trkpt lat="47.9796" lon="7.12078">
        <ele>1200.8</ele>
        <time>2022-01-27T10:49:48.000Z</time>
      </trkpt>
      <trkpt lat="47.97965" lon="7.12089">
        <ele>1200.7</ele>
        <time>2022-01-27T10:49:57.055Z</time>
      </trkpt>
      <trkpt lat="47.9797" lon="7.121">
        <ele>1200.6</ele>
        <time>2022-01-27T10:50:06.193Z</time>
      </trkpt>
      <trkpt lat="47.97976" lon="7.1211">
        <ele>1200.2</ele>
        <time>2022-01-27T10:50:15.490Z</time>
      </trkpt>
      <trkpt lat="47.97978" lon="7.12122">
        <ele>1200.5</ele>
        <time>2022-01-27T10:50:24.641Z</time>
      </trkpt>
      <trkpt lat="47.97982" lon="7.12128">
        <ele>1200.2</ele>
        <time>2022-01-27T10:50:33.670Z</time>
      </trkpt>
      <trkpt lat="47.97984" lon="7.12141">
        <ele>1200.8</ele>
        <time>2022-01-27T10:50:43.070Z</time>
      </trkpt>
      <trkpt lat="47.97988" lon="7.12155">
        <ele>1201.7</ele>
        <time>2022-01-27T10:50:52.732Z</time>
      </trkpt>
      <trkpt lat="47.97995" lon="7.1217">
        <ele>1202.4</ele>
        <time>2022-01-27T10:51:02.691Z</time>
      </trkpt>
      <trkpt lat="47.97998" lon="7.12183">
        <ele>1203.6</ele>
        <time>2022-01-27T10:51:12.000Z</time>
      </trkpt>
      <trkpt lat="47.98003" lon="7.12193">
        <ele>1204.4</ele>
        <time>2022-01-27T10:51:21.053Z</time>
      </trkpt>
      <trkpt lat="47.98008" lon="7.12199">
        <ele>1204.3</ele>
        <time>2022-01-27T10:51:30.549Z</time>
      </trkpt>
      <trkpt lat="47.98013" lon="7.12198">
        <ele>1203.6</ele>
        <time>2022-01-27T10:51:40.171Z</time>
      </trkpt>
      <trkpt lat="47.9802" lon="7.12189">
        <ele>1201.2</ele>
        <time>2022-01-27T10:51:49.252Z</time>
      </trkpt>
      <trkpt lat="47.98021" lon="7.12188">
        <ele>1200.9</ele>
        <time>2022-01-27T10:51:59.000Z</time>
      </trkpt>
      <trkpt lat="47.98021" lon="7.12191">
        <ele>1201.5</ele>
        <time>2022-01-27T10:52:12.000Z</time>
      </trkpt>
      <trkpt lat="47.98017" lon="7.12202">
        <ele>1203.5</ele>
        <time>2022-01-27T10:52:22.000Z</time>
      </trkpt>
      <trkpt lat="47.98016" lon="7.12203">
        <ele>1203.8</ele>
        <time>2022-01-27T10:52:32.000Z</time>
      </trkpt>
      <trkpt lat="47.98015" lon="7.12202">
        <ele>1203.8</ele>
        <time>2022-01-27T10:52:44.253Z</time>
      </trkpt>
      <trkpt lat="47.9801" lon="7.12203">
        <ele>1204.5</ele>
        <time>2022-01-27T10:52:54.000Z</time>
      </trkpt>
      <trkpt lat="47.9801" lon="7.12205">
        <ele>1204.9</ele>
        <time>2022-01-27T10:53:19.130Z</time>
      </trkpt>
      <trkpt lat="47.98012" lon="7.12219">
        <ele>1206.2</ele>
        <time>2022-01-27T10:53:29.000Z</time>
      </trkpt>
      <trkpt lat="47.98013" lon="7.1222">
        <ele>1206.3</ele>
        <time>2022-01-27T10:53:39.000Z</time>
      </trkpt>
      <trkpt lat="47.98014" lon="7.12227">
        <ele>1207.2</ele>
        <time>2022-01-27T10:53:48.171Z</time>
      </trkpt>
      <trkpt lat="47.98015" lon="7.12238">
        <ele>1208.9</ele>
        <time>2022-01-27T10:53:58.000Z</time>
      </trkpt>
      <trkpt lat="47.98014" lon="7.12251">
        <ele>1211.1</ele>
        <time>2022-01-27T10:54:07.633Z</time>
      </trkpt>
      <trkpt lat="47.98013" lon="7.12262">
        <ele>1212.4</ele>
        <time>2022-01-27T10:54:17.391Z</time>
      </trkpt>
      <trkpt lat="47.98014" lon="7.12273">
        <ele>1213.5</ele>
        <time>2022-01-27T10:54:26.491Z</time>
      </trkpt>
      <trkpt lat="47.98015" lon="7.12285">
        <ele>1215.2</ele>
        <time>2022-01-27T10:54:36.000Z</time>
      </trkpt>
      <trkpt lat="47.98018" lon="7.12294">
        <ele>1216.8</ele>
        <time>2022-01-27T10:54:45.514Z</time>
      </trkpt>
      <trkpt lat="47.98019" lon="7.12301">
        <ele>1218.1</ele>
        <time>2022-01-27T10:54:55.000Z</time>
      </trkpt>
      <trkpt lat="47.98019" lon="7.12311">
        <ele>1219.9</ele>
        <time>2022-01-27T10:55:04.411Z</time>
      </trkpt>
      <trkpt lat="47.98019" lon="7.12318">
        <ele>1221.1</ele>
        <time>2022-01-27T10:55:14.000Z</time>
      </trkpt>
      <trkpt lat="47.98021" lon="7.12328">
        <ele>1222.9</ele>
        <time>2022-01-27T10:55:24.000Z</time>
      </trkpt>
      <trkpt lat="47.98024" lon="7.1234">
        <ele>1225.2</ele>
        <time>2022-01-27T10:55:33.711Z</time>
      </trkpt>
      <trkpt lat="47.98026" lon="7.12349">
        <ele>1227.3</ele>
        <time>2022-01-27T10:55:43.000Z</time>
      </trkpt>
      <trkpt lat="47.98027" lon="7.12358">
        <ele>1229.2</ele>
        <time>2022-01-27T10:55:52.612Z</time>
      </trkpt>
      <trkpt lat="47.9803" lon="7.12364">
        <ele>1231</ele>
        <time>2022-01-27T10:56:02.000Z</time>
      </trkpt>
      <trkpt lat="47.98033" lon="7.12374">
        <ele>1233.3</ele>
        <time>2022-01-27T10:56:11.728Z</time>
      </trkpt>
      <trkpt lat="47.98034" lon="7.12383">
        <ele>1235.4</ele>
        <time>2022-01-27T10:56:21.000Z</time>
      </trkpt>
      <trkpt lat="47.98035" lon="7.12392">
        <ele>1237.4</ele>
        <time>2022-01-27T10:56:30.170Z</time>
      </trkpt>
      <trkpt lat="47.98036" lon="7.12401">
        <ele>1239.2</ele>
        <time>2022-01-27T10:56:40.000Z</time>
      </trkpt>
      <trkpt lat="47.98039" lon="7.12408">
        <ele>1240.9</ele>
        <time>2022-01-27T10:56:50.000Z</time>
      </trkpt>
      <trkpt lat="47.9804" lon="7.12418">
        <ele>1243</ele>
        <time>2022-01-27T10:57:00.000Z</time>
      </trkpt>
      <trkpt lat="47.98041" lon="7.12425">
        <ele>1244.8</ele>
        <time>2022-01-27T10:57:09.629Z</time>
      </trkpt>
      <trkpt lat="47.98044" lon="7.12434">
        <ele>1247</ele>
        <time>2022-01-27T10:57:19.474Z</time>
      </trkpt>
      <trkpt lat="47.98046" lon="7.12442">
        <ele>1249.1</ele>
        <time>2022-01-27T10:57:29.370Z</time>
      </trkpt>
      <trkpt lat="47.98048" lon="7.1245">
        <ele>1251</ele>
        <time>2022-01-27T10:57:39.000Z</time>
      </trkpt>
      <trkpt lat="47.9805" lon="7.12458">
        <ele>1252.8</ele>
        <time>2022-01-27T10:57:49.000Z</time>
      </trkpt>
      <trkpt lat="47.98052" lon="7.12468">
        <ele>1254.7</ele>
        <time>2022-01-27T10:57:58.734Z</time>
      </trkpt>
      <trkpt lat="47.98055" lon="7.12476">
        <ele>1256.7</ele>
        <time>2022-01-27T10:58:08.000Z</time>
      </trkpt>
      <trkpt lat="47.98058" lon="7.12486">
        <ele>1259</ele>
        <time>2022-01-27T10:58:17.689Z</time>
      </trkpt>
      <trkpt lat="47.98062" lon="7.12492">
        <ele>1260.6</ele>
        <time>2022-01-27T10:58:27.000Z</time>
      </trkpt>
      <trkpt lat="47.98064" lon="7.12502">
        <ele>1262.6</ele>
        <time>2022-01-27T10:58:36.492Z</time>
      </trkpt>
      <trkpt lat="47.98067" lon="7.12511">
        <ele>1264.5</ele>
        <time>2022-01-27T10:58:46.000Z</time>
      </trkpt>
      <trkpt lat="47.98066" lon="7.12515">
        <ele>1265.1</ele>
        <time>2022-01-27T10:58:55.250Z</time>
      </trkpt>
      <trkpt lat="47.98072" lon="7.12535">
        <ele>1268.2</ele>
        <time>2022-01-27T10:59:05.000Z</time>
      </trkpt>
      <trkpt lat="47.98083" lon="7.12506">
        <ele>1264.1</ele>
        <time>2022-01-27T10:59:15.000Z</time>
      </trkpt>
      <trkpt lat="47.98068" lon="7.12514">
        <ele>1265</ele>
        <time>2022-01-27T10:59:25.000Z</time>
      </trkpt>
      <trkpt lat="47.98069" lon="7.12532">
        <ele>1267.9</ele>
        <time>2022-01-27T10:59:35.000Z</time>
      </trkpt>
      <trkpt lat="47.98069" lon="7.12537">
        <ele>1268.3</ele>
        <time>2022-01-27T10:59:50.000Z</time>
      </trkpt>
      <trkpt lat="47.98069" lon="7.12548">
        <ele>1269.3</ele>
        <time>2022-01-27T10:59:59.534Z</time>
      </trkpt>
      <trkpt lat="47.98069" lon="7.12565">
        <ele>1270.3</ele>
        <time>2022-01-27T11:00:09.000Z</time>
      </trkpt>
      <trkpt lat="47.98069" lon="7.12566">
        <ele>1270.4</ele>
        <time>2022-01-27T11:00:19.000Z</time>
      </trkpt>
      <trkpt lat="47.98069" lon="7.12569">
        <ele>1270.5</ele>
        <time>2022-01-27T11:00:29.000Z</time>
      </trkpt>
      <trkpt lat="47.98069" lon="7.12572">
        <ele>1270.6</ele>
        <time>2022-01-27T11:00:50.092Z</time>
      </trkpt>
      <trkpt lat="47.98066" lon="7.12583">
        <ele>1271</ele>
        <time>2022-01-27T11:01:00.000Z</time>
      </trkpt>
      <trkpt lat="47.98066" lon="7.12584">
        <ele>1271</ele>
        <time>2022-01-27T11:01:58.000Z</time>
      </trkpt>
      <trkpt lat="47.98066" lon="7.12587">
        <ele>1271</ele>
        <time>2022-01-27T11:02:09.210Z</time>
      </trkpt>
      <trkpt lat="47.98064" lon="7.126">
        <ele>1271</ele>
        <time>2022-01-27T11:02:18.392Z</time>
      </trkpt>
      <trkpt lat="47.98064" lon="7.12616">
        <ele>1270.8</ele>
        <time>2022-01-27T11:02:28.000Z</time>
      </trkpt>
      <trkpt lat="47.98065" lon="7.12626">
        <ele>1270.5</ele>
        <time>2022-01-27T11:02:37.672Z</time>
      </trkpt>
      <trkpt lat="47.98065" lon="7.12628">
        <ele>1270.4</ele>
        <time>2022-01-27T11:02:49.615Z</time>
      </trkpt>
      <trkpt lat="47.98067" lon="7.12643">
        <ele>1269.8</ele>
        <time>2022-01-27T11:02:58.655Z</time>
      </trkpt>
      <trkpt lat="47.98066" lon="7.1264">
        <ele>1269.9</ele>
        <time>2022-01-27T11:03:10.449Z</time>
      </trkpt>
      <trkpt lat="47.98052" lon="7.12641">
        <ele>1269.4</ele>
        <time>2022-01-27T11:03:19.650Z</time>
      </trkpt>
      <trkpt lat="47.98044" lon="7.12652">
        <ele>1267.5</ele>
        <time>2022-01-27T11:03:28.891Z</time>
      </trkpt>
      <trkpt lat="47.98042" lon="7.12664">
        <ele>1266.6</ele>
        <time>2022-01-27T11:03:38.000Z</time>
      </trkpt>
      <trkpt lat="47.98037" lon="7.12673">
        <ele>1265.6</ele>
        <time>2022-01-27T11:03:47.493Z</time>
      </trkpt>
      <trkpt lat="47.98036" lon="7.12674">
        <ele>1265.5</ele>
        <time>2022-01-27T11:03:56.633Z</time>
      </trkpt>
      <trkpt lat="47.98033" lon="7.12682">
        <ele>1264.8</ele>
        <time>2022-01-27T11:04:06.000Z</time>
      </trkpt>
      <trkpt lat="47.98032" lon="7.12687">
        <ele>1264.7</ele>
        <time>2022-01-27T11:04:15.693Z</time>
      </trkpt>
      <trkpt lat="47.98032" lon="7.12688">
        <ele>1264.7</ele>
        <time>2022-01-27T11:05:49.590Z</time>
      </trkpt>
      <trkpt lat="47.98036" lon="7.12708">
        <ele>1264.8</ele>
        <time>2022-01-27T11:05:59.000Z</time>
      </trkpt>
      <trkpt lat="47.98036" lon="7.12713">
        <ele>1264.7</ele>
        <time>2022-01-27T11:06:08.493Z</time>
      </trkpt>
      <trkpt lat="47.98037" lon="7.1273">
        <ele>1264.2</ele>
        <time>2022-01-27T11:06:17.595Z</time>
      </trkpt>
      <trkpt lat="47.9804" lon="7.12738">
        <ele>1264.1</ele>
        <time>2022-01-27T11:06:26.954Z</time>
      </trkpt>
      <trkpt lat="47.98043" lon="7.12743">
        <ele>1264.1</ele>
        <time>2022-01-27T11:06:36.132Z</time>
      </trkpt>
      <trkpt lat="47.98051" lon="7.12745">
        <ele>1264.9</ele>
        <time>2022-01-27T11:06:46.000Z</time>
      </trkpt>
      <trkpt lat="47.98053" lon="7.12745">
        <ele>1265.2</ele>
        <time>2022-01-27T11:06:56.000Z</time>
      </trkpt>
      <trkpt lat="47.98058" lon="7.12734">
        <ele>1266.6</ele>
        <time>2022-01-27T11:07:06.000Z</time>
      </trkpt>
      <trkpt lat="47.9806" lon="7.12723">
        <ele>1267.6</ele>
        <time>2022-01-27T11:07:16.000Z</time>
      </trkpt>
      <trkpt lat="47.98068" lon="7.12705">
        <ele>1267.4</ele>
        <time>2022-01-27T11:07:25.010Z</time>
      </trkpt>
      <trkpt lat="47.98071" lon="7.12698">
        <ele>1267.4</ele>
        <time>2022-01-27T11:07:34.713Z</time>
      </trkpt>
      <trkpt lat="47.98074" lon="7.12693">
        <ele>1267.4</ele>
        <time>2022-01-27T11:07:44.000Z</time>
      </trkpt>
      <trkpt lat="47.98074" lon="7.12683">
        <ele>1267.8</ele>
        <time>2022-01-27T11:07:54.000Z</time>
      </trkpt>
      <trkpt lat="47.98074" lon="7.1268">
        <ele>1267.8</ele>
        <time>2022-01-27T11:08:03.751Z</time>
      </trkpt>
      <trkpt lat="47.98074" lon="7.12682">
        <ele>1267.8</ele>
        <time>2022-01-27T11:08:19.000Z</time>
      </trkpt>
      <trkpt lat="47.98073" lon="7.12687">
        <ele>1267.6</ele>
        <time>2022-01-27T11:08:29.000Z</time>
      </trkpt>
      <trkpt lat="47.9807" lon="7.12696">
        <ele>1267.5</ele>
        <time>2022-01-27T11:10:32.000Z</time>
      </trkpt>
      <trkpt lat="47.98063" lon="7.1271">
        <ele>1267.6</ele>
        <time>2022-01-27T11:10:42.000Z</time>
      </trkpt>
      <trkpt lat="47.9807" lon="7.12697">
        <ele>1267.4</ele>
        <time>2022-01-27T11:10:52.000Z</time>
      </trkpt>
      <trkpt lat="47.98071" lon="7.12691">
        <ele>1267.6</ele>
        <time>2022-01-27T11:22:35.000Z</time>
      </trkpt>
      <trkpt lat="47.98072" lon="7.12683">
        <ele>1267.8</ele>
        <time>2022-01-27T11:22:46.000Z</time>
      </trkpt>
      <trkpt lat="47.98072" lon="7.12686">
        <ele>1267.7</ele>
        <time>2022-01-27T11:23:19.000Z</time>
      </trkpt>
      <trkpt lat="47.98072" lon="7.12693">
        <ele>1267.5</ele>
        <time>2022-01-27T11:23:29.000Z</time>
      </trkpt>
      <trkpt lat="47.98071" lon="7.12696">
        <ele>1267.4</ele>
        <time>2022-01-27T11:26:46.000Z</time>
      </trkpt>
      <trkpt lat="47.9807" lon="7.12692">
        <ele>1267.6</ele>
        <time>2022-01-27T11:26:56.000Z</time>
      </trkpt>
      <trkpt lat="47.98071" lon="7.1269">
        <ele>1267.6</ele>
        <time>2022-01-27T11:28:06.512Z</time>
      </trkpt>
      <trkpt lat="47.98074" lon="7.12685">
        <ele>1267.7</ele>
        <time>2022-01-27T11:28:16.000Z</time>
      </trkpt>
      <trkpt lat="47.98074" lon="7.12692">
        <ele>1267.4</ele>
        <time>2022-01-27T11:28:26.000Z</time>
      </trkpt>
      <trkpt lat="47.9807" lon="7.12696">
        <ele>1267.4</ele>
        <time>2022-01-27T11:30:49.000Z</time>
      </trkpt>
      <trkpt lat="47.98071" lon="7.12692">
        <ele>1267.5</ele>
        <time>2022-01-27T11:30:59.000Z</time>
      </trkpt>
      <trkpt lat="47.98067" lon="7.12696">
        <ele>1267.6</ele>
        <time>2022-01-27T11:31:09.000Z</time>
      </trkpt>
      <trkpt lat="47.98068" lon="7.12695">
        <ele>1267.5</ele>
        <time>2022-01-27T11:47:38.000Z</time>
      </trkpt>
      <trkpt lat="47.98062" lon="7.12689">
        <ele>1268</ele>
        <time>2022-01-27T11:47:48.000Z</time>
      </trkpt>
      <trkpt lat="47.98065" lon="7.12692">
        <ele>1267.7</ele>
        <time>2022-01-27T11:48:57.000Z</time>
      </trkpt>
      <trkpt lat="47.98072" lon="7.12697">
        <ele>1267.4</ele>
        <time>2022-01-27T11:49:07.000Z</time>
      </trkpt>
      <trkpt lat="47.98072" lon="7.12695">
        <ele>1267.4</ele>
        <time>2022-01-27T11:57:39.504Z</time>
      </trkpt>
      <trkpt lat="47.98069" lon="7.12692">
        <ele>1267.6</ele>
        <time>2022-01-27T11:57:49.000Z</time>
      </trkpt>
      <trkpt lat="47.98067" lon="7.12692">
        <ele>1267.7</ele>
        <time>2022-01-27T12:01:20.324Z</time>
      </trkpt>
      <trkpt lat="47.98056" lon="7.1269">
        <ele>1268.1</ele>
        <time>2022-01-27T12:01:30.000Z</time>
      </trkpt>
      <trkpt lat="47.98057" lon="7.12691">
        <ele>1268.1</ele>
        <time>2022-01-27T12:04:04.000Z</time>
      </trkpt>
      <trkpt lat="47.98067" lon="7.12693">
        <ele>1267.6</ele>
        <time>2022-01-27T12:04:14.000Z</time>
      </trkpt>
      <trkpt lat="47.98067" lon="7.12692">
        <ele>1267.7</ele>
        <time>2022-01-27T12:06:49.190Z</time>
      </trkpt>
      <trkpt lat="47.98069" lon="7.12682">
        <ele>1268</ele>
        <time>2022-01-27T12:06:58.544Z</time>
      </trkpt>
      <trkpt lat="47.98071" lon="7.12671">
        <ele>1268.3</ele>
        <time>2022-01-27T12:07:08.000Z</time>
      </trkpt>
      <trkpt lat="47.98068" lon="7.12647">
        <ele>1269.6</ele>
        <time>2022-01-27T12:07:17.426Z</time>
      </trkpt>
      <trkpt lat="47.98066" lon="7.12641">
        <ele>1269.9</ele>
        <time>2022-01-27T12:07:27.000Z</time>
      </trkpt>
      <trkpt lat="47.98066" lon="7.12639">
        <ele>1270</ele>
        <time>2022-01-27T12:07:38.149Z</time>
      </trkpt>
      <trkpt lat="47.98062" lon="7.12616">
        <ele>1270.8</ele>
        <time>2022-01-27T12:07:47.644Z</time>
      </trkpt>
      <trkpt lat="47.98061" lon="7.12609">
        <ele>1271</ele>
        <time>2022-01-27T12:07:57.000Z</time>
      </trkpt>
      <trkpt lat="47.98062" lon="7.12603">
        <ele>1271</ele>
        <time>2022-01-27T12:08:17.646Z</time>
      </trkpt>
      <trkpt lat="47.98065" lon="7.12595">
        <ele>1271</ele>
        <time>2022-01-27T12:08:27.000Z</time>
      </trkpt>
      <trkpt lat="47.98067" lon="7.12593">
        <ele>1271</ele>
        <time>2022-01-27T12:09:11.045Z</time>
      </trkpt>
      <trkpt lat="47.98074" lon="7.12585">
        <ele>1271</ele>
        <time>2022-01-27T12:09:22.000Z</time>
      </trkpt>
      <trkpt lat="47.98075" lon="7.12583">
        <ele>1271</ele>
        <time>2022-01-27T12:09:31.626Z</time>
      </trkpt>
      <trkpt lat="47.98084" lon="7.12572">
        <ele>1270.5</ele>
        <time>2022-01-27T12:09:40.726Z</time>
      </trkpt>
      <trkpt lat="47.98095" lon="7.12562">
        <ele>1268.9</ele>
        <time>2022-01-27T12:09:50.000Z</time>
      </trkpt>
      <trkpt lat="47.98102" lon="7.12552">
        <ele>1267.8</ele>
        <time>2022-01-27T12:09:59.349Z</time>
      </trkpt>
      <trkpt lat="47.98109" lon="7.12543">
        <ele>1266.7</ele>
        <time>2022-01-27T12:10:09.000Z</time>
      </trkpt>
      <trkpt lat="47.98109" lon="7.12545">
        <ele>1266.8</ele>
        <time>2022-01-27T12:10:23.187Z</time>
      </trkpt>
      <trkpt lat="47.98112" lon="7.12538">
        <ele>1266.3</ele>
        <time>2022-01-27T12:10:33.000Z</time>
      </trkpt>
      <trkpt lat="47.98116" lon="7.12539">
        <ele>1265.8</ele>
        <time>2022-01-27T12:10:42.645Z</time>
      </trkpt>
      <trkpt lat="47.98111" lon="7.12551">
        <ele>1266.8</ele>
        <time>2022-01-27T12:10:52.000Z</time>
      </trkpt>
      <trkpt lat="47.98124" lon="7.12529">
        <ele>1264.6</ele>
        <time>2022-01-27T12:11:01.405Z</time>
      </trkpt>
      <trkpt lat="47.98133" lon="7.12513">
        <ele>1262.5</ele>
        <time>2022-01-27T12:11:10.523Z</time>
      </trkpt>
      <trkpt lat="47.98145" lon="7.12504">
        <ele>1260.2</ele>
        <time>2022-01-27T12:11:20.000Z</time>
      </trkpt>
      <trkpt lat="47.98156" lon="7.1249">
        <ele>1257</ele>
        <time>2022-01-27T12:11:29.388Z</time>
      </trkpt>
      <trkpt lat="47.98167" lon="7.12472">
        <ele>1253.9</ele>
        <time>2022-01-27T12:11:38.468Z</time>
      </trkpt>
      <trkpt lat="47.98178" lon="7.12465">
        <ele>1251.6</ele>
        <time>2022-01-27T12:11:48.000Z</time>
      </trkpt>
      <trkpt lat="47.98183" lon="7.12456">
        <ele>1250</ele>
        <time>2022-01-27T12:11:57.323Z</time>
      </trkpt>
      <trkpt lat="47.98188" lon="7.12454">
        <ele>1248.9</ele>
        <time>2022-01-27T12:12:07.000Z</time>
      </trkpt>
      <trkpt lat="47.9819" lon="7.12451">
        <ele>1248.4</ele>
        <time>2022-01-27T12:12:22.484Z</time>
      </trkpt>
      <trkpt lat="47.98196" lon="7.12441">
        <ele>1246.4</ele>
        <time>2022-01-27T12:12:32.000Z</time>
      </trkpt>
      <trkpt lat="47.982" lon="7.12433">
        <ele>1245</ele>
        <time>2022-01-27T12:12:41.287Z</time>
      </trkpt>
      <trkpt lat="47.98208" lon="7.12427">
        <ele>1243.4</ele>
        <time>2022-01-27T12:12:50.528Z</time>
      </trkpt>
      <trkpt lat="47.98218" lon="7.12416">
        <ele>1241.5</ele>
        <time>2022-01-27T12:13:00.005Z</time>
      </trkpt>
      <trkpt lat="47.98223" lon="7.12411">
        <ele>1239.8</ele>
        <time>2022-01-27T12:13:09.204Z</time>
      </trkpt>
      <trkpt lat="47.98226" lon="7.12404">
        <ele>1238</ele>
        <time>2022-01-27T12:13:18.223Z</time>
      </trkpt>
      <trkpt lat="47.9824" lon="7.12387">
        <ele>1233.9</ele>
        <time>2022-01-27T12:13:28.000Z</time>
      </trkpt>
      <trkpt lat="47.98234" lon="7.1239">
        <ele>1234.9</ele>
        <time>2022-01-27T12:13:37.046Z</time>
      </trkpt>
      <trkpt lat="47.98242" lon="7.12388">
        <ele>1233.7</ele>
        <time>2022-01-27T12:13:46.386Z</time>
      </trkpt>
      <trkpt lat="47.98244" lon="7.12386">
        <ele>1233.1</ele>
        <time>2022-01-27T12:13:56.467Z</time>
      </trkpt>
      <trkpt lat="47.98253" lon="7.12379">
        <ele>1230.6</ele>
        <time>2022-01-27T12:14:06.000Z</time>
      </trkpt>
      <trkpt lat="47.9826" lon="7.12358">
        <ele>1226.3</ele>
        <time>2022-01-27T12:14:15.487Z</time>
      </trkpt>
      <trkpt lat="47.98269" lon="7.12356">
        <ele>1224.9</ele>
        <time>2022-01-27T12:14:25.000Z</time>
      </trkpt>
      <trkpt lat="47.98272" lon="7.12347">
        <ele>1223.6</ele>
        <time>2022-01-27T12:14:34.370Z</time>
      </trkpt>
      <trkpt lat="47.98274" lon="7.12333">
        <ele>1222.4</ele>
        <time>2022-01-27T12:14:43.467Z</time>
      </trkpt>
      <trkpt lat="47.9828" lon="7.12327">
        <ele>1221.1</ele>
        <time>2022-01-27T12:14:52.487Z</time>
      </trkpt>
      <trkpt lat="47.98287" lon="7.12318">
        <ele>1219.4</ele>
        <time>2022-01-27T12:15:02.000Z</time>
      </trkpt>
      <trkpt lat="47.98294" lon="7.1231">
        <ele>1218.1</ele>
        <time>2022-01-27T12:15:11.623Z</time>
      </trkpt>
      <trkpt lat="47.98303" lon="7.12302">
        <ele>1216.7</ele>
        <time>2022-01-27T12:15:20.723Z</time>
      </trkpt>
      <trkpt lat="47.9831" lon="7.12299">
        <ele>1215.3</ele>
        <time>2022-01-27T12:15:31.000Z</time>
      </trkpt>
      <trkpt lat="47.98317" lon="7.12294">
        <ele>1213.6</ele>
        <time>2022-01-27T12:15:40.524Z</time>
      </trkpt>
      <trkpt lat="47.98326" lon="7.12283">
        <ele>1211.3</ele>
        <time>2022-01-27T12:15:50.507Z</time>
      </trkpt>
      <trkpt lat="47.98327" lon="7.1228">
        <ele>1210.8</ele>
        <time>2022-01-27T12:16:00.000Z</time>
      </trkpt>
      <trkpt lat="47.98329" lon="7.12278">
        <ele>1210.5</ele>
        <time>2022-01-27T12:17:08.000Z</time>
      </trkpt>
      <trkpt lat="47.98335" lon="7.12272">
        <ele>1208.7</ele>
        <time>2022-01-27T12:17:18.000Z</time>
      </trkpt>
      <trkpt lat="47.98337" lon="7.12272">
        <ele>1208.3</ele>
        <time>2022-01-27T12:17:27.120Z</time>
      </trkpt>
      <trkpt lat="47.98342" lon="7.12262">
        <ele>1205.6</ele>
        <time>2022-01-27T12:17:36.545Z</time>
      </trkpt>
      <trkpt lat="47.98345" lon="7.12257">
        <ele>1204.5</ele>
        <time>2022-01-27T12:17:46.000Z</time>
      </trkpt>
      <trkpt lat="47.98347" lon="7.12257">
        <ele>1204.1</ele>
        <time>2022-01-27T12:18:02.348Z</time>
      </trkpt>
      <trkpt lat="47.98363" lon="7.12238">
        <ele>1198.6</ele>
        <time>2022-01-27T12:18:11.726Z</time>
      </trkpt>
      <trkpt lat="47.98368" lon="7.1223">
        <ele>1196.5</ele>
        <time>2022-01-27T12:18:21.147Z</time>
      </trkpt>
      <trkpt lat="47.98376" lon="7.1222">
        <ele>1193.9</ele>
        <time>2022-01-27T12:18:30.429Z</time>
      </trkpt>
      <trkpt lat="47.98383" lon="7.12214">
        <ele>1192.1</ele>
        <time>2022-01-27T12:18:39.446Z</time>
      </trkpt>
      <trkpt lat="47.98386" lon="7.12207">
        <ele>1190.6</ele>
        <time>2022-01-27T12:18:49.000Z</time>
      </trkpt>
      <trkpt lat="47.98386" lon="7.12205">
        <ele>1190.1</ele>
        <time>2022-01-27T12:19:07.103Z</time>
      </trkpt>
      <trkpt lat="47.98394" lon="7.12193">
        <ele>1187.1</ele>
        <time>2022-01-27T12:19:16.467Z</time>
      </trkpt>
      <trkpt lat="47.98403" lon="7.12176">
        <ele>1183.6</ele>
        <time>2022-01-27T12:19:26.027Z</time>
      </trkpt>
      <trkpt lat="47.98409" lon="7.12167">
        <ele>1181.8</ele>
        <time>2022-01-27T12:19:35.245Z</time>
      </trkpt>
      <trkpt lat="47.98416" lon="7.12157">
        <ele>1180</ele>
        <time>2022-01-27T12:19:44.385Z</time>
      </trkpt>
      <trkpt lat="47.98426" lon="7.12147">
        <ele>1177.5</ele>
        <time>2022-01-27T12:19:53.426Z</time>
      </trkpt>
      <trkpt lat="47.9843" lon="7.12146">
        <ele>1176.7</ele>
        <time>2022-01-27T12:20:03.000Z</time>
      </trkpt>
      <trkpt lat="47.98432" lon="7.12145">
        <ele>1176.4</ele>
        <time>2022-01-27T12:20:25.486Z</time>
      </trkpt>
      <trkpt lat="47.98437" lon="7.12136">
        <ele>1174.9</ele>
        <time>2022-01-27T12:20:35.000Z</time>
      </trkpt>
      <trkpt lat="47.98437" lon="7.12133">
        <ele>1174.7</ele>
        <time>2022-01-27T12:20:54.000Z</time>
      </trkpt>
      <trkpt lat="47.98442" lon="7.12115">
        <ele>1173.3</ele>
        <time>2022-01-27T12:21:03.286Z</time>
      </trkpt>
      <trkpt lat="47.98453" lon="7.12099">
        <ele>1171</ele>
        <time>2022-01-27T12:21:13.000Z</time>
      </trkpt>
      <trkpt lat="47.98462" lon="7.12087">
        <ele>1169.7</ele>
        <time>2022-01-27T12:21:23.000Z</time>
      </trkpt>
      <trkpt lat="47.9847" lon="7.12073">
        <ele>1168.4</ele>
        <time>2022-01-27T12:21:32.188Z</time>
      </trkpt>
      <trkpt lat="47.98478" lon="7.12064">
        <ele>1167</ele>
        <time>2022-01-27T12:21:41.306Z</time>
      </trkpt>
      <trkpt lat="47.98489" lon="7.12051">
        <ele>1165.5</ele>
        <time>2022-01-27T12:21:50.808Z</time>
      </trkpt>
      <trkpt lat="47.98489" lon="7.12047">
        <ele>1165.2</ele>
        <time>2022-01-27T12:22:00.000Z</time>
      </trkpt>
      <trkpt lat="47.98491" lon="7.12036">
        <ele>1164.5</ele>
        <time>2022-01-27T12:22:09.207Z</time>
      </trkpt>
      <trkpt lat="47.985" lon="7.12019">
        <ele>1163.3</ele>
        <time>2022-01-27T12:22:18.569Z</time>
      </trkpt>
      <trkpt lat="47.98505" lon="7.12011">
        <ele>1163.3</ele>
        <time>2022-01-27T12:22:28.464Z</time>
      </trkpt>
      <trkpt lat="47.98509" lon="7.12005">
        <ele>1163.5</ele>
        <time>2022-01-27T12:22:39.000Z</time>
      </trkpt>
      <trkpt lat="47.9852" lon="7.11995">
        <ele>1164.8</ele>
        <time>2022-01-27T12:22:48.305Z</time>
      </trkpt>
      <trkpt lat="47.9853" lon="7.1199">
        <ele>1166.3</ele>
        <time>2022-01-27T12:22:57.506Z</time>
      </trkpt>
      <trkpt lat="47.98535" lon="7.11985">
        <ele>1167.1</ele>
        <time>2022-01-27T12:23:07.000Z</time>
      </trkpt>
      <trkpt lat="47.98546" lon="7.11974">
        <ele>1169.2</ele>
        <time>2022-01-27T12:23:16.327Z</time>
      </trkpt>
      <trkpt lat="47.98556" lon="7.11966">
        <ele>1170.8</ele>
        <time>2022-01-27T12:23:26.445Z</time>
      </trkpt>
      <trkpt lat="47.98566" lon="7.1196">
        <ele>1170.9</ele>
        <time>2022-01-27T12:23:36.346Z</time>
      </trkpt>
      <trkpt lat="47.98575" lon="7.11952">
        <ele>1171.3</ele>
        <time>2022-01-27T12:23:46.484Z</time>
      </trkpt>
      <trkpt lat="47.98584" lon="7.11944">
        <ele>1172</ele>
        <time>2022-01-27T12:23:56.000Z</time>
      </trkpt>
      <trkpt lat="47.98585" lon="7.11942">
        <ele>1171.9</ele>
        <time>2022-01-27T12:24:06.000Z</time>
      </trkpt>
      <trkpt lat="47.98588" lon="7.1194">
        <ele>1171.8</ele>
        <time>2022-01-27T12:24:48.000Z</time>
      </trkpt>
      <trkpt lat="47.98593" lon="7.11937">
        <ele>1171.7</ele>
        <time>2022-01-27T12:24:57.284Z</time>
      </trkpt>
      <trkpt lat="47.98601" lon="7.11928">
        <ele>1171.9</ele>
        <time>2022-01-27T12:25:07.000Z</time>
      </trkpt>
      <trkpt lat="47.98602" lon="7.11927">
        <ele>1172</ele>
        <time>2022-01-27T12:26:17.665Z</time>
      </trkpt>
      <trkpt lat="47.98617" lon="7.11919">
        <ele>1171.8</ele>
        <time>2022-01-27T12:26:27.167Z</time>
      </trkpt>
      <trkpt lat="47.98627" lon="7.11916">
        <ele>1170.1</ele>
        <time>2022-01-27T12:26:37.000Z</time>
      </trkpt>
      <trkpt lat="47.98639" lon="7.1191">
        <ele>1167.8</ele>
        <time>2022-01-27T12:26:46.363Z</time>
      </trkpt>
      <trkpt lat="47.98647" lon="7.11908">
        <ele>1166</ele>
        <time>2022-01-27T12:26:55.743Z</time>
      </trkpt>
      <trkpt lat="47.98656" lon="7.11906">
        <ele>1164.2</ele>
        <time>2022-01-27T12:27:05.000Z</time>
      </trkpt>
      <trkpt lat="47.98658" lon="7.11906">
        <ele>1163.8</ele>
        <time>2022-01-27T12:27:27.165Z</time>
      </trkpt>
      <trkpt lat="47.98671" lon="7.11902">
        <ele>1161.6</ele>
        <time>2022-01-27T12:27:36.263Z</time>
      </trkpt>
      <trkpt lat="47.98682" lon="7.11899">
        <ele>1160.7</ele>
        <time>2022-01-27T12:27:45.363Z</time>
      </trkpt>
      <trkpt lat="47.98693" lon="7.11895">
        <ele>1159.9</ele>
        <time>2022-01-27T12:27:54.446Z</time>
      </trkpt>
      <trkpt lat="47.98705" lon="7.1189">
        <ele>1159.2</ele>
        <time>2022-01-27T12:28:03.466Z</time>
      </trkpt>
      <trkpt lat="47.98716" lon="7.11888">
        <ele>1158.5</ele>
        <time>2022-01-27T12:28:12.544Z</time>
      </trkpt>
      <trkpt lat="47.98726" lon="7.1188">
        <ele>1157.7</ele>
        <time>2022-01-27T12:28:21.545Z</time>
      </trkpt>
      <trkpt lat="47.98737" lon="7.11876">
        <ele>1156.9</ele>
        <time>2022-01-27T12:28:30.723Z</time>
      </trkpt>
      <trkpt lat="47.98749" lon="7.1187">
        <ele>1156.1</ele>
        <time>2022-01-27T12:28:40.646Z</time>
      </trkpt>
      <trkpt lat="47.9875" lon="7.11869">
        <ele>1156</ele>
        <time>2022-01-27T12:28:50.566Z</time>
      </trkpt>
      <trkpt lat="47.98764" lon="7.11864">
        <ele>1155.5</ele>
        <time>2022-01-27T12:29:00.646Z</time>
      </trkpt>
      <trkpt lat="47.98774" lon="7.11861">
        <ele>1155.1</ele>
        <time>2022-01-27T12:29:10.000Z</time>
      </trkpt>
      <trkpt lat="47.98784" lon="7.11858">
        <ele>1154.9</ele>
        <time>2022-01-27T12:29:19.390Z</time>
      </trkpt>
      <trkpt lat="47.98794" lon="7.11856">
        <ele>1154.9</ele>
        <time>2022-01-27T12:29:28.527Z</time>
      </trkpt>
      <trkpt lat="47.988" lon="7.11853">
        <ele>1154.9</ele>
        <time>2022-01-27T12:29:37.645Z</time>
      </trkpt>
      <trkpt lat="47.98813" lon="7.11849">
        <ele>1155.1</ele>
        <time>2022-01-27T12:29:47.000Z</time>
      </trkpt>
      <trkpt lat="47.98819" lon="7.11846">
        <ele>1155.2</ele>
        <time>2022-01-27T12:29:56.563Z</time>
      </trkpt>
      <trkpt lat="47.98833" lon="7.1184">
        <ele>1155.2</ele>
        <time>2022-01-27T12:30:06.183Z</time>
      </trkpt>
      <trkpt lat="47.98845" lon="7.11835">
        <ele>1156.3</ele>
        <time>2022-01-27T12:30:15.506Z</time>
      </trkpt>
      <trkpt lat="47.98852" lon="7.11835">
        <ele>1157</ele>
        <time>2022-01-27T12:30:24.703Z</time>
      </trkpt>
      <trkpt lat="47.98859" lon="7.11836">
        <ele>1157.8</ele>
        <time>2022-01-27T12:30:34.000Z</time>
      </trkpt>
      <trkpt lat="47.98866" lon="7.11839">
        <ele>1158.9</ele>
        <time>2022-01-27T12:30:43.185Z</time>
      </trkpt>
      <trkpt lat="47.98876" lon="7.11841">
        <ele>1160.7</ele>
        <time>2022-01-27T12:30:52.284Z</time>
      </trkpt>
      <trkpt lat="47.98885" lon="7.11842">
        <ele>1162.3</ele>
        <time>2022-01-27T12:31:01.383Z</time>
      </trkpt>
      <trkpt lat="47.98895" lon="7.11846">
        <ele>1163.3</ele>
        <time>2022-01-27T12:31:10.643Z</time>
      </trkpt>
      <trkpt lat="47.98899" lon="7.11847">
        <ele>1163.5</ele>
        <time>2022-01-27T12:31:20.000Z</time>
      </trkpt>
      <trkpt lat="47.98901" lon="7.11848">
        <ele>1163.6</ele>
        <time>2022-01-27T12:31:32.288Z</time>
      </trkpt>
      <trkpt lat="47.98909" lon="7.11848">
        <ele>1164.1</ele>
        <time>2022-01-27T12:31:41.687Z</time>
      </trkpt>
      <trkpt lat="47.98912" lon="7.11838">
        <ele>1164</ele>
        <time>2022-01-27T12:31:51.000Z</time>
      </trkpt>
      <trkpt lat="47.98912" lon="7.1183">
        <ele>1163.6</ele>
        <time>2022-01-27T12:32:00.563Z</time>
      </trkpt>
      <trkpt lat="47.98913" lon="7.11818">
        <ele>1163.2</ele>
        <time>2022-01-27T12:32:10.000Z</time>
      </trkpt>
      <trkpt lat="47.9892" lon="7.11798">
        <ele>1161.7</ele>
        <time>2022-01-27T12:32:19.666Z</time>
      </trkpt>
      <trkpt lat="47.98922" lon="7.11789">
        <ele>1160.4</ele>
        <time>2022-01-27T12:32:29.302Z</time>
      </trkpt>
      <trkpt lat="47.98923" lon="7.11775">
        <ele>1159.2</ele>
        <time>2022-01-27T12:32:38.307Z</time>
      </trkpt>
      <trkpt lat="47.98929" lon="7.11761">
        <ele>1158.3</ele>
        <time>2022-01-27T12:32:47.668Z</time>
      </trkpt>
      <trkpt lat="47.98934" lon="7.11749">
        <ele>1158.1</ele>
        <time>2022-01-27T12:32:56.706Z</time>
      </trkpt>
      <trkpt lat="47.98937" lon="7.11744">
        <ele>1158.6</ele>
        <time>2022-01-27T12:33:06.302Z</time>
      </trkpt>
      <trkpt lat="47.98944" lon="7.11728">
        <ele>1161.1</ele>
        <time>2022-01-27T12:33:15.664Z</time>
      </trkpt>
      <trkpt lat="47.98946" lon="7.11725">
        <ele>1161.2</ele>
        <time>2022-01-27T12:33:25.000Z</time>
      </trkpt>
      <trkpt lat="47.98945" lon="7.11726">
        <ele>1161.4</ele>
        <time>2022-01-27T12:34:11.000Z</time>
      </trkpt>
      <trkpt lat="47.98935" lon="7.1174">
        <ele>1158.9</ele>
        <time>2022-01-27T12:34:20.626Z</time>
      </trkpt>
      <trkpt lat="47.98934" lon="7.11742">
        <ele>1158.6</ele>
        <time>2022-01-27T12:34:30.000Z</time>
      </trkpt>
      <trkpt lat="47.98935" lon="7.11742">
        <ele>1158.7</ele>
        <time>2022-01-27T12:39:23.000Z</time>
      </trkpt>
      <trkpt lat="47.98941" lon="7.11733">
        <ele>1160.1</ele>
        <time>2022-01-27T12:39:32.565Z</time>
      </trkpt>
      <trkpt lat="47.98945" lon="7.11726">
        <ele>1161.3</ele>
        <time>2022-01-27T12:39:42.000Z</time>
      </trkpt>
      <trkpt lat="47.98947" lon="7.11722">
        <ele>1161.4</ele>
        <time>2022-01-27T12:40:38.000Z</time>
      </trkpt>
      <trkpt lat="47.98956" lon="7.11701">
        <ele>1161.1</ele>
        <time>2022-01-27T12:40:47.120Z</time>
      </trkpt>
      <trkpt lat="47.9896" lon="7.11694">
        <ele>1161.3</ele>
        <time>2022-01-27T12:40:56.329Z</time>
      </trkpt>
      <trkpt lat="47.98963" lon="7.11688">
        <ele>1161.6</ele>
        <time>2022-01-27T12:41:06.000Z</time>
      </trkpt>
      <trkpt lat="47.98964" lon="7.11685">
        <ele>1161.9</ele>
        <time>2022-01-27T12:41:16.000Z</time>
      </trkpt>
      <trkpt lat="47.98965" lon="7.11683">
        <ele>1162.1</ele>
        <time>2022-01-27T12:41:32.530Z</time>
      </trkpt>
      <trkpt lat="47.98971" lon="7.11658">
        <ele>1165.1</ele>
        <time>2022-01-27T12:41:42.000Z</time>
      </trkpt>
      <trkpt lat="47.98974" lon="7.11654">
        <ele>1165</ele>
        <time>2022-01-27T12:41:51.763Z</time>
      </trkpt>
      <trkpt lat="47.98981" lon="7.1164">
        <ele>1164.7</ele>
        <time>2022-01-27T12:42:01.000Z</time>
      </trkpt>
      <trkpt lat="47.98984" lon="7.11635">
        <ele>1164.5</ele>
        <time>2022-01-27T12:42:11.624Z</time>
      </trkpt>
      <trkpt lat="47.98987" lon="7.11626">
        <ele>1164.7</ele>
        <time>2022-01-27T12:42:21.146Z</time>
      </trkpt>
      <trkpt lat="47.98989" lon="7.11621">
        <ele>1165</ele>
        <time>2022-01-27T12:42:31.000Z</time>
      </trkpt>
      <trkpt lat="47.9899" lon="7.1162">
        <ele>1165.2</ele>
        <time>2022-01-27T12:43:00.367Z</time>
      </trkpt>
      <trkpt lat="47.98993" lon="7.1161">
        <ele>1166.2</ele>
        <time>2022-01-27T12:43:10.000Z</time>
      </trkpt>
      <trkpt lat="47.98994" lon="7.11609">
        <ele>1166.3</ele>
        <time>2022-01-27T12:44:29.000Z</time>
      </trkpt>
      <trkpt lat="47.98995" lon="7.11606">
        <ele>1166.5</ele>
        <time>2022-01-27T12:52:08.448Z</time>
      </trkpt>
      <trkpt lat="47.99001" lon="7.11598">
        <ele>1167.3</ele>
        <time>2022-01-27T12:52:18.403Z</time>
      </trkpt>
      <trkpt lat="47.99001" lon="7.11595">
        <ele>1167.3</ele>
        <time>2022-01-27T12:52:34.384Z</time>
      </trkpt>
      <trkpt lat="47.99002" lon="7.11581">
        <ele>1167.2</ele>
        <time>2022-01-27T12:52:43.684Z</time>
      </trkpt>
      <trkpt lat="47.99011" lon="7.11564">
        <ele>1164.7</ele>
        <time>2022-01-27T12:52:53.226Z</time>
      </trkpt>
      <trkpt lat="47.99013" lon="7.1156">
        <ele>1164.6</ele>
        <time>2022-01-27T12:53:03.000Z</time>
      </trkpt>
      <trkpt lat="47.99019" lon="7.1155">
        <ele>1164.8</ele>
        <time>2022-01-27T12:53:12.406Z</time>
      </trkpt>
      <trkpt lat="47.9902" lon="7.11547">
        <ele>1164.8</ele>
        <time>2022-01-27T12:53:21.505Z</time>
      </trkpt>
      <trkpt lat="47.99044" lon="7.11559">
        <ele>1161.2</ele>
        <time>2022-01-27T12:53:31.000Z</time>
      </trkpt>
      <trkpt lat="47.99035" lon="7.11543">
        <ele>1165.1</ele>
        <time>2022-01-27T12:53:40.201Z</time>
      </trkpt>
      <trkpt lat="47.99042" lon="7.1153">
        <ele>1166.2</ele>
        <time>2022-01-27T12:53:50.000Z</time>
      </trkpt>
      <trkpt lat="47.99043" lon="7.1153">
        <ele>1166.3</ele>
        <time>2022-01-27T12:54:01.000Z</time>
      </trkpt>
      <trkpt lat="47.99041" lon="7.11529">
        <ele>1166.3</ele>
        <time>2022-01-27T12:55:05.424Z</time>
      </trkpt>
      <trkpt lat="47.9903" lon="7.1152">
        <ele>1165.4</ele>
        <time>2022-01-27T12:55:15.000Z</time>
      </trkpt>
      <trkpt lat="47.99031" lon="7.11519">
        <ele>1165.3</ele>
        <time>2022-01-27T12:55:25.246Z</time>
      </trkpt>
      <trkpt lat="47.99038" lon="7.11507">
        <ele>1165.8</ele>
        <time>2022-01-27T12:55:34.485Z</time>
      </trkpt>
      <trkpt lat="47.99048" lon="7.1151">
        <ele>1167.7</ele>
        <time>2022-01-27T12:55:43.545Z</time>
      </trkpt>
      <trkpt lat="47.99055" lon="7.11505">
        <ele>1169.4</ele>
        <time>2022-01-27T12:55:53.221Z</time>
      </trkpt>
      <trkpt lat="47.99057" lon="7.11504">
        <ele>1169.7</ele>
        <time>2022-01-27T12:56:02.282Z</time>
      </trkpt>
      <trkpt lat="47.99063" lon="7.11491">
        <ele>1170.6</ele>
        <time>2022-01-27T12:56:12.000Z</time>
      </trkpt>
      <trkpt lat="47.99064" lon="7.1149">
        <ele>1170.7</ele>
        <time>2022-01-27T12:56:24.000Z</time>
      </trkpt>
      <trkpt lat="47.99074" lon="7.11475">
        <ele>1171.9</ele>
        <time>2022-01-27T12:56:33.586Z</time>
      </trkpt>
      <trkpt lat="47.99084" lon="7.11457">
        <ele>1172.4</ele>
        <time>2022-01-27T12:56:43.000Z</time>
      </trkpt>
      <trkpt lat="47.99088" lon="7.11443">
        <ele>1171.2</ele>
        <time>2022-01-27T12:56:52.484Z</time>
      </trkpt>
      <trkpt lat="47.99096" lon="7.11429">
        <ele>1170.8</ele>
        <time>2022-01-27T12:57:02.000Z</time>
      </trkpt>
      <trkpt lat="47.99101" lon="7.11423">
        <ele>1170.7</ele>
        <time>2022-01-27T12:57:11.503Z</time>
      </trkpt>
      <trkpt lat="47.99105" lon="7.11404">
        <ele>1170.8</ele>
        <time>2022-01-27T12:57:21.000Z</time>
      </trkpt>
      <trkpt lat="47.99105" lon="7.11387">
        <ele>1171.1</ele>
        <time>2022-01-27T12:57:30.383Z</time>
      </trkpt>
      <trkpt lat="47.99107" lon="7.11374">
        <ele>1171.4</ele>
        <time>2022-01-27T12:57:40.000Z</time>
      </trkpt>
      <trkpt lat="47.99107" lon="7.11358">
        <ele>1171.5</ele>
        <time>2022-01-27T12:57:49.402Z</time>
      </trkpt>
      <trkpt lat="47.99105" lon="7.11351">
        <ele>1171.2</ele>
        <time>2022-01-27T12:57:58.502Z</time>
      </trkpt>
      <trkpt lat="47.99106" lon="7.11336">
        <ele>1171.2</ele>
        <time>2022-01-27T12:58:08.000Z</time>
      </trkpt>
      <trkpt lat="47.99106" lon="7.11334">
        <ele>1171.2</ele>
        <time>2022-01-27T12:58:17.701Z</time>
      </trkpt>
      <trkpt lat="47.99108" lon="7.11318">
        <ele>1172.5</ele>
        <time>2022-01-27T12:58:27.000Z</time>
      </trkpt>
      <trkpt lat="47.99108" lon="7.11316">
        <ele>1172.7</ele>
        <time>2022-01-27T12:58:41.603Z</time>
      </trkpt>
      <trkpt lat="47.9911" lon="7.11301">
        <ele>1173.8</ele>
        <time>2022-01-27T12:58:51.000Z</time>
      </trkpt>
      <trkpt lat="47.99116" lon="7.11286">
        <ele>1174.3</ele>
        <time>2022-01-27T12:59:00.565Z</time>
      </trkpt>
      <trkpt lat="47.99114" lon="7.11276">
        <ele>1174.7</ele>
        <time>2022-01-27T12:59:10.000Z</time>
      </trkpt>
      <trkpt lat="47.99113" lon="7.11275">
        <ele>1174.6</ele>
        <time>2022-01-27T12:59:19.745Z</time>
      </trkpt>
      <trkpt lat="47.99116" lon="7.1126">
        <ele>1173.6</ele>
        <time>2022-01-27T12:59:29.000Z</time>
      </trkpt>
      <trkpt lat="47.99121" lon="7.11261">
        <ele>1173.5</ele>
        <time>2022-01-27T12:59:38.663Z</time>
      </trkpt>
      <trkpt lat="47.9912" lon="7.11256">
        <ele>1173.3</ele>
        <time>2022-01-27T12:59:48.000Z</time>
      </trkpt>
      <trkpt lat="47.99114" lon="7.11265">
        <ele>1174</ele>
        <time>2022-01-27T12:59:58.000Z</time>
      </trkpt>
      <trkpt lat="47.99113" lon="7.11265">
        <ele>1174</ele>
        <time>2022-01-27T13:00:18.543Z</time>
      </trkpt>
      <trkpt lat="47.99111" lon="7.11269">
        <ele>1174.4</ele>
        <time>2022-01-27T13:01:40.000Z</time>
      </trkpt>
      <trkpt lat="47.99108" lon="7.11277">
        <ele>1173.9</ele>
        <time>2022-01-27T13:01:50.000Z</time>
      </trkpt>
      <trkpt lat="47.99109" lon="7.11277">
        <ele>1174.2</ele>
        <time>2022-01-27T13:02:00.000Z</time>
      </trkpt>
      <trkpt lat="47.99113" lon="7.11275">
        <ele>1174.7</ele>
        <time>2022-01-27T13:02:10.000Z</time>
      </trkpt>
      <trkpt lat="47.99112" lon="7.11275">
        <ele>1174.8</ele>
        <time>2022-01-27T13:04:50.000Z</time>
      </trkpt>
      <trkpt lat="47.99111" lon="7.11275">
        <ele>1174.6</ele>
        <time>2022-01-27T13:05:00.000Z</time>
      </trkpt>
      <trkpt lat="47.99111" lon="7.11277">
        <ele>1175</ele>
        <time>2022-01-27T13:05:13.000Z</time>
      </trkpt>
      <trkpt lat="47.9911" lon="7.1128">
        <ele>1174.5</ele>
        <time>2022-01-27T13:05:23.000Z</time>
      </trkpt>
      <trkpt lat="47.9911" lon="7.11279">
        <ele>1174.6</ele>
        <time>2022-01-27T13:06:01.000Z</time>
      </trkpt>
      <trkpt lat="47.99112" lon="7.11272">
        <ele>1174.6</ele>
        <time>2022-01-27T13:06:11.000Z</time>
      </trkpt>
      <trkpt lat="47.99114" lon="7.11274">
        <ele>1174.6</ele>
        <time>2022-01-27T13:06:43.722Z</time>
      </trkpt>
      <trkpt lat="47.99114" lon="7.11272">
        <ele>1174.4</ele>
        <time>2022-01-27T13:06:53.000Z</time>
      </trkpt>
      <trkpt lat="47.99115" lon="7.1127">
        <ele>1174.3</ele>
        <time>2022-01-27T13:07:03.000Z</time>
      </trkpt>
      <trkpt lat="47.99116" lon="7.11269">
        <ele>1174.2</ele>
        <time>2022-01-27T13:08:09.305Z</time>
      </trkpt>
      <trkpt lat="47.99109" lon="7.11274">
        <ele>1174</ele>
        <time>2022-01-27T13:08:19.000Z</time>
      </trkpt>
      <trkpt lat="47.9911" lon="7.11276">
        <ele>1174.4</ele>
        <time>2022-01-27T13:11:08.000Z</time>
      </trkpt>
      <trkpt lat="47.99111" lon="7.11281">
        <ele>1174.9</ele>
        <time>2022-01-27T13:11:18.000Z</time>
      </trkpt>
      <trkpt lat="47.99112" lon="7.11279">
        <ele>1174.9</ele>
        <time>2022-01-27T13:11:59.000Z</time>
      </trkpt>
      <trkpt lat="47.99117" lon="7.11268">
        <ele>1174</ele>
        <time>2022-01-27T13:12:10.000Z</time>
      </trkpt>
      <trkpt lat="47.99118" lon="7.11269">
        <ele>1174</ele>
        <time>2022-01-27T13:13:05.365Z</time>
      </trkpt>
      <trkpt lat="47.99127" lon="7.11263">
        <ele>1173.4</ele>
        <time>2022-01-27T13:13:14.406Z</time>
      </trkpt>
      <trkpt lat="47.9913" lon="7.1125">
        <ele>1173</ele>
        <time>2022-01-27T13:13:23.527Z</time>
      </trkpt>
      <trkpt lat="47.99138" lon="7.11231">
        <ele>1171.5</ele>
        <time>2022-01-27T13:13:33.464Z</time>
      </trkpt>
      <trkpt lat="47.99145" lon="7.11218">
        <ele>1169.8</ele>
        <time>2022-01-27T13:13:43.000Z</time>
      </trkpt>
      <trkpt lat="47.9915" lon="7.11203">
        <ele>1168.6</ele>
        <time>2022-01-27T13:13:52.483Z</time>
      </trkpt>
      <trkpt lat="47.99151" lon="7.11191">
        <ele>1167.9</ele>
        <time>2022-01-27T13:14:01.626Z</time>
      </trkpt>
      <trkpt lat="47.9915" lon="7.11183">
        <ele>1167.2</ele>
        <time>2022-01-27T13:14:11.000Z</time>
      </trkpt>
      <trkpt lat="47.99151" lon="7.11181">
        <ele>1167</ele>
        <time>2022-01-27T13:14:29.284Z</time>
      </trkpt>
      <trkpt lat="47.99157" lon="7.11167">
        <ele>1165.3</ele>
        <time>2022-01-27T13:14:38.445Z</time>
      </trkpt>
      <trkpt lat="47.99161" lon="7.11156">
        <ele>1164.3</ele>
        <time>2022-01-27T13:14:48.000Z</time>
      </trkpt>
      <trkpt lat="47.99172" lon="7.11141">
        <ele>1162.5</ele>
        <time>2022-01-27T13:14:57.644Z</time>
      </trkpt>
      <trkpt lat="47.9918" lon="7.11129">
        <ele>1161.6</ele>
        <time>2022-01-27T13:15:07.000Z</time>
      </trkpt>
      <trkpt lat="47.99183" lon="7.11116">
        <ele>1161.4</ele>
        <time>2022-01-27T13:15:16.541Z</time>
      </trkpt>
      <trkpt lat="47.99184" lon="7.11115">
        <ele>1161.4</ele>
        <time>2022-01-27T13:15:26.000Z</time>
      </trkpt>
      <trkpt lat="47.99187" lon="7.11089">
        <ele>1161.3</ele>
        <time>2022-01-27T13:15:35.545Z</time>
      </trkpt>
      <trkpt lat="47.99189" lon="7.11073">
        <ele>1160.8</ele>
        <time>2022-01-27T13:15:44.607Z</time>
      </trkpt>
      <trkpt lat="47.99192" lon="7.11061">
        <ele>1160.3</ele>
        <time>2022-01-27T13:15:54.363Z</time>
      </trkpt>
      <trkpt lat="47.99193" lon="7.11059">
        <ele>1160.2</ele>
        <time>2022-01-27T13:16:03.426Z</time>
      </trkpt>
      <trkpt lat="47.99194" lon="7.11055">
        <ele>1159.9</ele>
        <time>2022-01-27T13:16:13.000Z</time>
      </trkpt>
      <trkpt lat="47.99197" lon="7.11034">
        <ele>1158</ele>
        <time>2022-01-27T13:16:23.000Z</time>
      </trkpt>
      <trkpt lat="47.99202" lon="7.11015">
        <ele>1155.3</ele>
        <time>2022-01-27T13:16:32.642Z</time>
      </trkpt>
      <trkpt lat="47.99207" lon="7.11">
        <ele>1153.2</ele>
        <time>2022-01-27T13:16:42.225Z</time>
      </trkpt>
      <trkpt lat="47.99211" lon="7.1099">
        <ele>1151.9</ele>
        <time>2022-01-27T13:16:51.585Z</time>
      </trkpt>
      <trkpt lat="47.99219" lon="7.10972">
        <ele>1150.1</ele>
        <time>2022-01-27T13:17:02.000Z</time>
      </trkpt>
      <trkpt lat="47.99226" lon="7.1096">
        <ele>1149.1</ele>
        <time>2022-01-27T13:17:11.623Z</time>
      </trkpt>
      <trkpt lat="47.99234" lon="7.10948">
        <ele>1147.8</ele>
        <time>2022-01-27T13:17:21.366Z</time>
      </trkpt>
      <trkpt lat="47.99236" lon="7.10944">
        <ele>1147.5</ele>
        <time>2022-01-27T13:17:30.527Z</time>
      </trkpt>
      <trkpt lat="47.99244" lon="7.1093">
        <ele>1146.1</ele>
        <time>2022-01-27T13:17:40.000Z</time>
      </trkpt>
      <trkpt lat="47.9925" lon="7.10917">
        <ele>1144.9</ele>
        <time>2022-01-27T13:17:49.263Z</time>
      </trkpt>
      <trkpt lat="47.99254" lon="7.10903">
        <ele>1143.7</ele>
        <time>2022-01-27T13:17:58.402Z</time>
      </trkpt>
      <trkpt lat="47.99256" lon="7.10886">
        <ele>1142.7</ele>
        <time>2022-01-27T13:18:08.000Z</time>
      </trkpt>
      <trkpt lat="47.99261" lon="7.10868">
        <ele>1141.1</ele>
        <time>2022-01-27T13:18:17.665Z</time>
      </trkpt>
      <trkpt lat="47.99261" lon="7.10859">
        <ele>1140.6</ele>
        <time>2022-01-27T13:18:27.000Z</time>
      </trkpt>
      <trkpt lat="47.99261" lon="7.10857">
        <ele>1140.5</ele>
        <time>2022-01-27T13:18:40.000Z</time>
      </trkpt>
      <trkpt lat="47.99264" lon="7.10844">
        <ele>1138.9</ele>
        <time>2022-01-27T13:18:50.000Z</time>
      </trkpt>
      <trkpt lat="47.99262" lon="7.10851">
        <ele>1139.7</ele>
        <time>2022-01-27T13:18:59.005Z</time>
      </trkpt>
      <trkpt lat="47.99261" lon="7.10838">
        <ele>1138.6</ele>
        <time>2022-01-27T13:19:08.562Z</time>
      </trkpt>
      <trkpt lat="47.99258" lon="7.10836">
        <ele>1138.7</ele>
        <time>2022-01-27T13:19:18.120Z</time>
      </trkpt>
      <trkpt lat="47.99251" lon="7.10821">
        <ele>1137.5</ele>
        <time>2022-01-27T13:19:27.426Z</time>
      </trkpt>
      <trkpt lat="47.99247" lon="7.10804">
        <ele>1135.6</ele>
        <time>2022-01-27T13:19:37.000Z</time>
      </trkpt>
      <trkpt lat="47.99243" lon="7.10789">
        <ele>1133.2</ele>
        <time>2022-01-27T13:19:46.001Z</time>
      </trkpt>
      <trkpt lat="47.99237" lon="7.10775">
        <ele>1130.6</ele>
        <time>2022-01-27T13:19:55.343Z</time>
      </trkpt>
      <trkpt lat="47.99243" lon="7.1076">
        <ele>1128.8</ele>
        <time>2022-01-27T13:20:05.382Z</time>
      </trkpt>
      <trkpt lat="47.99247" lon="7.10746">
        <ele>1127.1</ele>
        <time>2022-01-27T13:20:14.508Z</time>
      </trkpt>
      <trkpt lat="47.99251" lon="7.10736">
        <ele>1125.9</ele>
        <time>2022-01-27T13:20:24.000Z</time>
      </trkpt>
      <trkpt lat="47.99254" lon="7.10723">
        <ele>1123.8</ele>
        <time>2022-01-27T13:20:33.205Z</time>
      </trkpt>
      <trkpt lat="47.99256" lon="7.10705">
        <ele>1121</ele>
        <time>2022-01-27T13:20:42.625Z</time>
      </trkpt>
      <trkpt lat="47.99255" lon="7.1069">
        <ele>1119</ele>
        <time>2022-01-27T13:20:51.685Z</time>
      </trkpt>
      <trkpt lat="47.99257" lon="7.10674">
        <ele>1116.8</ele>
        <time>2022-01-27T13:21:01.000Z</time>
      </trkpt>
      <trkpt lat="47.99262" lon="7.10659">
        <ele>1114.3</ele>
        <time>2022-01-27T13:21:10.244Z</time>
      </trkpt>
      <trkpt lat="47.99261" lon="7.10649">
        <ele>1112.9</ele>
        <time>2022-01-27T13:21:20.000Z</time>
      </trkpt>
      <trkpt lat="47.99262" lon="7.10647">
        <ele>1112.4</ele>
        <time>2022-01-27T13:22:11.000Z</time>
      </trkpt>
      <trkpt lat="47.99267" lon="7.10637">
        <ele>1110.4</ele>
        <time>2022-01-27T13:22:20.120Z</time>
      </trkpt>
      <trkpt lat="47.99276" lon="7.10631">
        <ele>1108.7</ele>
        <time>2022-01-27T13:22:29.584Z</time>
      </trkpt>
      <trkpt lat="47.99279" lon="7.1063">
        <ele>1108.2</ele>
        <time>2022-01-27T13:22:39.367Z</time>
      </trkpt>
      <trkpt lat="47.99291" lon="7.10622">
        <ele>1104.8</ele>
        <time>2022-01-27T13:22:49.000Z</time>
      </trkpt>
      <trkpt lat="47.99304" lon="7.10612">
        <ele>1101.3</ele>
        <time>2022-01-27T13:22:59.000Z</time>
      </trkpt>
      <trkpt lat="47.99314" lon="7.10609">
        <ele>1098.9</ele>
        <time>2022-01-27T13:23:08.023Z</time>
      </trkpt>
      <trkpt lat="47.99322" lon="7.10602">
        <ele>1096.3</ele>
        <time>2022-01-27T13:23:17.583Z</time>
      </trkpt>
      <trkpt lat="47.99326" lon="7.1059">
        <ele>1094.1</ele>
        <time>2022-01-27T13:23:26.703Z</time>
      </trkpt>
      <trkpt lat="47.99332" lon="7.10576">
        <ele>1091.4</ele>
        <time>2022-01-27T13:23:36.145Z</time>
      </trkpt>
      <trkpt lat="47.99338" lon="7.10562">
        <ele>1088.9</ele>
        <time>2022-01-27T13:23:45.508Z</time>
      </trkpt>
      <trkpt lat="47.99341" lon="7.1055">
        <ele>1087</ele>
        <time>2022-01-27T13:23:54.701Z</time>
      </trkpt>
      <trkpt lat="47.99347" lon="7.10538">
        <ele>1084.7</ele>
        <time>2022-01-27T13:24:04.000Z</time>
      </trkpt>
      <trkpt lat="47.99349" lon="7.10536">
        <ele>1084.1</ele>
        <time>2022-01-27T13:24:16.227Z</time>
      </trkpt>
      <trkpt lat="47.9936" lon="7.10517">
        <ele>1080.4</ele>
        <time>2022-01-27T13:24:25.643Z</time>
      </trkpt>
      <trkpt lat="47.99366" lon="7.10504">
        <ele>1078.2</ele>
        <time>2022-01-27T13:24:34.764Z</time>
      </trkpt>
      <trkpt lat="47.99373" lon="7.10488">
        <ele>1075.1</ele>
        <time>2022-01-27T13:24:44.124Z</time>
      </trkpt>
      <trkpt lat="47.99382" lon="7.10479">
        <ele>1072.3</ele>
        <time>2022-01-27T13:24:53.504Z</time>
      </trkpt>
      <trkpt lat="47.99388" lon="7.10466">
        <ele>1069.8</ele>
        <time>2022-01-27T13:25:02.665Z</time>
      </trkpt>
      <trkpt lat="47.99392" lon="7.10455">
        <ele>1068</ele>
        <time>2022-01-27T13:25:12.000Z</time>
      </trkpt>
      <trkpt lat="47.99399" lon="7.10443">
        <ele>1065.3</ele>
        <time>2022-01-27T13:25:21.360Z</time>
      </trkpt>
      <trkpt lat="47.99404" lon="7.10429">
        <ele>1062.8</ele>
        <time>2022-01-27T13:25:31.000Z</time>
      </trkpt>
      <trkpt lat="47.99411" lon="7.10414">
        <ele>1060</ele>
        <time>2022-01-27T13:25:40.586Z</time>
      </trkpt>
      <trkpt lat="47.99419" lon="7.10403">
        <ele>1057.5</ele>
        <time>2022-01-27T13:25:50.000Z</time>
      </trkpt>
      <trkpt lat="47.99424" lon="7.10398">
        <ele>1056.1</ele>
        <time>2022-01-27T13:26:00.000Z</time>
      </trkpt>
      <trkpt lat="47.99424" lon="7.10396">
        <ele>1056</ele>
        <time>2022-01-27T13:26:15.382Z</time>
      </trkpt>
      <trkpt lat="47.99424" lon="7.10402">
        <ele>1056.4</ele>
        <time>2022-01-27T13:26:25.000Z</time>
      </trkpt>
      <trkpt lat="47.99427" lon="7.10399">
        <ele>1055.5</ele>
        <time>2022-01-27T13:26:34.425Z</time>
      </trkpt>
      <trkpt lat="47.99445" lon="7.10376">
        <ele>1050.5</ele>
        <time>2022-01-27T13:26:43.622Z</time>
      </trkpt>
      <trkpt lat="47.99452" lon="7.10363">
        <ele>1048.1</ele>
        <time>2022-01-27T13:26:53.000Z</time>
      </trkpt>
      <trkpt lat="47.99466" lon="7.10352">
        <ele>1044</ele>
        <time>2022-01-27T13:27:02.202Z</time>
      </trkpt>
      <trkpt lat="47.99474" lon="7.10343">
        <ele>1041.3</ele>
        <time>2022-01-27T13:27:11.424Z</time>
      </trkpt>
      <trkpt lat="47.99482" lon="7.10333">
        <ele>1038.6</ele>
        <time>2022-01-27T13:27:20.503Z</time>
      </trkpt>
      <trkpt lat="47.99491" lon="7.10321">
        <ele>1035.3</ele>
        <time>2022-01-27T13:27:29.543Z</time>
      </trkpt>
      <trkpt lat="47.995" lon="7.1031">
        <ele>1032.3</ele>
        <time>2022-01-27T13:27:39.000Z</time>
      </trkpt>
      <trkpt lat="47.99508" lon="7.10297">
        <ele>1030.2</ele>
        <time>2022-01-27T13:27:48.725Z</time>
      </trkpt>
      <trkpt lat="47.99513" lon="7.10282">
        <ele>1028.7</ele>
        <time>2022-01-27T13:27:59.000Z</time>
      </trkpt>
      <trkpt lat="47.99519" lon="7.10267">
        <ele>1027.1</ele>
        <time>2022-01-27T13:28:08.462Z</time>
      </trkpt>
      <trkpt lat="47.99526" lon="7.10253">
        <ele>1025.5</ele>
        <time>2022-01-27T13:28:18.000Z</time>
      </trkpt>
      <trkpt lat="47.99533" lon="7.1024">
        <ele>1024.3</ele>
        <time>2022-01-27T13:28:27.243Z</time>
      </trkpt>
      <trkpt lat="47.9954" lon="7.10226">
        <ele>1023.2</ele>
        <time>2022-01-27T13:28:36.605Z</time>
      </trkpt>
      <trkpt lat="47.9955" lon="7.10214">
        <ele>1021.5</ele>
        <time>2022-01-27T13:28:46.000Z</time>
      </trkpt>
      <trkpt lat="47.99556" lon="7.10202">
        <ele>1020.1</ele>
        <time>2022-01-27T13:28:55.125Z</time>
      </trkpt>
      <trkpt lat="47.99564" lon="7.10187">
        <ele>1018.3</ele>
        <time>2022-01-27T13:29:04.547Z</time>
      </trkpt>
      <trkpt lat="47.99573" lon="7.10175">
        <ele>1016.6</ele>
        <time>2022-01-27T13:29:14.000Z</time>
      </trkpt>
      <trkpt lat="47.99581" lon="7.10162">
        <ele>1015.3</ele>
        <time>2022-01-27T13:29:23.101Z</time>
      </trkpt>
      <trkpt lat="47.99588" lon="7.10148">
        <ele>1014.3</ele>
        <time>2022-01-27T13:29:32.145Z</time>
      </trkpt>
      <trkpt lat="47.99596" lon="7.10134">
        <ele>1013.1</ele>
        <time>2022-01-27T13:29:41.185Z</time>
      </trkpt>
      <trkpt lat="47.99602" lon="7.10119">
        <ele>1012.1</ele>
        <time>2022-01-27T13:29:50.243Z</time>
      </trkpt>
      <trkpt lat="47.99607" lon="7.10102">
        <ele>1011.1</ele>
        <time>2022-01-27T13:29:59.627Z</time>
      </trkpt>
      <trkpt lat="47.9961" lon="7.10089">
        <ele>1010.2</ele>
        <time>2022-01-27T13:30:08.744Z</time>
      </trkpt>
      <trkpt lat="47.99616" lon="7.10072">
        <ele>1008.7</ele>
        <time>2022-01-27T13:30:18.000Z</time>
      </trkpt>
      <trkpt lat="47.99625" lon="7.10059">
        <ele>1007.2</ele>
        <time>2022-01-27T13:30:27.165Z</time>
      </trkpt>
      <trkpt lat="47.99633" lon="7.10044">
        <ele>1006</ele>
        <time>2022-01-27T13:30:36.346Z</time>
      </trkpt>
      <trkpt lat="47.99637" lon="7.10029">
        <ele>1005.1</ele>
        <time>2022-01-27T13:30:46.022Z</time>
      </trkpt>
      <trkpt lat="47.99637" lon="7.1002">
        <ele>1004.5</ele>
        <time>2022-01-27T13:30:55.263Z</time>
      </trkpt>
      <trkpt lat="47.99642" lon="7.10005">
        <ele>1003.1</ele>
        <time>2022-01-27T13:31:05.000Z</time>
      </trkpt>
      <trkpt lat="47.99652" lon="7.09986">
        <ele>1000.8</ele>
        <time>2022-01-27T13:31:14.464Z</time>
      </trkpt>
      <trkpt lat="47.99659" lon="7.09982">
        <ele>999.7</ele>
        <time>2022-01-27T13:31:25.000Z</time>
      </trkpt>
      <trkpt lat="47.99657" lon="7.09979">
        <ele>999.7</ele>
        <time>2022-01-27T13:32:04.604Z</time>
      </trkpt>
      <trkpt lat="47.99649" lon="7.09966">
        <ele>999.2</ele>
        <time>2022-01-27T13:32:14.484Z</time>
      </trkpt>
      <trkpt lat="47.99634" lon="7.0996">
        <ele>999.9</ele>
        <time>2022-01-27T13:32:24.405Z</time>
      </trkpt>
      <trkpt lat="47.99623" lon="7.09958">
        <ele>1000.1</ele>
        <time>2022-01-27T13:32:34.000Z</time>
      </trkpt>
      <trkpt lat="47.99609" lon="7.09956">
        <ele>1000.3</ele>
        <time>2022-01-27T13:32:43.405Z</time>
      </trkpt>
      <trkpt lat="47.99597" lon="7.09956">
        <ele>1000.8</ele>
        <time>2022-01-27T13:32:52.725Z</time>
      </trkpt>
      <trkpt lat="47.99596" lon="7.09958">
        <ele>1000.9</ele>
        <time>2022-01-27T13:33:07.000Z</time>
      </trkpt>
      <trkpt lat="47.99597" lon="7.09961">
        <ele>1001.3</ele>
        <time>2022-01-27T13:33:16.260Z</time>
      </trkpt>
      <trkpt lat="47.99597" lon="7.0996">
        <ele>1001.2</ele>
        <time>2022-01-27T13:33:57.401Z</time>
      </trkpt>
      <trkpt lat="47.99597" lon="7.09943">
        <ele>999.4</ele>
        <time>2022-01-27T13:34:06.461Z</time>
      </trkpt>
      <trkpt lat="47.99596" lon="7.09934">
        <ele>998.2</ele>
        <time>2022-01-27T13:34:15.622Z</time>
      </trkpt>
      <trkpt lat="47.99598" lon="7.09917">
        <ele>996</ele>
        <time>2022-01-27T13:34:24.642Z</time>
      </trkpt>
      <trkpt lat="47.996" lon="7.09908">
        <ele>994.5</ele>
        <time>2022-01-27T13:34:34.000Z</time>
      </trkpt>
      <trkpt lat="47.99604" lon="7.09893">
        <ele>992</ele>
        <time>2022-01-27T13:34:43.504Z</time>
      </trkpt>
      <trkpt lat="47.99611" lon="7.09878">
        <ele>989</ele>
        <time>2022-01-27T13:34:52.724Z</time>
      </trkpt>
      <trkpt lat="47.99614" lon="7.09861">
        <ele>986</ele>
        <time>2022-01-27T13:35:02.302Z</time>
      </trkpt>
      <trkpt lat="47.99619" lon="7.09849">
        <ele>983.3</ele>
        <time>2022-01-27T13:35:12.000Z</time>
      </trkpt>
      <trkpt lat="47.99624" lon="7.09835">
        <ele>980.3</ele>
        <time>2022-01-27T13:35:21.287Z</time>
      </trkpt>
      <trkpt lat="47.99624" lon="7.09826">
        <ele>978.4</ele>
        <time>2022-01-27T13:35:30.764Z</time>
      </trkpt>
      <trkpt lat="47.99625" lon="7.09819">
        <ele>977.2</ele>
        <time>2022-01-27T13:35:40.120Z</time>
      </trkpt>
      <trkpt lat="47.99626" lon="7.0981">
        <ele>975.3</ele>
        <time>2022-01-27T13:35:49.526Z</time>
      </trkpt>
      <trkpt lat="47.99625" lon="7.09795">
        <ele>972.5</ele>
        <time>2022-01-27T13:35:59.000Z</time>
      </trkpt>
      <trkpt lat="47.99624" lon="7.09778">
        <ele>969.1</ele>
        <time>2022-01-27T13:36:08.702Z</time>
      </trkpt>
      <trkpt lat="47.99625" lon="7.09762">
        <ele>965.8</ele>
        <time>2022-01-27T13:36:18.205Z</time>
      </trkpt>
      <trkpt lat="47.99625" lon="7.09758">
        <ele>965.1</ele>
        <time>2022-01-27T13:36:27.722Z</time>
      </trkpt>
      <trkpt lat="47.99624" lon="7.09741">
        <ele>961.7</ele>
        <time>2022-01-27T13:36:37.626Z</time>
      </trkpt>
      <trkpt lat="47.99615" lon="7.09725">
        <ele>957.7</ele>
        <time>2022-01-27T13:36:47.042Z</time>
      </trkpt>
      <trkpt lat="47.99604" lon="7.09719">
        <ele>955.3</ele>
        <time>2022-01-27T13:36:56.243Z</time>
      </trkpt>
      <trkpt lat="47.99602" lon="7.09718">
        <ele>954.8</ele>
        <time>2022-01-27T13:37:06.000Z</time>
      </trkpt>
      <trkpt lat="47.99602" lon="7.09715">
        <ele>954.1</ele>
        <time>2022-01-27T13:37:24.387Z</time>
      </trkpt>
      <trkpt lat="47.99603" lon="7.09698">
        <ele>950.6</ele>
        <time>2022-01-27T13:37:34.000Z</time>
      </trkpt>
      <trkpt lat="47.99606" lon="7.09681">
        <ele>947.7</ele>
        <time>2022-01-27T13:37:44.000Z</time>
      </trkpt>
      <trkpt lat="47.99599" lon="7.09677">
        <ele>945.8</ele>
        <time>2022-01-27T13:37:56.000Z</time>
      </trkpt>
      <trkpt lat="47.99595" lon="7.09674">
        <ele>944.6</ele>
        <time>2022-01-27T13:38:05.284Z</time>
      </trkpt>
      <trkpt lat="47.99587" lon="7.0967">
        <ele>942.5</ele>
        <time>2022-01-27T13:38:15.000Z</time>
      </trkpt>
      <trkpt lat="47.99584" lon="7.09671">
        <ele>942.1</ele>
        <time>2022-01-27T13:38:24.099Z</time>
      </trkpt>
      <trkpt lat="47.9958" lon="7.09688">
        <ele>945.1</ele>
        <time>2022-01-27T13:38:33.283Z</time>
      </trkpt>
      <trkpt lat="47.99572" lon="7.09693">
        <ele>945</ele>
        <time>2022-01-27T13:38:43.000Z</time>
      </trkpt>
      <trkpt lat="47.99568" lon="7.09694">
        <ele>944.7</ele>
        <time>2022-01-27T13:38:52.662Z</time>
      </trkpt>
      <trkpt lat="47.99552" lon="7.09697">
        <ele>943.3</ele>
        <time>2022-01-27T13:39:01.743Z</time>
      </trkpt>
      <trkpt lat="47.99543" lon="7.09699">
        <ele>942.8</ele>
        <time>2022-01-27T13:39:11.124Z</time>
      </trkpt>
      <trkpt lat="47.99528" lon="7.09699">
        <ele>941.2</ele>
        <time>2022-01-27T13:39:20.583Z</time>
      </trkpt>
      <trkpt lat="47.99516" lon="7.09694">
        <ele>939.2</ele>
        <time>2022-01-27T13:39:30.606Z</time>
      </trkpt>
      <trkpt lat="47.99502" lon="7.0969">
        <ele>937.1</ele>
        <time>2022-01-27T13:39:40.724Z</time>
      </trkpt>
      <trkpt lat="47.99489" lon="7.09684">
        <ele>935.7</ele>
        <time>2022-01-27T13:39:50.765Z</time>
      </trkpt>
      <trkpt lat="47.99488" lon="7.09682">
        <ele>935.4</ele>
        <time>2022-01-27T13:40:00.000Z</time>
      </trkpt>
      <trkpt lat="47.99502" lon="7.0967">
        <ele>932</ele>
        <time>2022-01-27T13:40:09.128Z</time>
      </trkpt>
      <trkpt lat="47.99512" lon="7.09674">
        <ele>933.4</ele>
        <time>2022-01-27T13:40:18.743Z</time>
      </trkpt>
      <trkpt lat="47.9952" lon="7.09675">
        <ele>933.9</ele>
        <time>2022-01-27T13:40:28.744Z</time>
      </trkpt>
      <trkpt lat="47.99531" lon="7.09665">
        <ele>931.7</ele>
        <time>2022-01-27T13:40:38.164Z</time>
      </trkpt>
      <trkpt lat="47.99543" lon="7.09659">
        <ele>931.6</ele>
        <time>2022-01-27T13:40:47.407Z</time>
      </trkpt>
      <trkpt lat="47.99555" lon="7.09646">
        <ele>929.7</ele>
        <time>2022-01-27T13:40:57.000Z</time>
      </trkpt>
      <trkpt lat="47.99562" lon="7.09628">
        <ele>926.6</ele>
        <time>2022-01-27T13:41:06.120Z</time>
      </trkpt>
      <trkpt lat="47.99564" lon="7.09624">
        <ele>925.7</ele>
        <time>2022-01-27T13:41:15.324Z</time>
      </trkpt>
      <trkpt lat="47.99567" lon="7.09606">
        <ele>921.6</ele>
        <time>2022-01-27T13:41:25.000Z</time>
      </trkpt>
      <trkpt lat="47.99572" lon="7.09593">
        <ele>919.4</ele>
        <time>2022-01-27T13:41:34.224Z</time>
      </trkpt>
      <trkpt lat="47.99573" lon="7.0959">
        <ele>919.1</ele>
        <time>2022-01-27T13:41:43.446Z</time>
      </trkpt>
      <trkpt lat="47.99581" lon="7.0958">
        <ele>918.6</ele>
        <time>2022-01-27T13:41:52.544Z</time>
      </trkpt>
      <trkpt lat="47.99589" lon="7.09557">
        <ele>915.6</ele>
        <time>2022-01-27T13:42:02.000Z</time>
      </trkpt>
      <trkpt lat="47.99596" lon="7.09542">
        <ele>914</ele>
        <time>2022-01-27T13:42:11.360Z</time>
      </trkpt>
      <trkpt lat="47.99599" lon="7.0953">
        <ele>912.4</ele>
        <time>2022-01-27T13:42:21.000Z</time>
      </trkpt>
      <trkpt lat="47.99601" lon="7.09508">
        <ele>908</ele>
        <time>2022-01-27T13:42:30.702Z</time>
      </trkpt>
      <trkpt lat="47.99599" lon="7.09496">
        <ele>905.3</ele>
        <time>2022-01-27T13:42:39.705Z</time>
      </trkpt>
      <trkpt lat="47.99598" lon="7.09485">
        <ele>903.5</ele>
        <time>2022-01-27T13:42:49.000Z</time>
      </trkpt>
      <trkpt lat="47.99603" lon="7.0947">
        <ele>902.5</ele>
        <time>2022-01-27T13:42:58.160Z</time>
      </trkpt>
      <trkpt lat="47.99604" lon="7.09461">
        <ele>901.8</ele>
        <time>2022-01-27T13:43:08.000Z</time>
      </trkpt>
      <trkpt lat="47.99605" lon="7.0946">
        <ele>901.7</ele>
        <time>2022-01-27T13:43:17.185Z</time>
      </trkpt>
      <trkpt lat="47.99605" lon="7.09438">
        <ele>899.1</ele>
        <time>2022-01-27T13:43:26.423Z</time>
      </trkpt>
      <trkpt lat="47.99605" lon="7.09426">
        <ele>897.5</ele>
        <time>2022-01-27T13:43:35.481Z</time>
      </trkpt>
      <trkpt lat="47.99608" lon="7.09408">
        <ele>896.1</ele>
        <time>2022-01-27T13:43:45.547Z</time>
      </trkpt>
      <trkpt lat="47.99613" lon="7.09387">
        <ele>894.2</ele>
        <time>2022-01-27T13:43:55.606Z</time>
      </trkpt>
      <trkpt lat="47.99614" lon="7.09382">
        <ele>892.9</ele>
        <time>2022-01-27T13:44:04.645Z</time>
      </trkpt>
      <trkpt lat="47.99621" lon="7.09357">
        <ele>888.2</ele>
        <time>2022-01-27T13:44:14.000Z</time>
      </trkpt>
      <trkpt lat="47.99624" lon="7.09343">
        <ele>887</ele>
        <time>2022-01-27T13:44:23.186Z</time>
      </trkpt>
      <trkpt lat="47.99625" lon="7.09336">
        <ele>886.4</ele>
        <time>2022-01-27T13:44:32.401Z</time>
      </trkpt>
      <trkpt lat="47.99625" lon="7.09316">
        <ele>887.3</ele>
        <time>2022-01-27T13:44:41.406Z</time>
      </trkpt>
      <trkpt lat="47.99628" lon="7.09293">
        <ele>888.3</ele>
        <time>2022-01-27T13:44:50.742Z</time>
      </trkpt>
      <trkpt lat="47.99634" lon="7.0927">
        <ele>889.6</ele>
        <time>2022-01-27T13:45:00.001Z</time>
      </trkpt>
      <trkpt lat="47.99639" lon="7.09258">
        <ele>890.2</ele>
        <time>2022-01-27T13:45:09.182Z</time>
      </trkpt>
      <trkpt lat="47.99642" lon="7.0925">
        <ele>889.5</ele>
        <time>2022-01-27T13:45:18.362Z</time>
      </trkpt>
      <trkpt lat="47.99642" lon="7.09225">
        <ele>887.9</ele>
        <time>2022-01-27T13:45:28.000Z</time>
      </trkpt>
      <trkpt lat="47.99642" lon="7.09206">
        <ele>887.5</ele>
        <time>2022-01-27T13:45:37.046Z</time>
      </trkpt>
      <trkpt lat="47.99639" lon="7.09194">
        <ele>888</ele>
        <time>2022-01-27T13:45:46.124Z</time>
      </trkpt>
      <trkpt lat="47.99636" lon="7.09183">
        <ele>887.8</ele>
        <time>2022-01-27T13:45:55.284Z</time>
      </trkpt>
      <trkpt lat="47.99633" lon="7.09166">
        <ele>887</ele>
        <time>2022-01-27T13:46:04.503Z</time>
      </trkpt>
      <trkpt lat="47.99628" lon="7.09148">
        <ele>884.7</ele>
        <time>2022-01-27T13:46:15.000Z</time>
      </trkpt>
      <trkpt lat="47.99628" lon="7.0913">
        <ele>882.6</ele>
        <time>2022-01-27T13:46:25.000Z</time>
      </trkpt>
      <trkpt lat="47.99631" lon="7.0911">
        <ele>880.4</ele>
        <time>2022-01-27T13:46:34.687Z</time>
      </trkpt>
      <trkpt lat="47.99632" lon="7.091">
        <ele>879</ele>
        <time>2022-01-27T13:46:44.162Z</time>
      </trkpt>
      <trkpt lat="47.99633" lon="7.09081">
        <ele>876.2</ele>
        <time>2022-01-27T13:46:53.503Z</time>
      </trkpt>
      <trkpt lat="47.99634" lon="7.09067">
        <ele>873.5</ele>
        <time>2022-01-27T13:47:03.000Z</time>
      </trkpt>
      <trkpt lat="47.99638" lon="7.0905">
        <ele>870.7</ele>
        <time>2022-01-27T13:47:13.000Z</time>
      </trkpt>
      <trkpt lat="47.99644" lon="7.09032">
        <ele>868.2</ele>
        <time>2022-01-27T13:47:22.745Z</time>
      </trkpt>
      <trkpt lat="47.99646" lon="7.09019">
        <ele>866.6</ele>
        <time>2022-01-27T13:47:33.000Z</time>
      </trkpt>
      <trkpt lat="47.99645" lon="7.08999">
        <ele>863.9</ele>
        <time>2022-01-27T13:47:43.000Z</time>
      </trkpt>
      <trkpt lat="47.99648" lon="7.08994">
        <ele>863.8</ele>
        <time>2022-01-27T13:47:52.323Z</time>
      </trkpt>
      <trkpt lat="47.99653" lon="7.08975">
        <ele>861.9</ele>
        <time>2022-01-27T13:48:01.746Z</time>
      </trkpt>
      <trkpt lat="47.99658" lon="7.08964">
        <ele>860.9</ele>
        <time>2022-01-27T13:48:11.143Z</time>
      </trkpt>
      <trkpt lat="47.99667" lon="7.08955">
        <ele>860.2</ele>
        <time>2022-01-27T13:48:20.683Z</time>
      </trkpt>
      <trkpt lat="47.99672" lon="7.08947">
        <ele>858.7</ele>
        <time>2022-01-27T13:48:30.164Z</time>
      </trkpt>
      <trkpt lat="47.99681" lon="7.08932">
        <ele>855.6</ele>
        <time>2022-01-27T13:48:39.627Z</time>
      </trkpt>
      <trkpt lat="47.99691" lon="7.0892">
        <ele>852.8</ele>
        <time>2022-01-27T13:48:49.503Z</time>
      </trkpt>
      <trkpt lat="47.99693" lon="7.08918">
        <ele>852.4</ele>
        <time>2022-01-27T13:48:59.000Z</time>
      </trkpt>
      <trkpt lat="47.99701" lon="7.08907">
        <ele>850.1</ele>
        <time>2022-01-27T13:49:09.000Z</time>
      </trkpt>
      <trkpt lat="47.99719" lon="7.08908">
        <ele>850.1</ele>
        <time>2022-01-27T13:49:19.000Z</time>
      </trkpt>
      <trkpt lat="47.99719" lon="7.089">
        <ele>848.5</ele>
        <time>2022-01-27T13:49:28.664Z</time>
      </trkpt>
      <trkpt lat="47.99728" lon="7.08892">
        <ele>846.3</ele>
        <time>2022-01-27T13:49:39.000Z</time>
      </trkpt>
      <trkpt lat="47.99732" lon="7.0889">
        <ele>845.6</ele>
        <time>2022-01-27T13:49:48.666Z</time>
      </trkpt>
      <trkpt lat="47.9974" lon="7.08884">
        <ele>844.1</ele>
        <time>2022-01-27T13:49:58.000Z</time>
      </trkpt>
      <trkpt lat="47.99742" lon="7.08882">
        <ele>843.7</ele>
        <time>2022-01-27T13:50:07.564Z</time>
      </trkpt>
      <trkpt lat="47.99746" lon="7.08864">
        <ele>841.4</ele>
        <time>2022-01-27T13:50:17.000Z</time>
      </trkpt>
      <trkpt lat="47.99745" lon="7.08844">
        <ele>839.5</ele>
        <time>2022-01-27T13:50:26.386Z</time>
      </trkpt>
      <trkpt lat="47.99744" lon="7.08824">
        <ele>837.8</ele>
        <time>2022-01-27T13:50:35.507Z</time>
      </trkpt>
      <trkpt lat="47.9974" lon="7.0881">
        <ele>836.3</ele>
        <time>2022-01-27T13:50:45.000Z</time>
      </trkpt>
      <trkpt lat="47.99739" lon="7.08792">
        <ele>835.6</ele>
        <time>2022-01-27T13:50:54.222Z</time>
      </trkpt>
      <trkpt lat="47.9974" lon="7.08774">
        <ele>835</ele>
        <time>2022-01-27T13:51:03.502Z</time>
      </trkpt>
      <trkpt lat="47.99742" lon="7.08767">
        <ele>834.7</ele>
        <time>2022-01-27T13:51:13.000Z</time>
      </trkpt>
      <trkpt lat="47.99753" lon="7.08747">
        <ele>833.8</ele>
        <time>2022-01-27T13:51:22.326Z</time>
      </trkpt>
      <trkpt lat="47.99764" lon="7.08731">
        <ele>832</ele>
        <time>2022-01-27T13:51:31.444Z</time>
      </trkpt>
      <trkpt lat="47.99772" lon="7.08728">
        <ele>832.4</ele>
        <time>2022-01-27T13:51:41.465Z</time>
      </trkpt>
      <trkpt lat="47.99782" lon="7.08714">
        <ele>830.6</ele>
        <time>2022-01-27T13:51:50.925Z</time>
      </trkpt>
      <trkpt lat="47.99792" lon="7.08703">
        <ele>829.7</ele>
        <time>2022-01-27T13:52:00.145Z</time>
      </trkpt>
      <trkpt lat="47.99797" lon="7.087">
        <ele>829.8</ele>
        <time>2022-01-27T13:52:10.504Z</time>
      </trkpt>
      <trkpt lat="47.99797" lon="7.08699">
        <ele>829.6</ele>
        <time>2022-01-27T13:52:27.241Z</time>
      </trkpt>
      <trkpt lat="47.99806" lon="7.08668">
        <ele>822.7</ele>
        <time>2022-01-27T13:52:36.622Z</time>
      </trkpt>
      <trkpt lat="47.99816" lon="7.08682">
        <ele>829.1</ele>
        <time>2022-01-27T13:52:46.601Z</time>
      </trkpt>
      <trkpt lat="47.99822" lon="7.08671">
        <ele>827.5</ele>
        <time>2022-01-27T13:52:56.000Z</time>
      </trkpt>
      <trkpt lat="47.9983" lon="7.08639">
        <ele>822</ele>
        <time>2022-01-27T13:53:05.405Z</time>
      </trkpt>
      <trkpt lat="47.99839" lon="7.08628">
        <ele>821.9</ele>
        <time>2022-01-27T13:53:14.645Z</time>
      </trkpt>
      <trkpt lat="47.99846" lon="7.08608">
        <ele>818.6</ele>
        <time>2022-01-27T13:53:24.000Z</time>
      </trkpt>
      <trkpt lat="47.99851" lon="7.08604">
        <ele>818.7</ele>
        <time>2022-01-27T13:53:33.405Z</time>
      </trkpt>
      <trkpt lat="47.9986" lon="7.0859">
        <ele>817.9</ele>
        <time>2022-01-27T13:53:43.503Z</time>
      </trkpt>
      <trkpt lat="47.99866" lon="7.08578">
        <ele>816.2</ele>
        <time>2022-01-27T13:53:53.161Z</time>
      </trkpt>
      <trkpt lat="47.99877" lon="7.08566">
        <ele>815</ele>
        <time>2022-01-27T13:54:02.648Z</time>
      </trkpt>
      <trkpt lat="47.99888" lon="7.08558">
        <ele>815.3</ele>
        <time>2022-01-27T13:54:12.125Z</time>
      </trkpt>
      <trkpt lat="47.99898" lon="7.0855">
        <ele>814.3</ele>
        <time>2022-01-27T13:54:21.404Z</time>
      </trkpt>
      <trkpt lat="47.99908" lon="7.0854">
        <ele>812.4</ele>
        <time>2022-01-27T13:54:30.524Z</time>
      </trkpt>
      <trkpt lat="47.99914" lon="7.08534">
        <ele>811.3</ele>
        <time>2022-01-27T13:54:40.443Z</time>
      </trkpt>
      <trkpt lat="47.99927" lon="7.08526">
        <ele>809.7</ele>
        <time>2022-01-27T13:54:49.964Z</time>
      </trkpt>
      <trkpt lat="47.99939" lon="7.08521">
        <ele>808</ele>
        <time>2022-01-27T13:54:59.263Z</time>
      </trkpt>
      <trkpt lat="47.99952" lon="7.08517">
        <ele>806.5</ele>
        <time>2022-01-27T13:55:09.000Z</time>
      </trkpt>
      <trkpt lat="47.99967" lon="7.08512">
        <ele>804.2</ele>
        <time>2022-01-27T13:55:18.119Z</time>
      </trkpt>
      <trkpt lat="47.99975" lon="7.08509">
        <ele>803</ele>
        <time>2022-01-27T13:55:27.125Z</time>
      </trkpt>
      <trkpt lat="47.99982" lon="7.08509">
        <ele>802.6</ele>
        <time>2022-01-27T13:55:36.465Z</time>
      </trkpt>
      <trkpt lat="47.99996" lon="7.08511">
        <ele>802.7</ele>
        <time>2022-01-27T13:55:45.745Z</time>
      </trkpt>
      <trkpt lat="48.00009" lon="7.08501">
        <ele>799</ele>
        <time>2022-01-27T13:55:56.000Z</time>
      </trkpt>
      <trkpt lat="48.00022" lon="7.08494">
        <ele>796.6</ele>
        <time>2022-01-27T13:56:05.742Z</time>
      </trkpt>
      <trkpt lat="48.00042" lon="7.08488">
        <ele>795.1</ele>
        <time>2022-01-27T13:56:15.000Z</time>
      </trkpt>
      <trkpt lat="48.00048" lon="7.08483">
        <ele>794.2</ele>
        <time>2022-01-27T13:56:24.442Z</time>
      </trkpt>
      <trkpt lat="48.00062" lon="7.08478">
        <ele>793.1</ele>
        <time>2022-01-27T13:56:33.886Z</time>
      </trkpt>
      <trkpt lat="48.00075" lon="7.08472">
        <ele>791.3</ele>
        <time>2022-01-27T13:56:43.144Z</time>
      </trkpt>
      <trkpt lat="48.00084" lon="7.08475">
        <ele>791.4</ele>
        <time>2022-01-27T13:56:52.384Z</time>
      </trkpt>
      <trkpt lat="48.00109" lon="7.08483">
        <ele>788.7</ele>
        <time>2022-01-27T13:57:02.403Z</time>
      </trkpt>
      <trkpt lat="48.00121" lon="7.08491">
        <ele>788</ele>
        <time>2022-01-27T13:57:11.724Z</time>
      </trkpt>
      <trkpt lat="48.00129" lon="7.08497">
        <ele>787.4</ele>
        <time>2022-01-27T13:57:21.000Z</time>
      </trkpt>
      <trkpt lat="48.00138" lon="7.08494">
        <ele>784.9</ele>
        <time>2022-01-27T13:57:30.442Z</time>
      </trkpt>
      <trkpt lat="48.00149" lon="7.08498">
        <ele>783.4</ele>
        <time>2022-01-27T13:57:40.000Z</time>
      </trkpt>
      <trkpt lat="48.0016" lon="7.08505">
        <ele>782.6</ele>
        <time>2022-01-27T13:57:49.305Z</time>
      </trkpt>
      <trkpt lat="48.00171" lon="7.08511">
        <ele>781.3</ele>
        <time>2022-01-27T13:57:58.702Z</time>
      </trkpt>
      <trkpt lat="48.0018" lon="7.08513">
        <ele>779.3</ele>
        <time>2022-01-27T13:58:07.765Z</time>
      </trkpt>
      <trkpt lat="48.00191" lon="7.0852">
        <ele>778.1</ele>
        <time>2022-01-27T13:58:17.102Z</time>
      </trkpt>
      <trkpt lat="48.00203" lon="7.08525">
        <ele>777</ele>
        <time>2022-01-27T13:58:26.302Z</time>
      </trkpt>
      <trkpt lat="48.00221" lon="7.08529">
        <ele>775.4</ele>
        <time>2022-01-27T13:58:35.703Z</time>
      </trkpt>
      <trkpt lat="48.00236" lon="7.08524">
        <ele>772.2</ele>
        <time>2022-01-27T13:58:44.880Z</time>
      </trkpt>
      <trkpt lat="48.00247" lon="7.08527">
        <ele>771.2</ele>
        <time>2022-01-27T13:58:54.000Z</time>
      </trkpt>
      <trkpt lat="48.00259" lon="7.08538">
        <ele>771.2</ele>
        <time>2022-01-27T13:59:03.045Z</time>
      </trkpt>
      <trkpt lat="48.00263" lon="7.08545">
        <ele>771.6</ele>
        <time>2022-01-27T13:59:12.543Z</time>
      </trkpt>
      <trkpt lat="48.0027" lon="7.08555">
        <ele>771.8</ele>
        <time>2022-01-27T13:59:22.122Z</time>
      </trkpt>
      <trkpt lat="48.003" lon="7.08555">
        <ele>768.3</ele>
        <time>2022-01-27T13:59:31.545Z</time>
      </trkpt>
      <trkpt lat="48.0031" lon="7.08558">
        <ele>768.4</ele>
        <time>2022-01-27T13:59:41.442Z</time>
      </trkpt>
      <trkpt lat="48.00319" lon="7.08558">
        <ele>768</ele>
        <time>2022-01-27T13:59:51.000Z</time>
      </trkpt>
      <trkpt lat="48.00321" lon="7.08559">
        <ele>768.1</ele>
        <time>2022-01-27T14:00:01.000Z</time>
      </trkpt>
      <trkpt lat="48.00333" lon="7.08559">
        <ele>767.7</ele>
        <time>2022-01-27T14:00:10.502Z</time>
      </trkpt>
      <trkpt lat="48.00345" lon="7.08555">
        <ele>766.6</ele>
        <time>2022-01-27T14:00:19.541Z</time>
      </trkpt>
      <trkpt lat="48.00338" lon="7.08537">
        <ele>762.8</ele>
        <time>2022-01-27T14:00:29.122Z</time>
      </trkpt>
      <trkpt lat="48.0033" lon="7.08536">
        <ele>762.8</ele>
        <time>2022-01-27T14:00:38.424Z</time>
      </trkpt>
      <trkpt lat="48.00315" lon="7.08529">
        <ele>761.8</ele>
        <time>2022-01-27T14:00:47.562Z</time>
      </trkpt>
      <trkpt lat="48.00303" lon="7.08522">
        <ele>760.9</ele>
        <time>2022-01-27T14:00:57.000Z</time>
      </trkpt>
      <trkpt lat="48.0029" lon="7.08516">
        <ele>760.8</ele>
        <time>2022-01-27T14:01:06.504Z</time>
      </trkpt>
      <trkpt lat="48.00285" lon="7.08507">
        <ele>759.5</ele>
        <time>2022-01-27T14:01:16.000Z</time>
      </trkpt>
      <trkpt lat="48.00277" lon="7.08489">
        <ele>756.5</ele>
        <time>2022-01-27T14:01:25.663Z</time>
      </trkpt>
      <trkpt lat="48.00266" lon="7.08477">
        <ele>755.7</ele>
        <time>2022-01-27T14:01:35.522Z</time>
      </trkpt>
      <trkpt lat="48.00254" lon="7.08464">
        <ele>755</ele>
        <time>2022-01-27T14:01:45.142Z</time>
      </trkpt>
      <trkpt lat="48.00243" lon="7.08455">
        <ele>753.7</ele>
        <time>2022-01-27T14:01:54.243Z</time>
      </trkpt>
      <trkpt lat="48.00231" lon="7.08448">
        <ele>752.4</ele>
        <time>2022-01-27T14:02:03.381Z</time>
      </trkpt>
      <trkpt lat="48.00224" lon="7.08442">
        <ele>751.3</ele>
        <time>2022-01-27T14:02:12.442Z</time>
      </trkpt>
      <trkpt lat="48.0022" lon="7.08444">
        <ele>752.3</ele>
        <time>2022-01-27T14:02:21.641Z</time>
      </trkpt>
      <trkpt lat="48.00209" lon="7.08438">
        <ele>753.1</ele>
        <time>2022-01-27T14:02:31.204Z</time>
      </trkpt>
      <trkpt lat="48.00204" lon="7.08424">
        <ele>750.1</ele>
        <time>2022-01-27T14:02:40.301Z</time>
      </trkpt>
      <trkpt lat="48.00201" lon="7.08413">
        <ele>747.8</ele>
        <time>2022-01-27T14:02:50.000Z</time>
      </trkpt>
      <trkpt lat="48.00193" lon="7.08399">
        <ele>746.6</ele>
        <time>2022-01-27T14:02:59.487Z</time>
      </trkpt>
      <trkpt lat="48.00186" lon="7.08383">
        <ele>745</ele>
        <time>2022-01-27T14:03:08.503Z</time>
      </trkpt>
      <trkpt lat="48.00183" lon="7.08373">
        <ele>744.1</ele>
        <time>2022-01-27T14:03:18.482Z</time>
      </trkpt>
      <trkpt lat="48.00173" lon="7.08348">
        <ele>742.5</ele>
        <time>2022-01-27T14:03:28.000Z</time>
      </trkpt>
      <trkpt lat="48.00166" lon="7.08327">
        <ele>741.3</ele>
        <time>2022-01-27T14:03:37.460Z</time>
      </trkpt>
      <trkpt lat="48.00159" lon="7.08314">
        <ele>741.1</ele>
        <time>2022-01-27T14:03:47.000Z</time>
      </trkpt>
      <trkpt lat="48.00158" lon="7.08311">
        <ele>741.1</ele>
        <time>2022-01-27T14:03:56.241Z</time>
      </trkpt>
      <trkpt lat="48.00144" lon="7.08294">
        <ele>741.3</ele>
        <time>2022-01-27T14:04:05.703Z</time>
      </trkpt>
      <trkpt lat="48.00131" lon="7.08282">
        <ele>741.6</ele>
        <time>2022-01-27T14:04:14.945Z</time>
      </trkpt>
      <trkpt lat="48.00122" lon="7.08272">
        <ele>741.6</ele>
        <time>2022-01-27T14:04:24.184Z</time>
      </trkpt>
      <trkpt lat="48.00111" lon="7.08265">
        <ele>742.7</ele>
        <time>2022-01-27T14:04:33.364Z</time>
      </trkpt>
      <trkpt lat="48.00102" lon="7.0826">
        <ele>742.8</ele>
        <time>2022-01-27T14:04:43.000Z</time>
      </trkpt>
      <trkpt lat="48.00091" lon="7.08256">
        <ele>743.3</ele>
        <time>2022-01-27T14:04:52.705Z</time>
      </trkpt>
      <trkpt lat="48.00078" lon="7.08255">
        <ele>743.1</ele>
        <time>2022-01-27T14:05:02.000Z</time>
      </trkpt>
      <trkpt lat="48.00066" lon="7.08259">
        <ele>741.9</ele>
        <time>2022-01-27T14:05:11.522Z</time>
      </trkpt>
      <trkpt lat="48.00055" lon="7.08263">
        <ele>741.2</ele>
        <time>2022-01-27T14:05:21.043Z</time>
      </trkpt>
      <trkpt lat="48.00044" lon="7.0827">
        <ele>741.9</ele>
        <time>2022-01-27T14:05:30.164Z</time>
      </trkpt>
      <trkpt lat="48.00033" lon="7.08276">
        <ele>742.3</ele>
        <time>2022-01-27T14:05:39.205Z</time>
      </trkpt>
      <trkpt lat="48.00026" lon="7.08281">
        <ele>742.8</ele>
        <time>2022-01-27T14:05:48.604Z</time>
      </trkpt>
      <trkpt lat="48.00014" lon="7.08287">
        <ele>744.2</ele>
        <time>2022-01-27T14:05:58.163Z</time>
      </trkpt>
      <trkpt lat="48.00003" lon="7.08289">
        <ele>744.5</ele>
        <time>2022-01-27T14:06:07.302Z</time>
      </trkpt>
      <trkpt lat="47.99993" lon="7.0829">
        <ele>745.3</ele>
        <time>2022-01-27T14:06:16.563Z</time>
      </trkpt>
      <trkpt lat="47.99984" lon="7.08291">
        <ele>746.2</ele>
        <time>2022-01-27T14:06:25.623Z</time>
      </trkpt>
      <trkpt lat="47.99974" lon="7.0829">
        <ele>747</ele>
        <time>2022-01-27T14:06:35.226Z</time>
      </trkpt>
      <trkpt lat="47.99962" lon="7.08289">
        <ele>747.9</ele>
        <time>2022-01-27T14:06:44.367Z</time>
      </trkpt>
      <trkpt lat="47.99954" lon="7.08289">
        <ele>748.9</ele>
        <time>2022-01-27T14:06:54.000Z</time>
      </trkpt>
      <trkpt lat="47.99947" lon="7.08291">
        <ele>750</ele>
        <time>2022-01-27T14:07:04.000Z</time>
      </trkpt>
      <trkpt lat="47.99941" lon="7.08291">
        <ele>750.4</ele>
        <time>2022-01-27T14:07:14.000Z</time>
      </trkpt>
      <trkpt lat="47.9994" lon="7.08291">
        <ele>750.6</ele>
        <time>2022-01-27T14:07:24.000Z</time>
      </trkpt>
      <trkpt lat="47.99926" lon="7.08297">
        <ele>752.7</ele>
        <time>2022-01-27T14:07:33.465Z</time>
      </trkpt>
      <trkpt lat="47.99916" lon="7.08299">
        <ele>753.6</ele>
        <time>2022-01-27T14:07:42.587Z</time>
      </trkpt>
      <trkpt lat="47.99906" lon="7.08302">
        <ele>754.6</ele>
        <time>2022-01-27T14:07:52.000Z</time>
      </trkpt>
      <trkpt lat="47.99902" lon="7.08306">
        <ele>755.5</ele>
        <time>2022-01-27T14:08:02.000Z</time>
      </trkpt>
      <trkpt lat="47.99901" lon="7.08306">
        <ele>755.8</ele>
        <time>2022-01-27T14:08:11.261Z</time>
      </trkpt>
      <trkpt lat="47.99896" lon="7.08313">
        <ele>757.3</ele>
        <time>2022-01-27T14:08:20.541Z</time>
      </trkpt>
      <trkpt lat="47.99895" lon="7.08311">
        <ele>757</ele>
        <time>2022-01-27T14:08:30.000Z</time>
      </trkpt>
      <trkpt lat="47.99882" lon="7.08315">
        <ele>757.1</ele>
        <time>2022-01-27T14:08:39.384Z</time>
      </trkpt>
      <trkpt lat="47.99868" lon="7.0832">
        <ele>756.6</ele>
        <time>2022-01-27T14:08:48.902Z</time>
      </trkpt>
      <trkpt lat="47.99858" lon="7.08325">
        <ele>756.2</ele>
        <time>2022-01-27T14:08:58.404Z</time>
      </trkpt>
      <trkpt lat="47.99848" lon="7.08331">
        <ele>755.1</ele>
        <time>2022-01-27T14:09:07.626Z</time>
      </trkpt>
      <trkpt lat="47.99842" lon="7.08339">
        <ele>755.3</ele>
        <time>2022-01-27T14:09:17.000Z</time>
      </trkpt>
      <trkpt lat="47.99829" lon="7.0835">
        <ele>754.5</ele>
        <time>2022-01-27T14:09:26.223Z</time>
      </trkpt>
      <trkpt lat="47.99818" lon="7.08358">
        <ele>753.6</ele>
        <time>2022-01-27T14:09:35.664Z</time>
      </trkpt>
      <trkpt lat="47.99809" lon="7.08367">
        <ele>753.1</ele>
        <time>2022-01-27T14:09:45.000Z</time>
      </trkpt>
      <trkpt lat="47.99796" lon="7.08376">
        <ele>751</ele>
        <time>2022-01-27T14:09:54.206Z</time>
      </trkpt>
      <trkpt lat="47.9979" lon="7.0838">
        <ele>750</ele>
        <time>2022-01-27T14:10:03.306Z</time>
      </trkpt>
      <trkpt lat="47.99779" lon="7.0839">
        <ele>749.6</ele>
        <time>2022-01-27T14:10:12.722Z</time>
      </trkpt>
      <trkpt lat="47.99776" lon="7.08392">
        <ele>749.4</ele>
        <time>2022-01-27T14:10:22.000Z</time>
      </trkpt>
      <trkpt lat="47.99761" lon="7.08406">
        <ele>749</ele>
        <time>2022-01-27T14:10:32.000Z</time>
      </trkpt>
      <trkpt lat="47.99755" lon="7.08414">
        <ele>749.7</ele>
        <time>2022-01-27T14:10:41.163Z</time>
      </trkpt>
      <trkpt lat="47.99742" lon="7.08429">
        <ele>751.1</ele>
        <time>2022-01-27T14:10:50.604Z</time>
      </trkpt>
      <trkpt lat="47.99727" lon="7.08433">
        <ele>749.8</ele>
        <time>2022-01-27T14:11:00.000Z</time>
      </trkpt>
      <trkpt lat="47.99713" lon="7.08434">
        <ele>748.1</ele>
        <time>2022-01-27T14:11:09.420Z</time>
      </trkpt>
      <trkpt lat="47.997" lon="7.08436">
        <ele>747.3</ele>
        <time>2022-01-27T14:11:18.643Z</time>
      </trkpt>
      <trkpt lat="47.99688" lon="7.08436">
        <ele>745.8</ele>
        <time>2022-01-27T14:11:27.764Z</time>
      </trkpt>
      <trkpt lat="47.99674" lon="7.08439">
        <ele>745.1</ele>
        <time>2022-01-27T14:11:37.000Z</time>
      </trkpt>
      <trkpt lat="47.99661" lon="7.08438">
        <ele>743.5</ele>
        <time>2022-01-27T14:11:46.125Z</time>
      </trkpt>
      <trkpt lat="47.99649" lon="7.08439">
        <ele>743</ele>
        <time>2022-01-27T14:11:55.465Z</time>
      </trkpt>
      <trkpt lat="47.99636" lon="7.08439">
        <ele>742.5</ele>
        <time>2022-01-27T14:12:04.525Z</time>
      </trkpt>
      <trkpt lat="47.99624" lon="7.0844">
        <ele>742.7</ele>
        <time>2022-01-27T14:12:13.705Z</time>
      </trkpt>
      <trkpt lat="47.9961" lon="7.08437">
        <ele>742.2</ele>
        <time>2022-01-27T14:12:23.485Z</time>
      </trkpt>
      <trkpt lat="47.99598" lon="7.08431">
        <ele>742</ele>
        <time>2022-01-27T14:12:33.047Z</time>
      </trkpt>
      <trkpt lat="47.99587" lon="7.08427">
        <ele>741.9</ele>
        <time>2022-01-27T14:12:42.368Z</time>
      </trkpt>
      <trkpt lat="47.99578" lon="7.08424">
        <ele>742.3</ele>
        <time>2022-01-27T14:12:51.583Z</time>
      </trkpt>
      <trkpt lat="47.99564" lon="7.08416">
        <ele>742.2</ele>
        <time>2022-01-27T14:13:01.566Z</time>
      </trkpt>
      <trkpt lat="47.99552" lon="7.08413">
        <ele>742.4</ele>
        <time>2022-01-27T14:13:10.901Z</time>
      </trkpt>
      <trkpt lat="47.99544" lon="7.08413">
        <ele>742</ele>
        <time>2022-01-27T14:13:20.263Z</time>
      </trkpt>
      <trkpt lat="47.99531" lon="7.08419">
        <ele>742.8</ele>
        <time>2022-01-27T14:13:29.684Z</time>
      </trkpt>
      <trkpt lat="47.99522" lon="7.08422">
        <ele>741.6</ele>
        <time>2022-01-27T14:13:39.402Z</time>
      </trkpt>
      <trkpt lat="47.99513" lon="7.08433">
        <ele>740.9</ele>
        <time>2022-01-27T14:13:48.522Z</time>
      </trkpt>
      <trkpt lat="47.99504" lon="7.08443">
        <ele>740.1</ele>
        <time>2022-01-27T14:13:57.543Z</time>
      </trkpt>
      <trkpt lat="47.995" lon="7.08447">
        <ele>739.6</ele>
        <time>2022-01-27T14:14:06.582Z</time>
      </trkpt>
      <trkpt lat="47.99488" lon="7.08471">
        <ele>739.1</ele>
        <time>2022-01-27T14:14:15.742Z</time>
      </trkpt>
      <trkpt lat="47.99484" lon="7.08482">
        <ele>739.8</ele>
        <time>2022-01-27T14:14:24.762Z</time>
      </trkpt>
      <trkpt lat="47.99477" lon="7.08495">
        <ele>739.7</ele>
        <time>2022-01-27T14:14:34.000Z</time>
      </trkpt>
      <trkpt lat="47.99464" lon="7.0851">
        <ele>737.9</ele>
        <time>2022-01-27T14:14:43.243Z</time>
      </trkpt>
      <trkpt lat="47.99454" lon="7.08521">
        <ele>736.7</ele>
        <time>2022-01-27T14:14:52.343Z</time>
      </trkpt>
      <trkpt lat="47.99444" lon="7.08531">
        <ele>735.7</ele>
        <time>2022-01-27T14:15:01.503Z</time>
      </trkpt>
      <trkpt lat="47.99434" lon="7.08543">
        <ele>735.4</ele>
        <time>2022-01-27T14:15:10.703Z</time>
      </trkpt>
      <trkpt lat="47.99423" lon="7.08557">
        <ele>735.5</ele>
        <time>2022-01-27T14:15:20.000Z</time>
      </trkpt>
      <trkpt lat="47.99409" lon="7.08574">
        <ele>735.1</ele>
        <time>2022-01-27T14:15:29.629Z</time>
      </trkpt>
      <trkpt lat="47.99398" lon="7.08583">
        <ele>734</ele>
        <time>2022-01-27T14:15:38.646Z</time>
      </trkpt>
      <trkpt lat="47.99387" lon="7.08591">
        <ele>733.6</ele>
        <time>2022-01-27T14:15:48.000Z</time>
      </trkpt>
      <trkpt lat="47.99372" lon="7.08596">
        <ele>732.7</ele>
        <time>2022-01-27T14:15:57.385Z</time>
      </trkpt>
      <trkpt lat="47.99359" lon="7.08593">
        <ele>730.2</ele>
        <time>2022-01-27T14:16:07.000Z</time>
      </trkpt>
      <trkpt lat="47.99346" lon="7.08588">
        <ele>728.4</ele>
        <time>2022-01-27T14:16:16.501Z</time>
      </trkpt>
      <trkpt lat="47.99334" lon="7.08583">
        <ele>727</ele>
        <time>2022-01-27T14:16:25.944Z</time>
      </trkpt>
      <trkpt lat="47.99323" lon="7.08585">
        <ele>724.9</ele>
        <time>2022-01-27T14:16:35.003Z</time>
      </trkpt>
      <trkpt lat="47.99311" lon="7.08591">
        <ele>723.2</ele>
        <time>2022-01-27T14:16:44.445Z</time>
      </trkpt>
      <trkpt lat="47.99302" lon="7.086">
        <ele>721</ele>
        <time>2022-01-27T14:16:54.402Z</time>
      </trkpt>
      <trkpt lat="47.993" lon="7.08602">
        <ele>720.1</ele>
        <time>2022-01-27T14:17:05.000Z</time>
      </trkpt>
      <trkpt lat="47.993" lon="7.08606">
        <ele>720.2</ele>
        <time>2022-01-27T14:17:17.724Z</time>
      </trkpt>
      <trkpt lat="47.99299" lon="7.08631">
        <ele>719.8</ele>
        <time>2022-01-27T14:17:27.226Z</time>
      </trkpt>
      <trkpt lat="47.99302" lon="7.08649">
        <ele>721.8</ele>
        <time>2022-01-27T14:17:36.264Z</time>
      </trkpt>
      <trkpt lat="47.99294" lon="7.08669">
        <ele>718.1</ele>
        <time>2022-01-27T14:17:45.742Z</time>
      </trkpt>
      <trkpt lat="47.99286" lon="7.08685">
        <ele>716.6</ele>
        <time>2022-01-27T14:17:55.000Z</time>
      </trkpt>
      <trkpt lat="47.99282" lon="7.087">
        <ele>716</ele>
        <time>2022-01-27T14:18:04.424Z</time>
      </trkpt>
      <trkpt lat="47.99276" lon="7.08715">
        <ele>714.2</ele>
        <time>2022-01-27T14:18:13.503Z</time>
      </trkpt>
      <trkpt lat="47.99272" lon="7.08729">
        <ele>712.8</ele>
        <time>2022-01-27T14:18:22.705Z</time>
      </trkpt>
      <trkpt lat="47.99269" lon="7.08747">
        <ele>712.3</ele>
        <time>2022-01-27T14:18:32.526Z</time>
      </trkpt>
      <trkpt lat="47.9927" lon="7.08767">
        <ele>712.2</ele>
        <time>2022-01-27T14:18:42.162Z</time>
      </trkpt>
      <trkpt lat="47.99272" lon="7.08783">
        <ele>712.6</ele>
        <time>2022-01-27T14:18:51.264Z</time>
      </trkpt>
      <trkpt lat="47.99274" lon="7.08802">
        <ele>712.1</ele>
        <time>2022-01-27T14:19:00.481Z</time>
      </trkpt>
      <trkpt lat="47.99277" lon="7.0881">
        <ele>712.3</ele>
        <time>2022-01-27T14:19:09.663Z</time>
      </trkpt>
      <trkpt lat="47.99282" lon="7.08837">
        <ele>710.7</ele>
        <time>2022-01-27T14:19:18.923Z</time>
      </trkpt>
      <trkpt lat="47.99286" lon="7.08849">
        <ele>710.1</ele>
        <time>2022-01-27T14:19:28.000Z</time>
      </trkpt>
      <trkpt lat="47.99287" lon="7.08864">
        <ele>706.9</ele>
        <time>2022-01-27T14:19:38.000Z</time>
      </trkpt>
      <trkpt lat="47.99287" lon="7.08887">
        <ele>706.4</ele>
        <time>2022-01-27T14:19:47.523Z</time>
      </trkpt>
      <trkpt lat="47.99293" lon="7.08895">
        <ele>709.6</ele>
        <time>2022-01-27T14:19:56.642Z</time>
      </trkpt>
      <trkpt lat="47.99289" lon="7.08914">
        <ele>708.9</ele>
        <time>2022-01-27T14:20:05.741Z</time>
      </trkpt>
      <trkpt lat="47.99285" lon="7.08926">
        <ele>708</ele>
        <time>2022-01-27T14:20:15.144Z</time>
      </trkpt>
      <trkpt lat="47.99284" lon="7.08932">
        <ele>708.4</ele>
        <time>2022-01-27T14:20:24.643Z</time>
      </trkpt>
      <trkpt lat="47.9928" lon="7.08949">
        <ele>708.1</ele>
        <time>2022-01-27T14:20:34.000Z</time>
      </trkpt>
      <trkpt lat="47.99279" lon="7.08952">
        <ele>708.5</ele>
        <time>2022-01-27T14:20:43.287Z</time>
      </trkpt>
      <trkpt lat="47.9928" lon="7.08968">
        <ele>710.4</ele>
        <time>2022-01-27T14:20:52.323Z</time>
      </trkpt>
      <trkpt lat="47.99272" lon="7.08982">
        <ele>711.2</ele>
        <time>2022-01-27T14:21:01.625Z</time>
      </trkpt>
      <trkpt lat="47.99263" lon="7.08993">
        <ele>712.6</ele>
        <time>2022-01-27T14:21:11.026Z</time>
      </trkpt>
      <trkpt lat="47.99244" lon="7.09001">
        <ele>714.3</ele>
        <time>2022-01-27T14:21:20.581Z</time>
      </trkpt>
      <trkpt lat="47.99226" lon="7.0899">
        <ele>715.1</ele>
        <time>2022-01-27T14:21:30.245Z</time>
      </trkpt>
      <trkpt lat="47.9922" lon="7.08985">
        <ele>715.4</ele>
        <time>2022-01-27T14:21:40.000Z</time>
      </trkpt>
      <trkpt lat="47.99215" lon="7.08976">
        <ele>715.2</ele>
        <time>2022-01-27T14:21:49.503Z</time>
      </trkpt>
      <trkpt lat="47.99212" lon="7.08974">
        <ele>715.8</ele>
        <time>2022-01-27T14:21:58.944Z</time>
      </trkpt>
      <trkpt lat="47.99195" lon="7.08963">
        <ele>718.6</ele>
        <time>2022-01-27T14:22:09.000Z</time>
      </trkpt>
      <trkpt lat="47.99193" lon="7.08955">
        <ele>717.8</ele>
        <time>2022-01-27T14:22:18.265Z</time>
      </trkpt>
      <trkpt lat="47.99185" lon="7.08937">
        <ele>716.3</ele>
        <time>2022-01-27T14:22:27.485Z</time>
      </trkpt>
      <trkpt lat="47.99183" lon="7.08925">
        <ele>714.4</ele>
        <time>2022-01-27T14:22:37.000Z</time>
      </trkpt>
      <trkpt lat="47.99179" lon="7.08892">
        <ele>706.7</ele>
        <time>2022-01-27T14:22:46.385Z</time>
      </trkpt>
      <trkpt lat="47.99185" lon="7.08896">
        <ele>706.3</ele>
        <time>2022-01-27T14:22:55.783Z</time>
      </trkpt>
      <trkpt lat="47.99185" lon="7.08892">
        <ele>705</ele>
        <time>2022-01-27T14:23:05.305Z</time>
      </trkpt>
      <trkpt lat="47.99178" lon="7.08858">
        <ele>698.6</ele>
        <time>2022-01-27T14:23:14.744Z</time>
      </trkpt>
      <trkpt lat="47.99171" lon="7.08844">
        <ele>697.3</ele>
        <time>2022-01-27T14:23:24.110Z</time>
      </trkpt>
      <trkpt lat="47.99168" lon="7.08823">
        <ele>693.5</ele>
        <time>2022-01-27T14:23:33.661Z</time>
      </trkpt>
      <trkpt lat="47.99167" lon="7.08815">
        <ele>691.9</ele>
        <time>2022-01-27T14:23:42.741Z</time>
      </trkpt>
      <trkpt lat="47.99167" lon="7.08807">
        <ele>690.2</ele>
        <time>2022-01-27T14:23:52.000Z</time>
      </trkpt>
      <trkpt lat="47.99163" lon="7.08781">
        <ele>686.1</ele>
        <time>2022-01-27T14:24:01.261Z</time>
      </trkpt>
      <trkpt lat="47.99162" lon="7.08771">
        <ele>684.4</ele>
        <time>2022-01-27T14:24:10.422Z</time>
      </trkpt>
      <trkpt lat="47.99157" lon="7.08755">
        <ele>683.4</ele>
        <time>2022-01-27T14:24:19.683Z</time>
      </trkpt>
      <trkpt lat="47.99151" lon="7.08745">
        <ele>683.6</ele>
        <time>2022-01-27T14:24:29.000Z</time>
      </trkpt>
      <trkpt lat="47.99145" lon="7.08728">
        <ele>682.3</ele>
        <time>2022-01-27T14:24:38.343Z</time>
      </trkpt>
      <trkpt lat="47.9914" lon="7.08711">
        <ele>680.7</ele>
        <time>2022-01-27T14:24:47.725Z</time>
      </trkpt>
      <trkpt lat="47.99139" lon="7.08707">
        <ele>680.1</ele>
        <time>2022-01-27T14:24:57.603Z</time>
      </trkpt>
      <trkpt lat="47.99134" lon="7.0868">
        <ele>676.7</ele>
        <time>2022-01-27T14:25:07.123Z</time>
      </trkpt>
      <trkpt lat="47.9913" lon="7.08669">
        <ele>675.9</ele>
        <time>2022-01-27T14:25:17.000Z</time>
      </trkpt>
      <trkpt lat="47.99128" lon="7.08657">
        <ele>674.2</ele>
        <time>2022-01-27T14:25:26.227Z</time>
      </trkpt>
      <trkpt lat="47.99123" lon="7.08639">
        <ele>672</ele>
        <time>2022-01-27T14:25:35.543Z</time>
      </trkpt>
      <trkpt lat="47.99119" lon="7.08616">
        <ele>668.3</ele>
        <time>2022-01-27T14:25:45.000Z</time>
      </trkpt>
      <trkpt lat="47.99114" lon="7.08598">
        <ele>665.7</ele>
        <time>2022-01-27T14:25:54.345Z</time>
      </trkpt>
      <trkpt lat="47.99108" lon="7.08579">
        <ele>662.7</ele>
        <time>2022-01-27T14:26:03.523Z</time>
      </trkpt>
      <trkpt lat="47.99104" lon="7.0857">
        <ele>660.9</ele>
        <time>2022-01-27T14:26:12.722Z</time>
      </trkpt>
      <trkpt lat="47.99102" lon="7.08563">
        <ele>659.7</ele>
        <time>2022-01-27T14:26:22.000Z</time>
      </trkpt>
      <trkpt lat="47.99096" lon="7.08546">
        <ele>656</ele>
        <time>2022-01-27T14:26:31.403Z</time>
      </trkpt>
      <trkpt lat="47.99089" lon="7.08527">
        <ele>652.1</ele>
        <time>2022-01-27T14:26:41.000Z</time>
      </trkpt>
      <trkpt lat="47.99084" lon="7.08519">
        <ele>651.1</ele>
        <time>2022-01-27T14:26:50.523Z</time>
      </trkpt>
      <trkpt lat="47.9908" lon="7.08505">
        <ele>648.7</ele>
        <time>2022-01-27T14:27:00.000Z</time>
      </trkpt>
      <trkpt lat="47.99079" lon="7.08499">
        <ele>647.5</ele>
        <time>2022-01-27T14:27:09.585Z</time>
      </trkpt>
      <trkpt lat="47.9907" lon="7.08475">
        <ele>643.7</ele>
        <time>2022-01-27T14:27:19.000Z</time>
      </trkpt>
      <trkpt lat="47.99062" lon="7.08465">
        <ele>643.6</ele>
        <time>2022-01-27T14:27:28.661Z</time>
      </trkpt>
      <trkpt lat="47.99053" lon="7.08444">
        <ele>640.9</ele>
        <time>2022-01-27T14:27:38.626Z</time>
      </trkpt>
      <trkpt lat="47.99049" lon="7.08427">
        <ele>637.5</ele>
        <time>2022-01-27T14:27:48.000Z</time>
      </trkpt>
      <trkpt lat="47.99045" lon="7.08414">
        <ele>635</ele>
        <time>2022-01-27T14:27:57.166Z</time>
      </trkpt>
      <trkpt lat="47.99032" lon="7.08408">
        <ele>637.2</ele>
        <time>2022-01-27T14:28:06.582Z</time>
      </trkpt>
      <trkpt lat="47.99021" lon="7.08408">
        <ele>640.3</ele>
        <time>2022-01-27T14:28:16.127Z</time>
      </trkpt>
      <trkpt lat="47.99016" lon="7.08403">
        <ele>639.9</ele>
        <time>2022-01-27T14:28:25.623Z</time>
      </trkpt>
      <trkpt lat="47.99008" lon="7.08398">
        <ele>640.9</ele>
        <time>2022-01-27T14:28:35.000Z</time>
      </trkpt>
      <trkpt lat="47.98997" lon="7.08391">
        <ele>641</ele>
        <time>2022-01-27T14:28:45.000Z</time>
      </trkpt>
      <trkpt lat="47.98988" lon="7.08397">
        <ele>643.5</ele>
        <time>2022-01-27T14:28:54.447Z</time>
      </trkpt>
      <trkpt lat="47.98983" lon="7.08397">
        <ele>643.7</ele>
        <time>2022-01-27T14:29:04.000Z</time>
      </trkpt>
      <trkpt lat="47.98961" lon="7.08392">
        <ele>642.7</ele>
        <time>2022-01-27T14:29:13.462Z</time>
      </trkpt>
      <trkpt lat="47.98964" lon="7.08389">
        <ele>641.3</ele>
        <time>2022-01-27T14:29:22.982Z</time>
      </trkpt>
      <trkpt lat="47.98965" lon="7.08389">
        <ele>641.2</ele>
        <time>2022-01-27T14:29:32.526Z</time>
      </trkpt>
      <trkpt lat="47.98963" lon="7.08389">
        <ele>641.4</ele>
        <time>2022-01-27T14:29:50.000Z</time>
      </trkpt>
      <trkpt lat="47.98956" lon="7.08391">
        <ele>642.2</ele>
        <time>2022-01-27T14:29:59.501Z</time>
      </trkpt>
      <trkpt lat="47.98957" lon="7.08393">
        <ele>642.9</ele>
        <time>2022-01-27T14:30:09.524Z</time>
      </trkpt>
      <trkpt lat="47.9895" lon="7.08409">
        <ele>649.3</ele>
        <time>2022-01-27T14:30:19.000Z</time>
      </trkpt>
      <trkpt lat="47.98947" lon="7.08404">
        <ele>647.3</ele>
        <time>2022-01-27T14:30:29.000Z</time>
      </trkpt>
      <trkpt lat="47.98947" lon="7.08402">
        <ele>646.7</ele>
        <time>2022-01-27T14:31:02.000Z</time>
      </trkpt>
      <trkpt lat="47.98935" lon="7.08389">
        <ele>642.1</ele>
        <time>2022-01-27T14:31:11.203Z</time>
      </trkpt>
      <trkpt lat="47.98924" lon="7.08385">
        <ele>640.6</ele>
        <time>2022-01-27T14:31:20.662Z</time>
      </trkpt>
      <trkpt lat="47.98917" lon="7.08385">
        <ele>640.6</ele>
        <time>2022-01-27T14:31:29.702Z</time>
      </trkpt>
      <trkpt lat="47.98909" lon="7.08388">
        <ele>641.7</ele>
        <time>2022-01-27T14:31:39.000Z</time>
      </trkpt>
      <trkpt lat="47.98899" lon="7.08387">
        <ele>641.1</ele>
        <time>2022-01-27T14:31:48.047Z</time>
      </trkpt>
      <trkpt lat="47.98885" lon="7.08381">
        <ele>639.3</ele>
        <time>2022-01-27T14:31:57.184Z</time>
      </trkpt>
      <trkpt lat="47.98876" lon="7.08379">
        <ele>638.8</ele>
        <time>2022-01-27T14:32:06.566Z</time>
      </trkpt>
      <trkpt lat="47.98867" lon="7.08373">
        <ele>636.9</ele>
        <time>2022-01-27T14:32:16.264Z</time>
      </trkpt>
      <trkpt lat="47.98859" lon="7.08371">
        <ele>637</ele>
        <time>2022-01-27T14:32:25.443Z</time>
      </trkpt>
      <trkpt lat="47.98855" lon="7.08371">
        <ele>637.6</ele>
        <time>2022-01-27T14:32:34.644Z</time>
      </trkpt>
      <trkpt lat="47.98849" lon="7.08373">
        <ele>639.2</ele>
        <time>2022-01-27T14:32:44.126Z</time>
      </trkpt>
      <trkpt lat="47.98836" lon="7.08375">
        <ele>642</ele>
        <time>2022-01-27T14:32:54.000Z</time>
      </trkpt>
      <trkpt lat="47.98835" lon="7.08375">
        <ele>642.5</ele>
        <time>2022-01-27T14:33:04.000Z</time>
      </trkpt>
      <trkpt lat="47.98823" lon="7.08376">
        <ele>643.8</ele>
        <time>2022-01-27T14:33:13.727Z</time>
      </trkpt>
      <trkpt lat="47.98809" lon="7.08371">
        <ele>643.1</ele>
        <time>2022-01-27T14:33:23.386Z</time>
      </trkpt>
      <trkpt lat="47.98796" lon="7.08365">
        <ele>641.7</ele>
        <time>2022-01-27T14:33:33.000Z</time>
      </trkpt>
      <trkpt lat="47.98781" lon="7.08362">
        <ele>641.4</ele>
        <time>2022-01-27T14:33:42.128Z</time>
      </trkpt>
      <trkpt lat="47.98776" lon="7.08361">
        <ele>640.9</ele>
        <time>2022-01-27T14:33:51.625Z</time>
      </trkpt>
      <trkpt lat="47.98756" lon="7.0836">
        <ele>640.7</ele>
        <time>2022-01-27T14:34:01.000Z</time>
      </trkpt>
      <trkpt lat="47.98741" lon="7.08357">
        <ele>638.2</ele>
        <time>2022-01-27T14:34:10.620Z</time>
      </trkpt>
      <trkpt lat="47.98734" lon="7.08355">
        <ele>636.8</ele>
        <time>2022-01-27T14:34:19.900Z</time>
      </trkpt>
      <trkpt lat="47.98733" lon="7.08354">
        <ele>636.4</ele>
        <time>2022-01-27T14:34:30.765Z</time>
      </trkpt>
      <trkpt lat="47.98727" lon="7.08345">
        <ele>634.1</ele>
        <time>2022-01-27T14:34:40.000Z</time>
      </trkpt>
      <trkpt lat="47.98721" lon="7.08349">
        <ele>634.4</ele>
        <time>2022-01-27T14:34:50.000Z</time>
      </trkpt>
      <trkpt lat="47.9872" lon="7.08359">
        <ele>635.7</ele>
        <time>2022-01-27T14:34:59.522Z</time>
      </trkpt>
      <trkpt lat="47.98721" lon="7.0836">
        <ele>635.9</ele>
        <time>2022-01-27T14:35:01.000Z</time>
      </trkpt>
    </trkseg>
  </trk>
</gpx>